Wetterdaten: Donnerstag, 21.09.2017
Datum Zeit Temp. A. Pool Temp. Feuchte A. Luftdruck Regen Wind Richtung Richtung Sonnenschein ET UV Solar Taupunkt Windchill Windben Empfang
21.09.2017 00:00 9,8 C 13,3 C 87 % 1020,7 hPa 0,0 l/m 10,4 km/h (2 Bft) W 261 0 min 0,000 mm 0,0 UV-I 0 W/m 7,7 C 7,1 C 16,1 km/h (3 Bft) 98,00 %
21.09.2017 00:02 9,8 C 13,3 C 87 % 1020,7 hPa 0,0 l/m 8,1 km/h (2 Bft) W-SW 257 0 min 0,000 mm 0,0 UV-I 0 W/m 7,7 C 8,6 C 11,3 km/h (2 Bft) 94,59 %
21.09.2017 00:04 9,8 C 13,3 C 87 % 1020,8 hPa 0,0 l/m 9,8 km/h (2 Bft) W-SW 256 0 min 0,000 mm 0,0 UV-I 0 W/m 7,7 C 7,5 C 14,5 km/h (3 Bft) 96,23 %
21.09.2017 00:06 9,8 C 13,3 C 87 % 1020,8 hPa 0,0 l/m 12,2 km/h (2 Bft) W-SW 239 0 min 0,000 mm 0,0 UV-I 0 W/m 7,7 C 6,2 C 17,7 km/h (3 Bft) 97,96 %
21.09.2017 00:08 9,8 C 13,3 C 87 % 1020,7 hPa 0,0 l/m 10,5 km/h (2 Bft) W 265 0 min 0,000 mm 0,0 UV-I 0 W/m 7,7 C 7,1 C 16,1 km/h (3 Bft) 97,44 %
21.09.2017 00:10 9,8 C 13,3 C 87 % 1020,7 hPa 0,0 l/m 10,0 km/h (2 Bft) W 265 0 min 0,000 mm 0,0 UV-I 0 W/m 7,7 C 7,4 C 17,7 km/h (3 Bft) 94,64 %
21.09.2017 00:12 9,8 C 13,3 C 87 % 1020,7 hPa 0,0 l/m 11,1 km/h (2 Bft) SW 219 0 min 0,000 mm 0,0 UV-I 0 W/m 7,7 C 6,8 C 16,1 km/h (3 Bft) 100,00 %
21.09.2017 00:14 9,8 C 13,3 C 87 % 1020,7 hPa 0,0 l/m 9,5 km/h (2 Bft) SW 232 0 min 0,000 mm 0,0 UV-I 0 W/m 7,7 C 7,7 C 14,5 km/h (3 Bft) 95,12 %
21.09.2017 00:16 9,8 C 13,3 C 87 % 1020,7 hPa 0,0 l/m 10,8 km/h (2 Bft) W-NW 288 0 min 0,000 mm 0,0 UV-I 0 W/m 7,7 C 6,9 C 16,1 km/h (3 Bft) 92,45 %
21.09.2017 00:18 9,8 C 13,3 C 87 % 1020,7 hPa 0,0 l/m 9,1 km/h (2 Bft) W-SW 246 0 min 0,000 mm 0,0 UV-I 0 W/m 7,7 C 7,9 C 12,9 km/h (3 Bft) 92,11 %
21.09.2017 00:20 9,8 C 13,3 C 87 % 1020,7 hPa 0,0 l/m 8,7 km/h (2 Bft) W-SW 256 0 min 0,000 mm 0,0 UV-I 0 W/m 7,7 C 8,2 C 14,5 km/h (3 Bft) 96,61 %
21.09.2017 00:22 9,8 C 13,3 C 87 % 1020,7 hPa 0,0 l/m 7,7 km/h (2 Bft) SW 227 0 min 0,000 mm 0,0 UV-I 0 W/m 7,7 C 8,9 C 11,3 km/h (2 Bft) 93,18 %
21.09.2017 00:24 9,8 C 13,3 C 87 % 1020,7 hPa 0,0 l/m 8,5 km/h (2 Bft) W-SW 242 0 min 0,000 mm 0,0 UV-I 0 W/m 7,7 C 8,3 C 14,5 km/h (3 Bft) 94,00 %
21.09.2017 00:26 9,8 C 13,3 C 87 % 1020,7 hPa 0,0 l/m 8,5 km/h (2 Bft) W-SW 246 0 min 0,000 mm 0,0 UV-I 0 W/m 7,7 C 8,3 C 14,5 km/h (3 Bft) 95,12 %
21.09.2017 00:28 9,8 C 13,3 C 87 % 1020,6 hPa 0,0 l/m 10,1 km/h (2 Bft) W 271 0 min 0,000 mm 0,0 UV-I 0 W/m 7,7 C 7,3 C 12,9 km/h (3 Bft) 97,56 %
21.09.2017 00:30 9,7 C 13,3 C 87 % 1020,6 hPa 0,0 l/m 10,1 km/h (2 Bft) W-SW 238 0 min 0,000 mm 0,0 UV-I 0 W/m 7,6 C 7,2 C 14,5 km/h (3 Bft) 95,16 %
21.09.2017 00:32 9,7 C 13,3 C 87 % 1020,6 hPa 0,0 l/m 8,8 km/h (2 Bft) W-SW 239 0 min 0,000 mm 0,0 UV-I 0 W/m 7,6 C 8,0 C 14,5 km/h (3 Bft) 93,62 %
21.09.2017 00:34 9,7 C 13,3 C 87 % 1020,6 hPa 0,0 l/m 7,8 km/h (2 Bft) W-SW 255 0 min 0,000 mm 0,0 UV-I 0 W/m 7,6 C 8,7 C 12,9 km/h (3 Bft) 95,12 %
21.09.2017 00:36 9,7 C 13,3 C 87 % 1020,6 hPa 0,0 l/m 8,3 km/h (2 Bft) W-SW 255 0 min 0,000 mm 0,0 UV-I 0 W/m 7,6 C 8,3 C 12,9 km/h (3 Bft) 95,74 %
21.09.2017 00:38 9,7 C 13,3 C 87 % 1020,7 hPa 0,0 l/m 7,8 km/h (2 Bft) SW 234 0 min 0,000 mm 0,0 UV-I 0 W/m 7,6 C 8,7 C 14,5 km/h (3 Bft) 96,23 %
21.09.2017 00:40 9,7 C 13,3 C 88 % 1020,7 hPa 0,0 l/m 8,3 km/h (2 Bft) W-SW 244 0 min 0,000 mm 0,0 UV-I 0 W/m 7,8 C 8,3 C 12,9 km/h (3 Bft) 94,87 %
21.09.2017 00:42 9,7 C 13,3 C 88 % 1020,7 hPa 0,0 l/m 7,5 km/h (2 Bft) W-SW 244 0 min 0,000 mm 0,0 UV-I 0 W/m 7,8 C 8,9 C 16,1 km/h (3 Bft) 92,31 %
21.09.2017 00:44 9,7 C 13,3 C 88 % 1020,8 hPa 0,0 l/m 6,9 km/h (2 Bft) W-SW 246 0 min 0,000 mm 0,0 UV-I 0 W/m 7,8 C 9,3 C 12,9 km/h (3 Bft) 94,87 %
21.09.2017 00:46 9,7 C 13,3 C 88 % 1020,8 hPa 0,0 l/m 7,4 km/h (2 Bft) W-SW 247 0 min 0,000 mm 0,0 UV-I 0 W/m 7,8 C 9,0 C 12,9 km/h (3 Bft) 93,62 %
21.09.2017 00:48 9,7 C 13,3 C 88 % 1020,7 hPa 0,0 l/m 6,9 km/h (2 Bft) W-SW 254 0 min 0,000 mm 0,0 UV-I 0 W/m 7,8 C 9,3 C 11,3 km/h (2 Bft) 95,74 %
21.09.2017 00:50 9,7 C 13,3 C 88 % 1020,8 hPa 0,0 l/m 6,1 km/h (2 Bft) W-SW 257 0 min 0,000 mm 0,0 UV-I 0 W/m 7,8 C 9,7 C 9,7 km/h (2 Bft) 98,00 %
21.09.2017 00:52 9,7 C 13,3 C 88 % 1020,8 hPa 0,0 l/m 5,5 km/h (1 Bft) W-SW 258 0 min 0,000 mm 0,0 UV-I 0 W/m 7,8 C 9,7 C 11,3 km/h (2 Bft) 96,23 %
21.09.2017 00:54 9,7 C 13,3 C 88 % 1020,8 hPa 0,0 l/m 7,7 km/h (2 Bft) W-SW 239 0 min 0,000 mm 0,0 UV-I 0 W/m 7,8 C 8,7 C 12,9 km/h (3 Bft) 97,37 %
21.09.2017 00:56 9,7 C 13,3 C 88 % 1020,8 hPa 0,0 l/m 5,4 km/h (1 Bft) W-SW 248 0 min 0,000 mm 0,0 UV-I 0 W/m 7,8 C 9,7 C 8,0 km/h (2 Bft) 96,00 %
21.09.2017 00:58 9,7 C 13,3 C 88 % 1020,8 hPa 0,0 l/m 5,2 km/h (1 Bft) W-SW 248 0 min 0,000 mm 0,0 UV-I 0 W/m 7,8 C 9,7 C 8,0 km/h (2 Bft) 96,23 %
21.09.2017 01:00 9,7 C 13,3 C 88 % 1020,8 hPa 0,0 l/m 5,8 km/h (2 Bft) W-SW 246 0 min 0,025 mm 0,0 UV-I 0 W/m 7,8 C 9,7 C 8,0 km/h (2 Bft) 97,14 %
21.09.2017 01:02 9,7 C 13,3 C 88 % 1020,8 hPa 0,0 l/m 4,9 km/h (1 Bft) W-SW 242 0 min 0,000 mm 0,0 UV-I 0 W/m 7,8 C 9,7 C 6,4 km/h (2 Bft) 98,11 %
21.09.2017 01:04 9,7 C 13,3 C 88 % 1020,8 hPa 0,0 l/m 5,0 km/h (1 Bft) SW 229 0 min 0,000 mm 0,0 UV-I 0 W/m 7,8 C 9,7 C 8,0 km/h (2 Bft) 97,87 %
21.09.2017 01:06 9,7 C 13,3 C 88 % 1020,9 hPa 0,0 l/m 4,9 km/h (1 Bft) SW 226 0 min 0,000 mm 0,0 UV-I 0 W/m 7,8 C 9,7 C 6,4 km/h (2 Bft) 97,56 %
21.09.2017 01:08 9,7 C 13,3 C 88 % 1020,8 hPa 0,0 l/m 5,4 km/h (1 Bft) SW 223 0 min 0,000 mm 0,0 UV-I 0 W/m 7,8 C 9,7 C 8,0 km/h (2 Bft) 98,00 %
21.09.2017 01:10 9,7 C 13,3 C 88 % 1020,9 hPa 0,0 l/m 6,2 km/h (2 Bft) SW 236 0 min 0,000 mm 0,0 UV-I 0 W/m 7,8 C 9,7 C 8,0 km/h (2 Bft) 100,00 %
21.09.2017 01:12 9,7 C 13,3 C 88 % 1020,9 hPa 0,0 l/m 6,9 km/h (2 Bft) SW 223 0 min 0,000 mm 0,0 UV-I 0 W/m 7,8 C 9,3 C 8,0 km/h (2 Bft) 100,00 %
21.09.2017 01:14 9,7 C 13,3 C 88 % 1020,9 hPa 0,0 l/m 5,5 km/h (1 Bft) SW 230 0 min 0,000 mm 0,0 UV-I 0 W/m 7,8 C 9,7 C 6,4 km/h (2 Bft) 100,00 %
21.09.2017 01:16 9,7 C 13,3 C 88 % 1020,9 hPa 0,0 l/m 5,6 km/h (1 Bft) SW 228 0 min 0,000 mm 0,0 UV-I 0 W/m 7,8 C 9,7 C 8,0 km/h (2 Bft) 100,00 %
21.09.2017 01:18 9,7 C 13,3 C 88 % 1020,9 hPa 0,0 l/m 5,8 km/h (2 Bft) SW 224 0 min 0,000 mm 0,0 UV-I 0 W/m 7,8 C 9,7 C 8,0 km/h (2 Bft) 98,00 %
21.09.2017 01:20 9,7 C 13,3 C 89 % 1020,9 hPa 0,0 l/m 7,1 km/h (2 Bft) SW 226 0 min 0,000 mm 0,0 UV-I 0 W/m 8,0 C 9,2 C 9,7 km/h (2 Bft) 98,11 %
21.09.2017 01:22 9,7 C 13,3 C 89 % 1020,9 hPa 0,0 l/m 7,2 km/h (2 Bft) SW 219 0 min 0,000 mm 0,0 UV-I 0 W/m 8,0 C 9,1 C 9,7 km/h (2 Bft) 100,00 %
21.09.2017 01:24 9,7 C 13,3 C 89 % 1020,9 hPa 0,0 l/m 7,2 km/h (2 Bft) SW 236 0 min 0,000 mm 0,0 UV-I 0 W/m 8,0 C 9,1 C 11,3 km/h (2 Bft) 100,00 %
21.09.2017 01:26 9,7 C 13,3 C 89 % 1020,9 hPa 0,0 l/m 9,7 km/h (2 Bft) SW 219 0 min 0,000 mm 0,0 UV-I 0 W/m 8,0 C 7,4 C 14,5 km/h (3 Bft) 100,00 %
21.09.2017 01:28 9,7 C 13,3 C 89 % 1020,9 hPa 0,0 l/m 9,2 km/h (2 Bft) W-SW 242 0 min 0,000 mm 0,0 UV-I 0 W/m 8,0 C 7,7 C 11,3 km/h (2 Bft) 100,00 %
21.09.2017 01:30 9,7 C 13,3 C 89 % 1020,8 hPa 0,0 l/m 9,4 km/h (2 Bft) W-SW 254 0 min 0,000 mm 0,0 UV-I 0 W/m 8,0 C 7,6 C 14,5 km/h (3 Bft) 100,00 %
21.09.2017 01:32 9,6 C 13,3 C 89 % 1020,8 hPa 0,0 l/m 10,4 km/h (2 Bft) SW 229 0 min 0,000 mm 0,0 UV-I 0 W/m 7,9 C 6,9 C 14,5 km/h (3 Bft) 98,11 %
21.09.2017 01:34 9,6 C 13,3 C 89 % 1020,8 hPa 0,0 l/m 9,2 km/h (2 Bft) W-SW 247 0 min 0,000 mm 0,0 UV-I 0 W/m 7,9 C 7,6 C 14,5 km/h (3 Bft) 97,37 %
21.09.2017 01:36 9,6 C 13,3 C 89 % 1020,8 hPa 0,0 l/m 10,2 km/h (2 Bft) S-SW 212 0 min 0,000 mm 0,0 UV-I 0 W/m 7,9 C 7,0 C 14,5 km/h (3 Bft) 100,00 %
21.09.2017 01:38 9,6 C 13,3 C 89 % 1020,9 hPa 0,0 l/m 9,9 km/h (2 Bft) SW 223 0 min 0,000 mm 0,0 UV-I 0 W/m 7,9 C 7,2 C 16,1 km/h (3 Bft) 98,11 %
21.09.2017 01:40 9,6 C 13,3 C 89 % 1020,9 hPa 0,0 l/m 12,0 km/h (2 Bft) SW 217 0 min 0,000 mm 0,0 UV-I 0 W/m 7,9 C 6,1 C 16,1 km/h (3 Bft) 100,00 %
21.09.2017 01:42 9,6 C 13,3 C 89 % 1020,9 hPa 0,0 l/m 7,5 km/h (2 Bft) W-SW 241 0 min 0,000 mm 0,0 UV-I 0 W/m 7,9 C 8,8 C 12,9 km/h (3 Bft) 100,00 %
21.09.2017 01:44 9,6 C 13,3 C 89 % 1020,9 hPa 0,0 l/m 9,0 km/h (2 Bft) W-SW 251 0 min 0,000 mm 0,0 UV-I 0 W/m 7,9 C 7,8 C 14,5 km/h (3 Bft) 100,00 %
21.09.2017 01:46 9,6 C 13,3 C 89 % 1020,8 hPa 0,0 l/m 11,6 km/h (2 Bft) W-SW 246 0 min 0,000 mm 0,0 UV-I 0 W/m 7,9 C 6,3 C 17,7 km/h (3 Bft) 100,00 %
21.09.2017 01:48 9,6 C 13,3 C 89 % 1020,8 hPa 0,0 l/m 9,5 km/h (2 Bft) W-SW 242 0 min 0,000 mm 0,0 UV-I 0 W/m 7,9 C 7,5 C 17,7 km/h (3 Bft) 100,00 %
21.09.2017 01:50 9,6 C 13,3 C 89 % 1020,9 hPa 0,0 l/m 12,4 km/h (3 Bft) SW 217 0 min 0,000 mm 0,0 UV-I 0 W/m 7,9 C 5,9 C 17,7 km/h (3 Bft) 100,00 %
21.09.2017 01:52 9,6 C 13,3 C 89 % 1020,9 hPa 0,0 l/m 12,9 km/h (3 Bft) W-SW 243 0 min 0,000 mm 0,0 UV-I 0 W/m 7,9 C 5,6 C 16,1 km/h (3 Bft) 96,30 %
21.09.2017 01:54 9,6 C 13,3 C 90 % 1020,9 hPa 0,0 l/m 13,3 km/h (3 Bft) W-SW 244 0 min 0,000 mm 0,0 UV-I 0 W/m 8,0 C 5,4 C 17,7 km/h (3 Bft) 100,00 %
21.09.2017 01:56 9,6 C 13,3 C 90 % 1020,9 hPa 0,0 l/m 11,3 km/h (2 Bft) SW 225 0 min 0,000 mm 0,0 UV-I 0 W/m 8,0 C 6,4 C 17,7 km/h (3 Bft) 100,00 %
21.09.2017 01:58 9,6 C 13,3 C 90 % 1020,9 hPa 0,0 l/m 10,4 km/h (2 Bft) W-SW 238 0 min 0,000 mm 0,0 UV-I 0 W/m 8,0 C 6,9 C 19,3 km/h (3 Bft) 100,00 %
21.09.2017 02:00 9,6 C 13,3 C 90 % 1020,9 hPa 0,0 l/m 11,3 km/h (2 Bft) W-SW 251 0 min 0,026 mm 0,0 UV-I 0 W/m 8,0 C 6,4 C 17,7 km/h (3 Bft) 100,00 %
21.09.2017 02:02 9,6 C 13,3 C 90 % 1020,9 hPa 0,0 l/m 8,2 km/h (2 Bft) W-SW 244 0 min 0,000 mm 0,0 UV-I 0 W/m 8,0 C 8,3 C 12,9 km/h (3 Bft) 100,00 %
21.09.2017 02:04 9,6 C 13,3 C 90 % 1020,9 hPa 0,0 l/m 10,4 km/h (2 Bft) SW 220 0 min 0,000 mm 0,0 UV-I 0 W/m 8,0 C 6,9 C 16,1 km/h (3 Bft) 98,00 %
21.09.2017 02:06 9,6 C 13,3 C 90 % 1020,8 hPa 0,0 l/m 13,1 km/h (3 Bft) SW 229 0 min 0,000 mm 0,0 UV-I 0 W/m 8,0 C 5,5 C 19,3 km/h (3 Bft) 100,00 %
21.09.2017 02:08 9,6 C 13,3 C 90 % 1020,8 hPa 0,0 l/m 9,8 km/h (2 Bft) W-SW 248 0 min 0,000 mm 0,0 UV-I 0 W/m 8,0 C 7,3 C 16,1 km/h (3 Bft) 100,00 %
21.09.2017 02:10 9,5 C 13,3 C 90 % 1020,8 hPa 0,0 l/m 11,6 km/h (2 Bft) SW 214 0 min 0,000 mm 0,0 UV-I 0 W/m 7,9 C 6,1 C 17,7 km/h (3 Bft) 100,00 %
21.09.2017 02:12 9,6 C 13,3 C 90 % 1020,8 hPa 0,0 l/m 13,2 km/h (3 Bft) SW 233 0 min 0,000 mm 0,0 UV-I 0 W/m 8,0 C 5,5 C 19,3 km/h (3 Bft) 100,00 %
21.09.2017 02:14 9,5 C 13,3 C 90 % 1020,8 hPa 0,0 l/m 12,9 km/h (3 Bft) SW 225 0 min 0,000 mm 0,0 UV-I 0 W/m 7,9 C 5,5 C 19,3 km/h (3 Bft) 100,00 %
21.09.2017 02:16 9,5 C 13,3 C 90 % 1020,8 hPa 0,0 l/m 12,9 km/h (3 Bft) W-SW 247 0 min 0,000 mm 0,0 UV-I 0 W/m 7,9 C 5,5 C 17,7 km/h (3 Bft) 100,00 %
21.09.2017 02:18 9,5 C 13,3 C 90 % 1020,8 hPa 0,0 l/m 13,5 km/h (3 Bft) W 259 0 min 0,000 mm 0,0 UV-I 0 W/m 7,9 C 5,2 C 19,3 km/h (3 Bft) 94,29 %
21.09.2017 02:20 9,5 C 13,3 C 90 % 1020,7 hPa 0,0 l/m 12,3 km/h (3 Bft) S-SW 198 0 min 0,000 mm 0,0 UV-I 0 W/m 7,9 C 5,8 C 16,1 km/h (3 Bft) 98,11 %
21.09.2017 02:22 9,5 C 13,3 C 90 % 1020,8 hPa 0,0 l/m 9,7 km/h (2 Bft) SW 230 0 min 0,000 mm 0,0 UV-I 0 W/m 7,9 C 7,2 C 22,5 km/h (4 Bft) 94,64 %
21.09.2017 02:24 9,5 C 13,3 C 90 % 1020,8 hPa 0,0 l/m 12,6 km/h (3 Bft) SW 233 0 min 0,000 mm 0,0 UV-I 0 W/m 7,9 C 5,6 C 20,9 km/h (4 Bft) 97,73 %
21.09.2017 02:26 9,5 C 13,3 C 90 % 1020,8 hPa 0,0 l/m 11,9 km/h (2 Bft) SW 230 0 min 0,000 mm 0,0 UV-I 0 W/m 7,9 C 6,0 C 17,7 km/h (3 Bft) 96,00 %
21.09.2017 02:28 9,5 C 13,3 C 90 % 1020,8 hPa 0,0 l/m 13,2 km/h (3 Bft) SW 229 0 min 0,000 mm 0,0 UV-I 0 W/m 7,9 C 5,3 C 19,3 km/h (3 Bft) 96,00 %
21.09.2017 02:30 9,5 C 13,3 C 90 % 1020,7 hPa 0,0 l/m 10,8 km/h (2 Bft) W 260 0 min 0,000 mm 0,0 UV-I 0 W/m 7,9 C 6,6 C 17,7 km/h (3 Bft) 97,14 %
21.09.2017 02:32 9,5 C 13,3 C 90 % 1020,7 hPa 0,0 l/m 15,8 km/h (3 Bft) W-SW 240 0 min 0,000 mm 0,0 UV-I 0 W/m 7,9 C 4,2 C 24,1 km/h (4 Bft) 98,11 %
21.09.2017 02:34 9,4 C 13,3 C 90 % 1020,8 hPa 0,0 l/m 12,6 km/h (3 Bft) W-SW 242 0 min 0,000 mm 0,0 UV-I 0 W/m 7,8 C 5,5 C 20,9 km/h (4 Bft) 95,45 %
21.09.2017 02:36 9,5 C 13,3 C 90 % 1020,7 hPa 0,0 l/m 10,9 km/h (2 Bft) SW 222 0 min 0,000 mm 0,0 UV-I 0 W/m 7,9 C 6,5 C 16,1 km/h (3 Bft) 96,23 %
21.09.2017 02:38 9,5 C 13,3 C 90 % 1020,8 hPa 0,0 l/m 10,0 km/h (2 Bft) W-SW 246 0 min 0,000 mm 0,0 UV-I 0 W/m 7,9 C 7,0 C 12,9 km/h (3 Bft) 97,62 %
21.09.2017 02:40 9,4 C 13,3 C 90 % 1020,8 hPa 0,0 l/m 12,1 km/h (2 Bft) SW 219 0 min 0,000 mm 0,0 UV-I 0 W/m 7,8 C 5,8 C 16,1 km/h (3 Bft) 97,56 %
21.09.2017 02:42 9,4 C 13,3 C 90 % 1020,7 hPa 0,0 l/m 13,2 km/h (3 Bft) SW 229 0 min 0,000 mm 0,0 UV-I 0 W/m 7,8 C 5,2 C 19,3 km/h (3 Bft) 96,00 %
21.09.2017 02:44 9,4 C 13,3 C 90 % 1020,8 hPa 0,0 l/m 10,6 km/h (2 Bft) SW 234 0 min 0,000 mm 0,0 UV-I 0 W/m 7,8 C 6,6 C 16,1 km/h (3 Bft) 95,74 %
21.09.2017 02:46 9,4 C 13,3 C 90 % 1020,8 hPa 0,0 l/m 10,8 km/h (2 Bft) W-SW 250 0 min 0,000 mm 0,0 UV-I 0 W/m 7,8 C 6,5 C 16,1 km/h (3 Bft) 97,37 %
21.09.2017 02:48 9,4 C 13,3 C 91 % 1020,8 hPa 0,0 l/m 9,7 km/h (2 Bft) W 272 0 min 0,000 mm 0,0 UV-I 0 W/m 8,0 C 7,1 C 16,1 km/h (3 Bft) 94,64 %
21.09.2017 02:50 9,4 C 13,3 C 90 % 1020,8 hPa 0,0 l/m 8,0 km/h (2 Bft) SW 223 0 min 0,000 mm 0,0 UV-I 0 W/m 7,8 C 8,2 C 11,3 km/h (2 Bft) 97,56 %
21.09.2017 02:52 9,4 C 13,3 C 91 % 1020,7 hPa 0,0 l/m 10,6 km/h (2 Bft) W 273 0 min 0,000 mm 0,0 UV-I 0 W/m 8,0 C 6,6 C 16,1 km/h (3 Bft) 100,00 %
21.09.2017 02:54 9,4 C 13,3 C 91 % 1020,8 hPa 0,0 l/m 9,2 km/h (2 Bft) SW 227 0 min 0,000 mm 0,0 UV-I 0 W/m 8,0 C 7,4 C 17,7 km/h (3 Bft) 97,56 %
21.09.2017 02:56 9,4 C 13,3 C 91 % 1020,6 hPa 0,0 l/m 9,8 km/h (2 Bft) W 261 0 min 0,000 mm 0,0 UV-I 0 W/m 8,0 C 7,1 C 14,5 km/h (3 Bft) 100,00 %
21.09.2017 02:58 9,4 C 13,3 C 91 % 1020,6 hPa 0,0 l/m 9,5 km/h (2 Bft) W-SW 244 0 min 0,000 mm 0,0 UV-I 0 W/m 8,0 C 7,2 C 14,5 km/h (3 Bft) 100,00 %
21.09.2017 03:00 9,4 C 13,3 C 91 % 1020,6 hPa 0,0 l/m 12,0 km/h (2 Bft) SW 225 0 min 0,025 mm 0,0 UV-I 0 W/m 8,0 C 5,8 C 17,7 km/h (3 Bft) 100,00 %
21.09.2017 03:02 9,4 C 13,3 C 91 % 1020,6 hPa 0,0 l/m 11,8 km/h (2 Bft) SW 234 0 min 0,000 mm 0,0 UV-I 0 W/m 8,0 C 5,9 C 17,7 km/h (3 Bft) 100,00 %
21.09.2017 03:04 9,4 C 13,3 C 91 % 1020,6 hPa 0,0 l/m 13,4 km/h (3 Bft) W 259 0 min 0,000 mm 0,0 UV-I 0 W/m 8,0 C 5,1 C 19,3 km/h (3 Bft) 100,00 %
21.09.2017 03:06 9,4 C 13,3 C 91 % 1020,6 hPa 0,0 l/m 10,7 km/h (2 Bft) SW 231 0 min 0,000 mm 0,0 UV-I 0 W/m 8,0 C 6,5 C 17,7 km/h (3 Bft) 100,00 %
21.09.2017 03:08 9,4 C 13,3 C 91 % 1020,6 hPa 0,0 l/m 10,4 km/h (2 Bft) SW 223 0 min 0,000 mm 0,0 UV-I 0 W/m 8,0 C 6,7 C 17,7 km/h (3 Bft) 97,56 %
21.09.2017 03:10 9,4 C 13,3 C 91 % 1020,6 hPa 0,0 l/m 11,7 km/h (2 Bft) W-SW 252 0 min 0,000 mm 0,0 UV-I 0 W/m 8,0 C 6,0 C 20,9 km/h (4 Bft) 100,00 %
21.09.2017 03:12 9,3 C 13,3 C 91 % 1020,6 hPa 0,0 l/m 11,1 km/h (2 Bft) SW 221 0 min 0,000 mm 0,0 UV-I 0 W/m 7,9 C 6,2 C 16,1 km/h (3 Bft) 100,00 %
21.09.2017 03:14 9,4 C 13,3 C 91 % 1020,6 hPa 0,0 l/m 11,0 km/h (2 Bft) SW 231 0 min 0,000 mm 0,0 UV-I 0 W/m 8,0 C 6,4 C 16,1 km/h (3 Bft) 100,00 %
21.09.2017 03:16 9,3 C 13,3 C 91 % 1020,6 hPa 0,0 l/m 11,0 km/h (2 Bft) W-SW 242 0 min 0,000 mm 0,0 UV-I 0 W/m 7,9 C 6,2 C 14,5 km/h (3 Bft) 100,00 %
21.09.2017 03:18 9,3 C 13,3 C 91 % 1020,6 hPa 0,0 l/m 10,5 km/h (2 Bft) SW 220 0 min 0,000 mm 0,0 UV-I 0 W/m 7,9 C 6,5 C 16,1 km/h (3 Bft) 100,00 %
21.09.2017 03:20 9,3 C 13,3 C 91 % 1020,6 hPa 0,0 l/m 9,1 km/h (2 Bft) SW 227 0 min 0,000 mm 0,0 UV-I 0 W/m 7,9 C 7,4 C 12,9 km/h (3 Bft) 100,00 %
21.09.2017 03:22 9,3 C 13,3 C 92 % 1020,6 hPa 0,0 l/m 11,4 km/h (2 Bft) SW 228 0 min 0,000 mm 0,0 UV-I 0 W/m 8,1 C 6,0 C 16,1 km/h (3 Bft) 97,73 %
21.09.2017 03:24 9,3 C 13,3 C 92 % 1020,6 hPa 0,0 l/m 8,4 km/h (2 Bft) W-SW 254 0 min 0,000 mm 0,0 UV-I 0 W/m 8,1 C 7,8 C 14,5 km/h (3 Bft) 96,43 %
21.09.2017 03:26 9,3 C 13,3 C 92 % 1020,6 hPa 0,0 l/m 10,4 km/h (2 Bft) W 264 0 min 0,000 mm 0,0 UV-I 0 W/m 8,1 C 6,6 C 12,9 km/h (3 Bft) 100,00 %
21.09.2017 03:28 9,3 C 13,3 C 92 % 1020,6 hPa 0,0 l/m 12,4 km/h (3 Bft) W-SW 243 0 min 0,000 mm 0,0 UV-I 0 W/m 8,1 C 5,5 C 17,7 km/h (3 Bft) 100,00 %
21.09.2017 03:30 9,3 C 13,3 C 92 % 1020,6 hPa 0,0 l/m 9,0 km/h (2 Bft) W 261 0 min 0,000 mm 0,0 UV-I 0 W/m 8,1 C 7,4 C 16,1 km/h (3 Bft) 100,00 %
21.09.2017 03:32 9,3 C 13,3 C 92 % 1020,6 hPa 0,0 l/m 9,5 km/h (2 Bft) W-SW 239 0 min 0,000 mm 0,0 UV-I 0 W/m 8,1 C 7,1 C 16,1 km/h (3 Bft) 100,00 %
21.09.2017 03:34 9,3 C 13,3 C 92 % 1020,6 hPa 0,0 l/m 11,7 km/h (2 Bft) SW 225 0 min 0,000 mm 0,0 UV-I 0 W/m 8,1 C 5,9 C 17,7 km/h (3 Bft) 100,00 %
21.09.2017 03:36 9,3 C 13,3 C 92 % 1020,6 hPa 0,0 l/m 10,1 km/h (2 Bft) W-SW 244 0 min 0,000 mm 0,0 UV-I 0 W/m 8,1 C 6,8 C 17,7 km/h (3 Bft) 97,56 %
21.09.2017 03:38 9,3 C 13,3 C 92 % 1020,6 hPa 0,0 l/m 10,8 km/h (2 Bft) W-SW 252 0 min 0,000 mm 0,0 UV-I 0 W/m 8,1 C 6,4 C 16,1 km/h (3 Bft) 100,00 %
21.09.2017 03:40 9,3 C 13,3 C 92 % 1020,6 hPa 0,0 l/m 9,9 km/h (2 Bft) SW 221 0 min 0,000 mm 0,0 UV-I 0 W/m 8,1 C 6,9 C 14,5 km/h (3 Bft) 100,00 %
21.09.2017 03:42 9,3 C 13,3 C 92 % 1020,6 hPa 0,0 l/m 9,9 km/h (2 Bft) SW 221 0 min 0,000 mm 0,0 UV-I 0 W/m 8,1 C 6,9 C 12,9 km/h (3 Bft) 100,00 %
21.09.2017 03:44 9,3 C 13,3 C 92 % 1020,6 hPa 0,0 l/m 10,1 km/h (2 Bft) SW 223 0 min 0,000 mm 0,0 UV-I 0 W/m 8,1 C 6,8 C 14,5 km/h (3 Bft) 100,00 %
21.09.2017 03:46 9,3 C 13,3 C 92 % 1020,6 hPa 0,0 l/m 10,5 km/h (2 Bft) SW 229 0 min 0,000 mm 0,0 UV-I 0 W/m 8,1 C 6,5 C 17,7 km/h (3 Bft) 97,37 %
21.09.2017 03:48 9,3 C 13,3 C 92 % 1020,5 hPa 0,0 l/m 11,4 km/h (2 Bft) W-SW 242 0 min 0,000 mm 0,0 UV-I 0 W/m 8,1 C 6,0 C 16,1 km/h (3 Bft) 94,00 %
21.09.2017 03:50 9,3 C 13,3 C 92 % 1020,6 hPa 0,0 l/m 9,5 km/h (2 Bft) W-SW 249 0 min 0,000 mm 0,0 UV-I 0 W/m 8,1 C 7,1 C 16,1 km/h (3 Bft) 98,21 %
21.09.2017 03:52 9,3 C 13,3 C 92 % 1020,6 hPa 0,0 l/m 11,8 km/h (2 Bft) W-SW 250 0 min 0,000 mm 0,0 UV-I 0 W/m 8,1 C 5,8 C 16,1 km/h (3 Bft) 95,83 %
21.09.2017 03:54 9,3 C 13,3 C 92 % 1020,6 hPa 0,0 l/m 9,9 km/h (2 Bft) W-SW 238 0 min 0,000 mm 0,0 UV-I 0 W/m 8,1 C 6,9 C 14,5 km/h (3 Bft) 96,88 %
21.09.2017 03:56 9,3 C 13,3 C 92 % 1020,6 hPa 0,0 l/m 10,5 km/h (2 Bft) W-SW 242 0 min 0,000 mm 0,0 UV-I 0 W/m 8,1 C 6,5 C 16,1 km/h (3 Bft) 98,00 %
21.09.2017 03:58 9,3 C 13,3 C 92 % 1020,6 hPa 0,0 l/m 9,8 km/h (2 Bft) S-SW 209 0 min 0,000 mm 0,0 UV-I 0 W/m 8,1 C 6,9 C 16,1 km/h (3 Bft) 98,00 %
21.09.2017 04:00 9,3 C 13,3 C 92 % 1020,5 hPa 0,0 l/m 11,2 km/h (2 Bft) SW 225 0 min 0,000 mm 0,0 UV-I 0 W/m 8,1 C 6,1 C 16,1 km/h (3 Bft) 97,44 %
21.09.2017 04:02 9,3 C 13,3 C 92 % 1020,5 hPa 0,0 l/m 8,9 km/h (2 Bft) SW 234 0 min 0,000 mm 0,0 UV-I 0 W/m 8,1 C 7,5 C 14,5 km/h (3 Bft) 100,00 %
21.09.2017 04:04 9,3 C 13,3 C 92 % 1020,5 hPa 0,0 l/m 9,9 km/h (2 Bft) S-SW 211 0 min 0,000 mm 0,0 UV-I 0 W/m 8,1 C 6,9 C 14,5 km/h (3 Bft) 100,00 %
21.09.2017 04:06 9,3 C 13,3 C 92 % 1020,5 hPa 0,0 l/m 11,3 km/h (2 Bft) SW 222 0 min 0,000 mm 0,0 UV-I 0 W/m 8,1 C 6,1 C 17,7 km/h (3 Bft) 96,23 %
21.09.2017 04:08 9,3 C 13,3 C 92 % 1020,5 hPa 0,0 l/m 10,7 km/h (2 Bft) W-SW 242 0 min 0,000 mm 0,0 UV-I 0 W/m 8,1 C 6,4 C 14,5 km/h (3 Bft) 97,56 %
21.09.2017 04:10 9,3 C 13,3 C 92 % 1020,5 hPa 0,0 l/m 10,8 km/h (2 Bft) S-SW 213 0 min 0,000 mm 0,0 UV-I 0 W/m 8,1 C 6,4 C 14,5 km/h (3 Bft) 100,00 %
21.09.2017 04:12 9,3 C 13,3 C 92 % 1020,6 hPa 0,0 l/m 7,9 km/h (2 Bft) S-SW 213 0 min 0,000 mm 0,0 UV-I 0 W/m 8,1 C 8,2 C 12,9 km/h (3 Bft) 96,77 %
21.09.2017 04:14 9,3 C 13,3 C 92 % 1020,5 hPa 0,0 l/m 8,1 km/h (2 Bft) SW 223 0 min 0,000 mm 0,0 UV-I 0 W/m 8,1 C 8,0 C 11,3 km/h (2 Bft) 95,12 %
21.09.2017 04:16 9,3 C 13,3 C 92 % 1020,5 hPa 0,0 l/m 10,1 km/h (2 Bft) W-SW 248 0 min 0,000 mm 0,0 UV-I 0 W/m 8,1 C 6,8 C 16,1 km/h (3 Bft) 97,56 %
21.09.2017 04:18 9,3 C 13,3 C 92 % 1020,5 hPa 0,0 l/m 9,5 km/h (2 Bft) SW 219 0 min 0,000 mm 0,0 UV-I 0 W/m 8,1 C 7,1 C 12,9 km/h (3 Bft) 100,00 %
21.09.2017 04:20 9,3 C 13,3 C 92 % 1020,5 hPa 0,0 l/m 8,3 km/h (2 Bft) W-SW 240 0 min 0,000 mm 0,0 UV-I 0 W/m 8,1 C 7,9 C 12,9 km/h (3 Bft) 96,43 %
21.09.2017 04:22 9,3 C 13,3 C 92 % 1020,5 hPa 0,0 l/m 5,3 km/h (1 Bft) SW 224 0 min 0,000 mm 0,0 UV-I 0 W/m 8,1 C 9,3 C 8,0 km/h (2 Bft) 94,74 %
21.09.2017 04:24 9,3 C 13,3 C 92 % 1020,5 hPa 0,0 l/m 6,7 km/h (2 Bft) W-SW 239 0 min 0,000 mm 0,0 UV-I 0 W/m 8,1 C 9,1 C 9,7 km/h (2 Bft) 94,00 %
21.09.2017 04:26 9,3 C 13,3 C 92 % 1020,4 hPa 0,0 l/m 8,5 km/h (2 Bft) S-SW 213 0 min 0,000 mm 0,0 UV-I 0 W/m 8,1 C 7,8 C 12,9 km/h (3 Bft) 95,74 %
21.09.2017 04:28 9,3 C 13,3 C 92 % 1020,4 hPa 0,0 l/m 9,2 km/h (2 Bft) SW 227 0 min 0,000 mm 0,0 UV-I 0 W/m 8,1 C 7,3 C 14,5 km/h (3 Bft) 95,45 %
21.09.2017 04:30 9,3 C 13,3 C 92 % 1020,4 hPa 0,0 l/m 9,3 km/h (2 Bft) SW 220 0 min 0,000 mm 0,0 UV-I 0 W/m 8,1 C 7,3 C 14,5 km/h (3 Bft) 92,00 %
21.09.2017 04:32 9,3 C 13,3 C 92 % 1020,4 hPa 0,0 l/m 11,1 km/h (2 Bft) W-SW 244 0 min 0,000 mm 0,0 UV-I 0 W/m 8,1 C 6,2 C 16,1 km/h (3 Bft) 94,34 %
21.09.2017 04:34 9,3 C 13,3 C 92 % 1020,4 hPa 0,0 l/m 9,1 km/h (2 Bft) W-SW 242 0 min 0,000 mm 0,0 UV-I 0 W/m 8,1 C 7,4 C 14,5 km/h (3 Bft) 95,12 %
21.09.2017 04:36 9,3 C 13,3 C 92 % 1020,4 hPa 0,0 l/m 9,1 km/h (2 Bft) SW 221 0 min 0,000 mm 0,0 UV-I 0 W/m 8,1 C 7,4 C 12,9 km/h (3 Bft) 95,24 %
21.09.2017 04:38 9,3 C 13,3 C 93 % 1020,4 hPa 0,0 l/m 7,2 km/h (2 Bft) SW 232 0 min 0,000 mm 0,0 UV-I 0 W/m 8,2 C 8,7 C 11,3 km/h (2 Bft) 96,00 %
21.09.2017 04:40 9,3 C 13,3 C 93 % 1020,4 hPa 0,0 l/m 9,7 km/h (2 Bft) SW 228 0 min 0,000 mm 0,0 UV-I 0 W/m 8,2 C 7,0 C 16,1 km/h (3 Bft) 94,23 %
21.09.2017 04:42 9,3 C 13,3 C 93 % 1020,4 hPa 0,0 l/m 10,1 km/h (2 Bft) SW 236 0 min 0,000 mm 0,0 UV-I 0 W/m 8,2 C 6,8 C 12,9 km/h (3 Bft) 92,86 %
21.09.2017 04:44 9,3 C 13,3 C 93 % 1020,4 hPa 0,0 l/m 10,1 km/h (2 Bft) SW 234 0 min 0,000 mm 0,0 UV-I 0 W/m 8,2 C 6,8 C 14,5 km/h (3 Bft) 94,00 %
21.09.2017 04:46 9,3 C 13,3 C 93 % 1020,4 hPa 0,0 l/m 9,5 km/h (2 Bft) SW 227 0 min 0,000 mm 0,0 UV-I 0 W/m 8,2 C 7,1 C 12,9 km/h (3 Bft) 97,14 %
21.09.2017 04:48 9,3 C 13,3 C 93 % 1020,4 hPa 0,0 l/m 7,7 km/h (2 Bft) SW 223 0 min 0,000 mm 0,0 UV-I 0 W/m 8,2 C 8,3 C 11,3 km/h (2 Bft) 94,64 %
21.09.2017 04:50 9,3 C 13,3 C 93 % 1020,4 hPa 0,0 l/m 7,6 km/h (2 Bft) SW 234 0 min 0,000 mm 0,0 UV-I 0 W/m 8,2 C 8,4 C 12,9 km/h (3 Bft) 97,73 %
21.09.2017 04:52 9,3 C 13,3 C 93 % 1020,4 hPa 0,0 l/m 7,0 km/h (2 Bft) SW 232 0 min 0,000 mm 0,0 UV-I 0 W/m 8,2 C 8,9 C 11,3 km/h (2 Bft) 95,45 %
21.09.2017 04:54 9,3 C 13,3 C 93 % 1020,4 hPa 0,0 l/m 6,4 km/h (2 Bft) SW 235 0 min 0,000 mm 0,0 UV-I 0 W/m 8,2 C 9,3 C 8,0 km/h (2 Bft) 100,00 %
21.09.2017 04:56 9,3 C 13,3 C 93 % 1020,4 hPa 0,0 l/m 6,1 km/h (2 Bft) SW 221 0 min 0,000 mm 0,0 UV-I 0 W/m 8,2 C 9,3 C 8,0 km/h (2 Bft) 100,00 %
21.09.2017 04:58 9,3 C 13,3 C 93 % 1020,4 hPa 0,0 l/m 5,9 km/h (2 Bft) W-SW 242 0 min 0,000 mm 0,0 UV-I 0 W/m 8,2 C 9,3 C 9,7 km/h (2 Bft) 97,37 %
21.09.2017 05:00 9,3 C 13,3 C 93 % 1020,4 hPa 0,0 l/m 6,9 km/h (2 Bft) W-SW 240 0 min 0,000 mm 0,0 UV-I 0 W/m 8,2 C 8,9 C 9,7 km/h (2 Bft) 100,00 %
21.09.2017 05:02 9,3 C 13,3 C 93 % 1020,4 hPa 0,0 l/m 7,0 km/h (2 Bft) W-SW 246 0 min 0,000 mm 0,0 UV-I 0 W/m 8,2 C 8,9 C 9,7 km/h (2 Bft) 100,00 %
21.09.2017 05:04 9,3 C 13,3 C 93 % 1020,4 hPa 0,0 l/m 6,8 km/h (2 Bft) SW 223 0 min 0,000 mm 0,0 UV-I 0 W/m 8,2 C 9,0 C 9,7 km/h (2 Bft) 100,00 %
21.09.2017 05:06 9,3 C 13,3 C 93 % 1020,3 hPa 0,0 l/m 9,0 km/h (2 Bft) SW 233 0 min 0,000 mm 0,0 UV-I 0 W/m 8,2 C 7,4 C 14,5 km/h (3 Bft) 100,00 %
21.09.2017 05:08 9,3 C 13,3 C 93 % 1020,3 hPa 0,0 l/m 7,8 km/h (2 Bft) SW 223 0 min 0,000 mm 0,0 UV-I 0 W/m 8,2 C 8,3 C 12,9 km/h (3 Bft) 98,00 %
21.09.2017 05:10 9,3 C 13,3 C 93 % 1020,3 hPa 0,0 l/m 8,0 km/h (2 Bft) SW 236 0 min 0,000 mm 0,0 UV-I 0 W/m 8,2 C 8,1 C 12,9 km/h (3 Bft) 100,00 %
21.09.2017 05:12 9,3 C 13,3 C 93 % 1020,2 hPa 0,0 l/m 8,5 km/h (2 Bft) SW 214 0 min 0,000 mm 0,0 UV-I 0 W/m 8,2 C 7,8 C 12,9 km/h (3 Bft) 97,30 %
21.09.2017 05:14 9,3 C 13,3 C 93 % 1020,3 hPa 0,0 l/m 8,0 km/h (2 Bft) W-SW 240 0 min 0,000 mm 0,0 UV-I 0 W/m 8,2 C 8,1 C 11,3 km/h (2 Bft) 100,00 %
21.09.2017 05:16 9,3 C 13,3 C 93 % 1020,2 hPa 0,0 l/m 8,6 km/h (2 Bft) SW 227 0 min 0,000 mm 0,0 UV-I 0 W/m 8,2 C 7,7 C 11,3 km/h (2 Bft) 100,00 %
21.09.2017 05:18 9,3 C 13,3 C 93 % 1020,3 hPa 0,0 l/m 9,3 km/h (2 Bft) SW 228 0 min 0,000 mm 0,0 UV-I 0 W/m 8,2 C 7,3 C 14,5 km/h (3 Bft) 100,00 %
21.09.2017 05:20 9,3 C 13,3 C 93 % 1020,2 hPa 0,0 l/m 8,8 km/h (2 Bft) W-SW 241 0 min 0,000 mm 0,0 UV-I 0 W/m 8,2 C 7,6 C 12,9 km/h (3 Bft) 100,00 %
21.09.2017 05:22 9,3 C 13,3 C 93 % 1020,2 hPa 0,0 l/m 8,2 km/h (2 Bft) S-SW 207 0 min 0,000 mm 0,0 UV-I 0 W/m 8,2 C 8,0 C 11,3 km/h (2 Bft) 100,00 %
21.09.2017 05:24 9,3 C 13,3 C 93 % 1020,2 hPa 0,0 l/m 6,7 km/h (2 Bft) SW 230 0 min 0,000 mm 0,0 UV-I 0 W/m 8,2 C 9,1 C 12,9 km/h (3 Bft) 100,00 %
21.09.2017 05:26 9,3 C 13,3 C 93 % 1020,2 hPa 0,0 l/m 9,1 km/h (2 Bft) W-SW 244 0 min 0,000 mm 0,0 UV-I 0 W/m 8,2 C 7,4 C 16,1 km/h (3 Bft) 100,00 %
21.09.2017 05:28 9,3 C 13,3 C 93 % 1020,2 hPa 0,0 l/m 10,3 km/h (2 Bft) S-SW 207 0 min 0,000 mm 0,0 UV-I 0 W/m 8,2 C 6,6 C 14,5 km/h (3 Bft) 100,00 %
21.09.2017 05:30 9,3 C 13,3 C 93 % 1020,3 hPa 0,0 l/m 8,2 km/h (2 Bft) SW 234 0 min 0,000 mm 0,0 UV-I 0 W/m 8,2 C 8,0 C 14,5 km/h (3 Bft) 100,00 %
21.09.2017 05:32 9,3 C 13,3 C 93 % 1020,3 hPa 0,0 l/m 7,4 km/h (2 Bft) SW 236 0 min 0,000 mm 0,0 UV-I 0 W/m 8,2 C 8,6 C 11,3 km/h (2 Bft) 100,00 %
21.09.2017 05:34 9,3 C 13,3 C 93 % 1020,2 hPa 0,0 l/m 7,8 km/h (2 Bft) SW 232 0 min 0,000 mm 0,0 UV-I 0 W/m 8,2 C 8,3 C 11,3 km/h (2 Bft) 100,00 %
21.09.2017 05:36 9,3 C 13,3 C 93 % 1020,2 hPa 0,0 l/m 7,6 km/h (2 Bft) SW 225 0 min 0,000 mm 0,0 UV-I 0 W/m 8,2 C 8,4 C 12,9 km/h (3 Bft) 100,00 %
21.09.2017 05:38 9,3 C 13,3 C 93 % 1020,3 hPa 0,0 l/m 8,9 km/h (2 Bft) W-SW 237 0 min 0,000 mm 0,0 UV-I 0 W/m 8,2 C 7,5 C 16,1 km/h (3 Bft) 97,87 %
21.09.2017 05:40 9,3 C 13,3 C 93 % 1020,2 hPa 0,0 l/m 9,3 km/h (2 Bft) SW 227 0 min 0,000 mm 0,0 UV-I 0 W/m 8,2 C 7,3 C 14,5 km/h (3 Bft) 100,00 %
21.09.2017 05:42 9,3 C 13,3 C 93 % 1020,2 hPa 0,0 l/m 8,5 km/h (2 Bft) W-SW 246 0 min 0,000 mm 0,0 UV-I 0 W/m 8,2 C 7,8 C 12,9 km/h (3 Bft) 100,00 %
21.09.2017 05:44 9,3 C 13,3 C 93 % 1020,2 hPa 0,0 l/m 9,9 km/h (2 Bft) SW 222 0 min 0,000 mm 0,0 UV-I 0 W/m 8,2 C 6,9 C 12,9 km/h (3 Bft) 100,00 %
21.09.2017 05:46 9,3 C 13,3 C 93 % 1020,2 hPa 0,0 l/m 10,7 km/h (2 Bft) SW 227 0 min 0,000 mm 0,0 UV-I 0 W/m 8,2 C 6,4 C 16,1 km/h (3 Bft) 97,73 %
21.09.2017 05:48 9,3 C 13,3 C 93 % 1020,2 hPa 0,0 l/m 11,2 km/h (2 Bft) W-SW 248 0 min 0,000 mm 0,0 UV-I 0 W/m 8,2 C 6,1 C 17,7 km/h (3 Bft) 100,00 %
21.09.2017 05:50 9,3 C 13,3 C 93 % 1020,3 hPa 0,0 l/m 10,2 km/h (2 Bft) W-SW 242 0 min 0,000 mm 0,0 UV-I 0 W/m 8,2 C 6,7 C 17,7 km/h (3 Bft) 100,00 %
21.09.2017 05:52 9,3 C 13,3 C 93 % 1020,2 hPa 0,0 l/m 8,4 km/h (2 Bft) SW 235 0 min 0,000 mm 0,0 UV-I 0 W/m 8,2 C 7,8 C 12,9 km/h (3 Bft) 100,00 %
21.09.2017 05:54 9,3 C 13,3 C 93 % 1020,2 hPa 0,0 l/m 8,2 km/h (2 Bft) W-SW 238 0 min 0,000 mm 0,0 UV-I 0 W/m 8,2 C 8,0 C 11,3 km/h (2 Bft) 100,00 %
21.09.2017 05:56 9,3 C 13,3 C 93 % 1020,3 hPa 0,0 l/m 6,7 km/h (2 Bft) SW 227 0 min 0,000 mm 0,0 UV-I 0 W/m 8,2 C 9,1 C 9,7 km/h (2 Bft) 100,00 %
21.09.2017 05:58 9,3 C 13,3 C 93 % 1020,3 hPa 0,0 l/m 7,4 km/h (2 Bft) W-SW 238 0 min 0,000 mm 0,0 UV-I 0 W/m 8,2 C 8,6 C 9,7 km/h (2 Bft) 100,00 %
21.09.2017 06:00 9,3 C 13,3 C 93 % 1020,3 hPa 0,0 l/m 6,0 km/h (2 Bft) SW 229 0 min 0,000 mm 0,0 UV-I 0 W/m 8,2 C 9,3 C 8,0 km/h (2 Bft) 100,00 %
21.09.2017 06:02 9,3 C 13,3 C 93 % 1020,2 hPa 0,0 l/m 6,8 km/h (2 Bft) W 273 0 min 0,000 mm 0,0 UV-I 0 W/m 8,2 C 9,0 C 12,9 km/h (3 Bft) 100,00 %
21.09.2017 06:04 9,3 C 13,3 C 93 % 1020,3 hPa 0,0 l/m 7,6 km/h (2 Bft) W-SW 244 0 min 0,000 mm 0,0 UV-I 0 W/m 8,2 C 8,4 C 11,3 km/h (2 Bft) 100,00 %
21.09.2017 06:06 9,3 C 13,3 C 93 % 1020,3 hPa 0,0 l/m 7,5 km/h (2 Bft) W 261 0 min 0,000 mm 0,0 UV-I 0 W/m 8,2 C 8,5 C 12,9 km/h (3 Bft) 100,00 %
21.09.2017 06:08 9,3 C 13,3 C 93 % 1020,3 hPa 0,0 l/m 11,0 km/h (2 Bft) W-SW 246 0 min 0,000 mm 0,0 UV-I 0 W/m 8,2 C 6,2 C 16,1 km/h (3 Bft) 100,00 %
21.09.2017 06:10 9,3 C 13,3 C 93 % 1020,3 hPa 0,0 l/m 8,6 km/h (2 Bft) W 263 0 min 0,000 mm 0,0 UV-I 0 W/m 8,2 C 7,7 C 12,9 km/h (3 Bft) 97,87 %
21.09.2017 06:12 9,3 C 13,3 C 93 % 1020,3 hPa 0,0 l/m 9,9 km/h (2 Bft) W 264 0 min 0,000 mm 0,0 UV-I 0 W/m 8,2 C 6,9 C 12,9 km/h (3 Bft) 100,00 %
21.09.2017 06:14 9,3 C 13,3 C 93 % 1020,3 hPa 0,0 l/m 10,0 km/h (2 Bft) W-SW 250 0 min 0,000 mm 0,0 UV-I 0 W/m 8,2 C 6,8 C 14,5 km/h (3 Bft) 100,00 %
21.09.2017 06:16 9,3 C 13,3 C 93 % 1020,3 hPa 0,0 l/m 10,3 km/h (2 Bft) W-SW 255 0 min 0,000 mm 0,0 UV-I 0 W/m 8,2 C 6,6 C 14,5 km/h (3 Bft) 98,00 %
21.09.2017 06:18 9,3 C 13,3 C 93 % 1020,3 hPa 0,0 l/m 9,5 km/h (2 Bft) W-SW 244 0 min 0,000 mm 0,0 UV-I 0 W/m 8,2 C 7,1 C 16,1 km/h (3 Bft) 100,00 %
21.09.2017 06:20 9,3 C 13,3 C 93 % 1020,2 hPa 0,0 l/m 9,0 km/h (2 Bft) W-SW 250 0 min 0,000 mm 0,0 UV-I 0 W/m 8,2 C 7,4 C 12,9 km/h (3 Bft) 100,00 %
21.09.2017 06:22 9,3 C 13,3 C 93 % 1020,2 hPa 0,0 l/m 8,5 km/h (2 Bft) W-SW 239 0 min 0,000 mm 0,0 UV-I 0 W/m 8,2 C 7,8 C 14,5 km/h (3 Bft) 95,12 %
21.09.2017 06:24 9,3 C 13,3 C 92 % 1020,2 hPa 0,0 l/m 9,1 km/h (2 Bft) W-SW 249 0 min 0,000 mm 0,0 UV-I 0 W/m 8,1 C 7,4 C 14,5 km/h (3 Bft) 96,43 %
21.09.2017 06:26 9,3 C 13,3 C 92 % 1020,2 hPa 0,0 l/m 9,1 km/h (2 Bft) S-SW 209 0 min 0,000 mm 0,0 UV-I 0 W/m 8,1 C 7,4 C 16,1 km/h (3 Bft) 97,73 %
21.09.2017 06:28 9,3 C 13,3 C 92 % 1020,3 hPa 0,0 l/m 9,2 km/h (2 Bft) W-SW 246 0 min 0,000 mm 0,0 UV-I 0 W/m 8,1 C 7,3 C 16,1 km/h (3 Bft) 94,74 %
21.09.2017 06:30 9,3 C 13,3 C 92 % 1020,2 hPa 0,0 l/m 7,4 km/h (2 Bft) W 266 0 min 0,000 mm 0,0 UV-I 0 W/m 8,1 C 8,6 C 11,3 km/h (2 Bft) 96,43 %
21.09.2017 06:32 9,3 C 13,3 C 92 % 1020,3 hPa 0,0 l/m 7,4 km/h (2 Bft) W-SW 254 0 min 0,000 mm 0,0 UV-I 0 W/m 8,1 C 8,6 C 11,3 km/h (2 Bft) 97,56 %
21.09.2017 06:34 9,3 C 13,3 C 92 % 1020,2 hPa 0,0 l/m 8,6 km/h (2 Bft) W-SW 238 0 min 0,000 mm 0,0 UV-I 0 W/m 8,1 C 7,7 C 14,5 km/h (3 Bft) 98,11 %
21.09.2017 06:36 9,3 C 13,3 C 92 % 1020,3 hPa 0,0 l/m 8,6 km/h (2 Bft) W-SW 254 0 min 0,000 mm 0,0 UV-I 0 W/m 8,1 C 7,7 C 12,9 km/h (3 Bft) 97,22 %
21.09.2017 06:38 9,3 C 13,3 C 92 % 1020,3 hPa 0,0 l/m 7,9 km/h (2 Bft) W 267 0 min 0,000 mm 0,0 UV-I 0 W/m 8,1 C 8,2 C 11,3 km/h (2 Bft) 98,00 %
21.09.2017 06:40 9,3 C 13,3 C 92 % 1020,3 hPa 0,0 l/m 7,4 km/h (2 Bft) SW 228 0 min 0,000 mm 0,0 UV-I 0 W/m 8,1 C 8,6 C 12,9 km/h (3 Bft) 98,11 %
21.09.2017 06:42 9,3 C 13,3 C 92 % 1020,3 hPa 0,0 l/m 6,5 km/h (2 Bft) W-SW 248 0 min 0,000 mm 0,0 UV-I 3 W/m 8,1 C 9,3 C 11,3 km/h (2 Bft) 97,87 %
21.09.2017 06:44 9,3 C 13,3 C 92 % 1020,4 hPa 0,0 l/m 6,9 km/h (2 Bft) W-SW 246 0 min 0,000 mm 0,0 UV-I 5 W/m 8,1 C 8,9 C 11,3 km/h (2 Bft) 97,56 %
21.09.2017 06:46 9,3 C 13,3 C 92 % 1020,4 hPa 0,0 l/m 6,4 km/h (2 Bft) W-SW 247 0 min 0,000 mm 0,0 UV-I 5 W/m 8,1 C 9,3 C 11,3 km/h (2 Bft) 94,34 %
21.09.2017 06:48 9,3 C 13,3 C 92 % 1020,4 hPa 0,0 l/m 6,6 km/h (2 Bft) W-SW 256 0 min 0,000 mm 0,0 UV-I 5 W/m 8,1 C 9,2 C 9,7 km/h (2 Bft) 95,12 %
21.09.2017 06:50 9,3 C 13,3 C 92 % 1020,4 hPa 0,0 l/m 4,9 km/h (1 Bft) W-SW 253 0 min 0,000 mm 0,0 UV-I 5 W/m 8,1 C 9,3 C 6,4 km/h (2 Bft) 98,00 %
21.09.2017 06:52 9,3 C 13,3 C 92 % 1020,4 hPa 0,0 l/m 5,4 km/h (1 Bft) W-SW 250 0 min 0,000 mm 0,0 UV-I 5 W/m 8,1 C 9,3 C 8,0 km/h (2 Bft) 98,00 %
21.09.2017 06:54 9,3 C 13,3 C 92 % 1020,4 hPa 0,0 l/m 6,4 km/h (2 Bft) S-SW 208 0 min 0,000 mm 0,0 UV-I 6 W/m 8,1 C 9,3 C 9,7 km/h (2 Bft) 97,87 %
21.09.2017 06:56 9,3 C 13,3 C 92 % 1020,4 hPa 0,0 l/m 7,2 km/h (2 Bft) W-SW 240 0 min 0,000 mm 0,0 UV-I 7 W/m 8,1 C 8,7 C 9,7 km/h (2 Bft) 100,00 %
21.09.2017 06:58 9,3 C 13,3 C 92 % 1020,4 hPa 0,0 l/m 8,2 km/h (2 Bft) SW 229 0 min 0,000 mm 0,0 UV-I 7 W/m 8,1 C 8,0 C 9,7 km/h (2 Bft) 100,00 %
21.09.2017 07:00 9,3 C 13,3 C 92 % 1020,4 hPa 0,0 l/m 6,7 km/h (2 Bft) W-SW 257 0 min 0,000 mm 0,0 UV-I 7 W/m 8,1 C 9,1 C 9,7 km/h (2 Bft) 100,00 %
21.09.2017 07:02 9,3 C 13,3 C 92 % 1020,4 hPa 0,0 l/m 6,1 km/h (2 Bft) SW 231 0 min 0,000 mm 0,0 UV-I 7 W/m 8,1 C 9,3 C 8,0 km/h (2 Bft) 100,00 %
21.09.2017 07:04 9,3 C 13,3 C 92 % 1020,4 hPa 0,0 l/m 6,3 km/h (2 Bft) SW 224 0 min 0,000 mm 0,0 UV-I 7 W/m 8,1 C 9,3 C 11,3 km/h (2 Bft) 100,00 %
21.09.2017 07:06 9,3 C 13,3 C 92 % 1020,4 hPa 0,0 l/m 7,7 km/h (2 Bft) SW 235 0 min 0,000 mm 0,0 UV-I 8 W/m 8,1 C 8,3 C 11,3 km/h (2 Bft) 98,00 %
21.09.2017 07:08 9,3 C 13,3 C 92 % 1020,4 hPa 0,0 l/m 7,0 km/h (2 Bft) SW 223 0 min 0,000 mm 0,0 UV-I 9 W/m 8,1 C 8,9 C 8,0 km/h (2 Bft) 100,00 %
21.09.2017 07:10 9,3 C 13,3 C 92 % 1020,4 hPa 0,0 l/m 5,2 km/h (1 Bft) SW 230 0 min 0,000 mm 0,0 UV-I 9 W/m 8,1 C 9,3 C 6,4 km/h (2 Bft) 100,00 %
21.09.2017 07:12 9,3 C 13,3 C 92 % 1020,4 hPa 0,0 l/m 6,7 km/h (2 Bft) SW 232 0 min 0,000 mm 0,0 UV-I 11 W/m 8,1 C 9,1 C 9,7 km/h (2 Bft) 98,11 %
21.09.2017 07:14 9,3 C 13,3 C 92 % 1020,5 hPa 0,0 l/m 6,4 km/h (2 Bft) SW 233 0 min 0,000 mm 0,0 UV-I 11 W/m 8,1 C 9,3 C 9,7 km/h (2 Bft) 100,00 %
21.09.2017 07:16 9,3 C 13,3 C 92 % 1020,4 hPa 0,0 l/m 5,9 km/h (2 Bft) SW 220 0 min 0,000 mm 0,0 UV-I 11 W/m 8,1 C 9,3 C 8,0 km/h (2 Bft) 100,00 %
21.09.2017 07:18 9,3 C 13,3 C 92 % 1020,4 hPa 0,0 l/m 4,0 km/h (1 Bft) SW 218 0 min 0,000 mm 0,0 UV-I 11 W/m 8,1 C 9,3 C 6,4 km/h (2 Bft) 97,37 %
21.09.2017 07:20 9,3 C 13,3 C 92 % 1020,5 hPa 0,0 l/m 5,0 km/h (1 Bft) SW 229 0 min 0,000 mm 0,0 UV-I 12 W/m 8,1 C 9,3 C 8,0 km/h (2 Bft) 100,00 %
21.09.2017 07:22 9,3 C 13,3 C 92 % 1020,6 hPa 0,0 l/m 3,2 km/h (1 Bft) SW 229 0 min 0,000 mm 0,0 UV-I 12 W/m 8,1 C 9,3 C 4,8 km/h (1 Bft) 100,00 %
21.09.2017 07:24 9,3 C 13,3 C 92 % 1020,5 hPa 0,0 l/m 2,2 km/h (1 Bft) SW 229 0 min 0,000 mm 0,0 UV-I 12 W/m 8,1 C 9,3 C 4,8 km/h (1 Bft) 100,00 %
21.09.2017 07:26 9,3 C 13,3 C 92 % 1020,5 hPa 0,0 l/m 1,9 km/h (1 Bft) SW 229 0 min 0,000 mm 0,0 UV-I 12 W/m 8,1 C 9,3 C 3,2 km/h (1 Bft) 97,37 %
21.09.2017 07:28 9,3 C 13,3 C 92 % 1020,6 hPa 0,0 l/m 2,8 km/h (1 Bft) SW 229 0 min 0,000 mm 0,0 UV-I 14 W/m 8,1 C 9,3 C 4,8 km/h (1 Bft) 98,21 %
21.09.2017 07:30 9,4 C 13,3 C 92 % 1020,6 hPa 0,0 l/m 2,4 km/h (1 Bft) SW 229 0 min 0,000 mm 0,0 UV-I 14 W/m 8,2 C 9,4 C 3,2 km/h (1 Bft) 97,56 %
21.09.2017 07:32 9,4 C 13,3 C 92 % 1020,5 hPa 0,0 l/m 2,9 km/h (1 Bft) SW 229 0 min 0,000 mm 0,0 UV-I 16 W/m 8,2 C 9,4 C 4,8 km/h (1 Bft) 98,11 %
21.09.2017 07:34 9,4 C 13,3 C 92 % 1020,5 hPa 0,0 l/m 2,6 km/h (1 Bft) SW 229 0 min 0,000 mm 0,0 UV-I 16 W/m 8,2 C 9,4 C 3,2 km/h (1 Bft) 97,37 %
21.09.2017 07:36 9,4 C 13,3 C 92 % 1020,5 hPa 0,0 l/m 1,9 km/h (1 Bft) SW 229 0 min 0,000 mm 0,0 UV-I 17 W/m 8,2 C 9,4 C 3,2 km/h (1 Bft) 97,87 %
21.09.2017 07:38 9,4 C 13,3 C 92 % 1020,5 hPa 0,0 l/m 2,6 km/h (1 Bft) SW 229 0 min 0,000 mm 0,0 UV-I 19 W/m 8,2 C 9,4 C 4,8 km/h (1 Bft) 98,00 %
21.09.2017 07:40 9,4 C 13,3 C 92 % 1020,6 hPa 0,0 l/m 2,8 km/h (1 Bft) SW 229 0 min 0,000 mm 0,0 UV-I 19 W/m 8,2 C 9,4 C 4,8 km/h (1 Bft) 94,00 %
21.09.2017 07:42 9,4 C 13,3 C 92 % 1020,6 hPa 0,0 l/m 3,0 km/h (1 Bft) SW 229 0 min 0,000 mm 0,0 UV-I 19 W/m 8,2 C 9,4 C 6,4 km/h (2 Bft) 95,74 %
21.09.2017 07:44 9,4 C 13,3 C 92 % 1020,6 hPa 0,0 l/m 5,8 km/h (2 Bft) SW 231 0 min 0,000 mm 0,0 UV-I 19 W/m 8,2 C 9,4 C 8,0 km/h (2 Bft) 94,74 %
21.09.2017 07:46 9,4 C 13,3 C 92 % 1020,6 hPa 0,0 l/m 5,8 km/h (2 Bft) W-SW 238 0 min 0,000 mm 0,0 UV-I 18 W/m 8,2 C 9,4 C 8,0 km/h (2 Bft) 98,11 %
21.09.2017 07:48 9,4 C 13,3 C 92 % 1020,6 hPa 0,0 l/m 4,2 km/h (1 Bft) W-SW 238 0 min 0,000 mm 0,0 UV-I 17 W/m 8,2 C 9,4 C 6,4 km/h (2 Bft) 97,87 %
21.09.2017 07:50 9,4 C 13,3 C 92 % 1020,5 hPa 0,0 l/m 5,6 km/h (1 Bft) SW 225 0 min 0,000 mm 0,0 UV-I 16 W/m 8,2 C 9,4 C 8,0 km/h (2 Bft) 98,00 %
21.09.2017 07:52 9,4 C 13,3 C 92 % 1020,6 hPa 0,0 l/m 6,6 km/h (2 Bft) W 263 0 min 0,000 mm 0,0 UV-I 18 W/m 8,2 C 9,3 C 9,7 km/h (2 Bft) 94,87 %
21.09.2017 07:54 9,4 C 13,3 C 93 % 1020,6 hPa 0,0 l/m 7,5 km/h (2 Bft) W-SW 253 0 min 0,000 mm 0,0 UV-I 18 W/m 8,3 C 8,6 C 11,3 km/h (2 Bft) 98,08 %
21.09.2017 07:56 9,4 C 13,3 C 93 % 1020,6 hPa 0,0 l/m 7,8 km/h (2 Bft) W-SW 251 0 min 0,000 mm 0,0 UV-I 18 W/m 8,3 C 8,4 C 11,3 km/h (2 Bft) 97,44 %
21.09.2017 07:58 9,4 C 13,3 C 93 % 1020,6 hPa 0,0 l/m 6,3 km/h (2 Bft) W 265 0 min 0,000 mm 0,0 UV-I 21 W/m 8,3 C 9,4 C 9,7 km/h (2 Bft) 98,21 %
21.09.2017 08:00 9,4 C 13,3 C 93 % 1020,6 hPa 0,0 l/m 7,4 km/h (2 Bft) W-SW 253 0 min 0,000 mm 0,0 UV-I 25 W/m 8,3 C 8,7 C 12,9 km/h (3 Bft) 97,37 %
21.09.2017 08:02 9,4 C 13,3 C 93 % 1020,6 hPa 0,0 l/m 6,7 km/h (2 Bft) W-SW 242 0 min 0,000 mm 0,0 UV-I 27 W/m 8,3 C 9,2 C 11,3 km/h (2 Bft) 98,11 %
21.09.2017 08:04 9,4 C 13,3 C 93 % 1020,5 hPa 0,0 l/m 6,3 km/h (2 Bft) W 263 0 min 0,000 mm 0,0 UV-I 29 W/m 8,3 C 9,4 C 9,7 km/h (2 Bft) 95,74 %
21.09.2017 08:06 9,4 C 13,3 C 93 % 1020,5 hPa 0,0 l/m 6,4 km/h (2 Bft) W 259 0 min 0,000 mm 0,0 UV-I 32 W/m 8,3 C 9,4 C 11,3 km/h (2 Bft) 97,37 %
21.09.2017 08:08 9,4 C 13,3 C 93 % 1020,5 hPa 0,0 l/m 6,6 km/h (2 Bft) W 275 0 min 0,000 mm 0,0 UV-I 34 W/m 8,3 C 9,3 C 11,3 km/h (2 Bft) 94,00 %
21.09.2017 08:10 9,5 C 13,3 C 93 % 1020,5 hPa 0,0 l/m 6,3 km/h (2 Bft) W-SW 244 0 min 0,000 mm 0,0 UV-I 37 W/m 8,4 C 9,5 C 8,0 km/h (2 Bft) 98,11 %
21.09.2017 08:12 9,5 C 13,3 C 93 % 1020,5 hPa 0,0 l/m 6,8 km/h (2 Bft) W-SW 248 0 min 0,000 mm 0,0 UV-I 41 W/m 8,4 C 9,2 C 11,3 km/h (2 Bft) 97,56 %
21.09.2017 08:14 9,5 C 13,3 C 93 % 1020,5 hPa 0,0 l/m 6,7 km/h (2 Bft) W-SW 254 0 min 0,000 mm 0,0 UV-I 48 W/m 8,4 C 9,3 C 9,7 km/h (2 Bft) 98,00 %
21.09.2017 08:16 9,6 C 13,3 C 93 % 1020,5 hPa 0,0 l/m 6,9 km/h (2 Bft) W-SW 257 0 min 0,000 mm 0,0 UV-I 54 W/m 8,5 C 9,2 C 11,3 km/h (2 Bft) 98,11 %
21.09.2017 08:18 9,6 C 13,3 C 93 % 1020,5 hPa 0,0 l/m 6,4 km/h (2 Bft) W-SW 247 0 min 0,000 mm 0,0 UV-I 54 W/m 8,5 C 9,6 C 9,7 km/h (2 Bft) 97,14 %
21.09.2017 08:20 9,6 C 13,3 C 93 % 1020,5 hPa 0,0 l/m 6,3 km/h (2 Bft) W-SW 247 0 min 0,000 mm 0,0 UV-I 51 W/m 8,5 C 9,6 C 12,9 km/h (3 Bft) 96,23 %
21.09.2017 08:22 9,6 C 13,3 C 93 % 1020,5 hPa 0,0 l/m 9,1 km/h (2 Bft) W-SW 250 0 min 0,000 mm 0,0 UV-I 53 W/m 8,5 C 7,7 C 12,9 km/h (3 Bft) 97,87 %
21.09.2017 08:24 9,6 C 13,3 C 92 % 1020,5 hPa 0,0 l/m 8,4 km/h (2 Bft) W-SW 249 0 min 0,000 mm 0,0 UV-I 58 W/m 8,4 C 8,2 C 11,3 km/h (2 Bft) 95,74 %
21.09.2017 08:26 9,6 C 13,3 C 92 % 1020,5 hPa 0,0 l/m 7,7 km/h (2 Bft) W 264 0 min 0,000 mm 0,0 UV-I 62 W/m 8,4 C 8,6 C 12,9 km/h (3 Bft) 94,34 %
21.09.2017 08:28 9,7 C 13,3 C 92 % 1020,5 hPa 0,0 l/m 8,8 km/h (2 Bft) W-SW 257 0 min 0,000 mm 0,0 UV-I 61 W/m 8,5 C 8,0 C 12,9 km/h (3 Bft) 97,73 %
21.09.2017 08:30 9,7 C 13,3 C 92 % 1020,5 hPa 0,0 l/m 7,5 km/h (2 Bft) W-NW 295 0 min 0,000 mm 0,0 UV-I 60 W/m 8,5 C 8,9 C 12,9 km/h (3 Bft) 93,62 %
21.09.2017 08:32 9,7 C 13,3 C 92 % 1020,5 hPa 0,0 l/m 7,3 km/h (2 Bft) W-SW 237 0 min 0,000 mm 0,0 UV-I 59 W/m 8,5 C 9,0 C 12,9 km/h (3 Bft) 97,92 %
21.09.2017 08:34 9,7 C 13,3 C 92 % 1020,6 hPa 0,0 l/m 8,0 km/h (2 Bft) W 261 0 min 0,000 mm 0,0 UV-I 59 W/m 8,5 C 8,5 C 11,3 km/h (2 Bft) 97,62 %
21.09.2017 08:36 9,7 C 12,8 C 92 % 1020,6 hPa 0,0 l/m 7,3 km/h (2 Bft) W-SW 257 0 min 0,000 mm 0,0 UV-I 65 W/m 8,5 C 9,0 C 12,9 km/h (3 Bft) 98,00 %
21.09.2017 08:39 9,7 C 13,3 C 91 % 1020,6 hPa 0,0 l/m 6,7 km/h (2 Bft) W-SW 242 0 min 0,000 mm 0,0 UV-I 72 W/m 8,3 C 9,5 C 14,5 km/h (3 Bft) 97,01 %
21.09.2017 08:40 9,7 C 12,8 C 91 % 1020,6 hPa 0,0 l/m 10,9 km/h (2 Bft) W 275 0 min 0,000 mm 0,0 UV-I 79 W/m 8,3 C 6,8 C 16,1 km/h (3 Bft) 100,00 %
21.09.2017 08:44 9,8 C 13,3 C 91 % 1020,6 hPa 0,0 l/m 8,3 km/h (2 Bft) W-SW 248 0 min 0,000 mm 0,0 UV-I 84 W/m 8,4 C 8,4 C 12,9 km/h (3 Bft) 98,97 %
21.09.2017 08:46 9,8 C 13,3 C 91 % 1020,6 hPa 0,0 l/m 8,9 km/h (2 Bft) SW 230 0 min 0,000 mm 0,0 UV-I 84 W/m 8,4 C 8,0 C 14,5 km/h (3 Bft) 93,62 %
21.09.2017 08:48 9,8 C 13,3 C 91 % 1020,6 hPa 0,0 l/m 8,7 km/h (2 Bft) SW 218 0 min 0,000 mm 0,0 UV-I 87 W/m 8,4 C 8,2 C 12,9 km/h (3 Bft) 100,00 %
21.09.2017 08:50 9,8 C 13,3 C 91 % 1020,6 hPa 0,0 l/m 5,8 km/h (2 Bft) W-SW 255 0 min 0,000 mm 0,0 UV-I 89 W/m 8,4 C 9,8 C 11,3 km/h (2 Bft) 96,08 %
21.09.2017 08:52 9,8 C 13,3 C 91 % 1020,6 hPa 0,0 l/m 10,2 km/h (2 Bft) W-SW 256 0 min 0,000 mm 0,0 UV-I 91 W/m 8,4 C 7,3 C 14,5 km/h (3 Bft) 96,00 %
21.09.2017 08:54 9,9 C 13,3 C 91 % 1020,6 hPa 0,0 l/m 8,0 km/h (2 Bft) S-SW 208 0 min 0,000 mm 0,0 UV-I 96 W/m 8,5 C 8,7 C 12,9 km/h (3 Bft) 97,73 %
21.09.2017 08:56 9,9 C 12,8 C 91 % 1020,6 hPa 0,0 l/m 9,3 km/h (2 Bft) SW 233 0 min 0,000 mm 0,0 UV-I 103 W/m 8,5 C 7,9 C 14,5 km/h (3 Bft) 100,00 %
21.09.2017 08:58 9,9 C 13,3 C 91 % 1020,6 hPa 0,0 l/m 8,5 km/h (2 Bft) W 266 0 min 0,000 mm 0,0 UV-I 104 W/m 8,5 C 8,4 C 12,9 km/h (3 Bft) 97,73 %
21.09.2017 09:00 9,9 C 13,3 C 91 % 1020,6 hPa 0,0 l/m 9,5 km/h (2 Bft) W-SW 250 0 min 0,026 mm 0,0 UV-I 104 W/m 8,5 C 7,8 C 14,5 km/h (3 Bft) 97,56 %
21.09.2017 09:02 9,9 C 13,3 C 91 % 1020,6 hPa 0,0 l/m 7,1 km/h (2 Bft) SW 221 0 min 0,000 mm 0,0 UV-I 102 W/m 8,5 C 9,4 C 12,9 km/h (3 Bft) 100,00 %
21.09.2017 09:04 9,9 C 13,3 C 91 % 1020,7 hPa 0,0 l/m 7,9 km/h (2 Bft) W-SW 250 0 min 0,000 mm 0,0 UV-I 97 W/m 8,5 C 8,8 C 12,9 km/h (3 Bft) 100,00 %
21.09.2017 09:06 9,9 C 13,3 C 91 % 1020,6 hPa 0,0 l/m 8,0 km/h (2 Bft) W-SW 252 0 min 0,000 mm 0,0 UV-I 97 W/m 8,5 C 8,7 C 14,5 km/h (3 Bft) 100,00 %
21.09.2017 09:08 9,9 C 13,3 C 91 % 1020,7 hPa 0,0 l/m 9,6 km/h (2 Bft) W-SW 248 0 min 0,000 mm 0,0 UV-I 104 W/m 8,5 C 7,7 C 12,9 km/h (3 Bft) 100,00 %
21.09.2017 09:10 10,0 C 13,3 C 91 % 1020,6 hPa 0,0 l/m 6,7 km/h (2 Bft) W-SW 237 0 min 0,000 mm 0,0 UV-I 110 W/m 8,6 C 9,8 C 11,3 km/h (2 Bft) 100,00 %
21.09.2017 09:12 10,0 C 13,3 C 91 % 1020,7 hPa 0,0 l/m 6,6 km/h (2 Bft) SW 227 0 min 0,000 mm 0,0 UV-I 108 W/m 8,6 C 9,9 C 12,9 km/h (3 Bft) 100,00 %
21.09.2017 09:14 10,0 C 12,8 C 91 % 1020,7 hPa 0,0 l/m 4,8 km/h (1 Bft) W 259 0 min 0,000 mm 0,0 UV-I 107 W/m 8,6 C 10,0 C 11,3 km/h (2 Bft) 100,00 %
21.09.2017 09:16 10,0 C 12,8 C 91 % 1020,8 hPa 0,0 l/m 8,0 km/h (2 Bft) SW 235 0 min 0,000 mm 0,0 UV-I 111 W/m 8,6 C 8,9 C 12,9 km/h (3 Bft) 100,00 %
21.09.2017 09:18 10,1 C 13,3 C 91 % 1020,8 hPa 0,0 l/m 8,9 km/h (2 Bft) W-SW 257 0 min 0,000 mm 0,0 UV-I 113 W/m 8,7 C 8,4 C 12,9 km/h (3 Bft) 96,49 %
21.09.2017 09:20 10,1 C 13,3 C 91 % 1020,8 hPa 0,0 l/m 5,0 km/h (1 Bft) W 280 0 min 0,000 mm 0,0 UV-I 112 W/m 8,7 C 10,1 C 11,3 km/h (2 Bft) 100,00 %
21.09.2017 09:22 10,1 C 13,3 C 91 % 1020,8 hPa 0,0 l/m 4,3 km/h (1 Bft) W-SW 243 0 min 0,000 mm 0,0 UV-I 108 W/m 8,7 C 10,1 C 9,7 km/h (2 Bft) 100,00 %
21.09.2017 09:24 10,1 C 13,3 C 92 % 1020,8 hPa 0,0 l/m 4,5 km/h (1 Bft) W-SW 257 0 min 0,000 mm 0,0 UV-I 105 W/m 8,9 C 10,1 C 6,4 km/h (2 Bft) 98,00 %
21.09.2017 09:26 10,2 C 13,3 C 92 % 1020,8 hPa 0,0 l/m 4,7 km/h (1 Bft) W-SW 246 0 min 0,000 mm 0,0 UV-I 105 W/m 9,0 C 10,2 C 6,4 km/h (2 Bft) 100,00 %
21.09.2017 09:28 10,2 C 13,3 C 91 % 1020,8 hPa 0,0 l/m 6,8 km/h (2 Bft) W-SW 242 0 min 0,000 mm 0,0 UV-I 118 W/m 8,8 C 9,9 C 11,3 km/h (2 Bft) 100,00 %
21.09.2017 09:30 10,2 C 13,3 C 91 % 1020,9 hPa 0,0 l/m 7,6 km/h (2 Bft) W-SW 241 0 min 0,000 mm 0,0 UV-I 126 W/m 8,8 C 9,3 C 12,9 km/h (3 Bft) 100,00 %
21.09.2017 09:32 10,2 C 13,3 C 91 % 1020,9 hPa 0,0 l/m 6,9 km/h (2 Bft) W 267 0 min 0,000 mm 0,5 UV-I 134 W/m 8,8 C 9,8 C 11,3 km/h (2 Bft) 100,00 %
21.09.2017 09:34 10,2 C 13,3 C 91 % 1020,9 hPa 0,0 l/m 5,9 km/h (2 Bft) SW 217 0 min 0,000 mm 0,2 UV-I 133 W/m 8,8 C 10,2 C 11,3 km/h (2 Bft) 98,21 %
21.09.2017 09:36 10,3 C 13,3 C 91 % 1020,9 hPa 0,0 l/m 9,5 km/h (2 Bft) W-SW 252 0 min 0,000 mm 0,0 UV-I 134 W/m 8,9 C 8,2 C 14,5 km/h (3 Bft) 100,00 %
21.09.2017 09:38 10,3 C 13,3 C 91 % 1020,9 hPa 0,0 l/m 9,3 km/h (2 Bft) W 273 0 min 0,000 mm 0,0 UV-I 121 W/m 8,9 C 8,3 C 12,9 km/h (3 Bft) 100,00 %
21.09.2017 09:40 10,3 C 12,8 C 91 % 1020,9 hPa 0,0 l/m 7,2 km/h (2 Bft) SW 215 0 min 0,000 mm 0,0 UV-I 101 W/m 8,9 C 9,7 C 11,3 km/h (2 Bft) 98,11 %
21.09.2017 09:42 10,3 C 13,3 C 90 % 1020,9 hPa 0,0 l/m 6,1 km/h (2 Bft) W-SW 257 0 min 0,000 mm 0,0 UV-I 97 W/m 8,7 C 10,3 C 11,3 km/h (2 Bft) 100,00 %
21.09.2017 09:44 10,3 C 13,3 C 90 % 1020,9 hPa 0,0 l/m 8,9 km/h (2 Bft) W-SW 240 0 min 0,000 mm 0,0 UV-I 100 W/m 8,7 C 8,6 C 12,9 km/h (3 Bft) 100,00 %
21.09.2017 09:46 10,3 C 13,3 C 91 % 1020,8 hPa 0,0 l/m 5,8 km/h (2 Bft) W-SW 241 0 min 0,000 mm 0,1 UV-I 119 W/m 8,9 C 10,3 C 8,0 km/h (2 Bft) 97,87 %
21.09.2017 09:48 10,3 C 13,3 C 90 % 1020,9 hPa 0,0 l/m 10,5 km/h (2 Bft) SW 232 0 min 0,000 mm 0,5 UV-I 136 W/m 8,7 C 7,6 C 16,1 km/h (3 Bft) 98,00 %
21.09.2017 09:50 10,2 C 13,3 C 90 % 1020,9 hPa 0,0 l/m 11,9 km/h (2 Bft) W 260 0 min 0,000 mm 0,6 UV-I 144 W/m 8,6 C 6,8 C 14,5 km/h (3 Bft) 100,00 %
21.09.2017 09:52 10,3 C 13,3 C 91 % 1021,0 hPa 0,0 l/m 7,0 km/h (2 Bft) SW 232 0 min 0,000 mm 0,7 UV-I 162 W/m 8,9 C 9,9 C 11,3 km/h (2 Bft) 98,11 %
21.09.2017 09:54 10,3 C 13,3 C 91 % 1021,0 hPa 0,0 l/m 8,2 km/h (2 Bft) W 275 0 min 0,000 mm 0,6 UV-I 158 W/m 8,9 C 9,0 C 14,5 km/h (3 Bft) 100,00 %
21.09.2017 09:56 10,3 C 13,3 C 90 % 1021,0 hPa 0,0 l/m 6,3 km/h (2 Bft) SW 236 0 min 0,000 mm 0,7 UV-I 162 W/m 8,7 C 10,3 C 9,7 km/h (2 Bft) 100,00 %
21.09.2017 09:58 10,4 C 13,3 C 90 % 1021,1 hPa 0,0 l/m 4,4 km/h (1 Bft) SW 233 0 min 0,000 mm 0,7 UV-I 169 W/m 8,8 C 10,4 C 6,4 km/h (2 Bft) 100,00 %
21.09.2017 10:00 10,5 C 13,3 C 90 % 1021,1 hPa 0,0 l/m 5,5 km/h (1 Bft) W 269 0 min 0,050 mm 0,6 UV-I 156 W/m 8,9 C 10,5 C 6,4 km/h (2 Bft) 100,00 %
21.09.2017 10:02 10,5 C 13,3 C 90 % 1021,1 hPa 0,0 l/m 4,4 km/h (1 Bft) W-SW 246 0 min 0,000 mm 0,6 UV-I 149 W/m 8,9 C 10,5 C 6,4 km/h (2 Bft) 100,00 %
21.09.2017 10:04 10,5 C 13,3 C 90 % 1021,2 hPa 0,0 l/m 4,7 km/h (1 Bft) W-NW 283 0 min 0,000 mm 0,6 UV-I 156 W/m 8,9 C 10,5 C 11,3 km/h (2 Bft) 98,00 %
21.09.2017 10:06 10,6 C 13,3 C 90 % 1021,2 hPa 0,0 l/m 4,1 km/h (1 Bft) W-SW 250 0 min 0,000 mm 0,6 UV-I 164 W/m 9,0 C 10,6 C 6,4 km/h (2 Bft) 100,00 %
21.09.2017 10:08 10,6 C 13,3 C 90 % 1021,2 hPa 0,0 l/m 5,9 km/h (2 Bft) W 260 0 min 0,000 mm 0,7 UV-I 175 W/m 9,0 C 10,6 C 9,7 km/h (2 Bft) 100,00 %
21.09.2017 10:10 10,7 C 13,3 C 90 % 1021,2 hPa 0,0 l/m 4,7 km/h (1 Bft) W 281 0 min 0,000 mm 0,7 UV-I 174 W/m 9,1 C 10,7 C 9,7 km/h (2 Bft) 97,18 %
21.09.2017 10:12 10,7 C 13,3 C 90 % 1021,2 hPa 0,0 l/m 4,8 km/h (1 Bft) SW 219 0 min 0,000 mm 0,7 UV-I 173 W/m 9,1 C 10,7 C 6,4 km/h (2 Bft) 100,00 %
21.09.2017 10:14 10,8 C 13,3 C 89 % 1021,2 hPa 0,0 l/m 5,6 km/h (1 Bft) W 267 0 min 0,000 mm 0,7 UV-I 173 W/m 9,1 C 10,8 C 11,3 km/h (2 Bft) 100,00 %
21.09.2017 10:16 10,8 C 13,3 C 90 % 1021,3 hPa 0,0 l/m 4,9 km/h (1 Bft) SW 226 0 min 0,000 mm 0,7 UV-I 170 W/m 9,2 C 10,8 C 8,0 km/h (2 Bft) 97,87 %
21.09.2017 10:18 10,8 C 13,3 C 90 % 1021,3 hPa 0,0 l/m 6,2 km/h (2 Bft) W 272 0 min 0,000 mm 0,7 UV-I 176 W/m 9,2 C 10,8 C 11,3 km/h (2 Bft) 100,00 %
21.09.2017 10:20 10,8 C 13,3 C 89 % 1021,3 hPa 0,0 l/m 5,7 km/h (1 Bft) W-SW 253 0 min 0,000 mm 0,8 UV-I 187 W/m 9,1 C 10,8 C 8,0 km/h (2 Bft) 97,56 %
21.09.2017 10:22 10,9 C 13,3 C 90 % 1021,3 hPa 0,0 l/m 4,3 km/h (1 Bft) W-SW 254 0 min 0,000 mm 0,8 UV-I 188 W/m 9,3 C 10,9 C 8,0 km/h (2 Bft) 98,11 %
21.09.2017 10:24 11,0 C 13,3 C 89 % 1021,4 hPa 0,0 l/m 3,5 km/h (1 Bft) W 279 0 min 0,000 mm 0,8 UV-I 189 W/m 9,3 C 11,0 C 6,4 km/h (2 Bft) 97,14 %
21.09.2017 10:26 11,1 C 13,3 C 89 % 1021,5 hPa 0,0 l/m 4,3 km/h (1 Bft) W-SW 244 0 min 0,000 mm 0,9 UV-I 199 W/m 9,4 C 11,1 C 6,4 km/h (2 Bft) 98,31 %
21.09.2017 10:28 11,1 C 13,3 C 89 % 1021,4 hPa 0,0 l/m 6,4 km/h (2 Bft) W-SW 251 0 min 0,000 mm 0,9 UV-I 207 W/m 9,4 C 11,1 C 9,7 km/h (2 Bft) 97,44 %
21.09.2017 10:30 11,1 C 13,3 C 89 % 1021,5 hPa 0,0 l/m 5,2 km/h (1 Bft) S-SW 204 0 min 0,000 mm 0,9 UV-I 212 W/m 9,4 C 11,1 C 8,0 km/h (2 Bft) 98,00 %
21.09.2017 10:32 11,2 C 13,3 C 89 % 1021,4 hPa 0,0 l/m 7,0 km/h (2 Bft) SW 222 0 min 0,000 mm 1,0 UV-I 228 W/m 9,5 C 10,8 C 9,7 km/h (2 Bft) 96,15 %
21.09.2017 10:34 11,2 C 13,3 C 88 % 1021,3 hPa 0,0 l/m 2,9 km/h (1 Bft) W 269 0 min 0,000 mm 1,0 UV-I 245 W/m 9,3 C 11,2 C 8,0 km/h (2 Bft) 97,62 %
21.09.2017 10:36 11,2 C 13,3 C 88 % 1021,3 hPa 0,0 l/m 4,8 km/h (1 Bft) W-SW 251 0 min 0,000 mm 1,1 UV-I 265 W/m 9,3 C 11,2 C 8,0 km/h (2 Bft) 95,74 %
21.09.2017 10:38 11,3 C 13,3 C 88 % 1021,3 hPa 0,0 l/m 7,4 km/h (2 Bft) W 263 2 min 0,000 mm 1,2 UV-I 387 W/m 9,4 C 10,6 C 12,9 km/h (3 Bft) 97,73 %
21.09.2017 10:40 11,3 C 13,3 C 88 % 1021,4 hPa 0,0 l/m 7,6 km/h (2 Bft) W-SW 238 0 min 0,000 mm 1,1 UV-I 290 W/m 9,4 C 10,5 C 11,3 km/h (2 Bft) 98,11 %
21.09.2017 10:42 11,4 C 13,3 C 88 % 1021,3 hPa 0,0 l/m 8,5 km/h (2 Bft) SW 221 0 min 0,000 mm 1,1 UV-I 261 W/m 9,5 C 10,0 C 12,9 km/h (3 Bft) 98,00 %
21.09.2017 10:44 11,4 C 13,3 C 87 % 1021,3 hPa 0,0 l/m 8,5 km/h (2 Bft) SW 219 0 min 0,000 mm 1,1 UV-I 263 W/m 9,3 C 10,0 C 11,3 km/h (2 Bft) 97,14 %
21.09.2017 10:46 11,4 C 13,3 C 88 % 1021,3 hPa 0,0 l/m 7,4 km/h (2 Bft) W 261 0 min 0,000 mm 1,1 UV-I 262 W/m 9,5 C 10,7 C 11,3 km/h (2 Bft) 98,11 %
21.09.2017 10:48 11,5 C 13,3 C 88 % 1021,3 hPa 0,0 l/m 9,1 km/h (2 Bft) W 259 0 min 0,000 mm 1,1 UV-I 260 W/m 9,6 C 9,8 C 14,5 km/h (3 Bft) 97,56 %
21.09.2017 10:50 11,6 C 13,3 C 88 % 1021,3 hPa 0,0 l/m 9,8 km/h (2 Bft) W 261 0 min 0,000 mm 1,1 UV-I 258 W/m 9,7 C 9,5 C 16,1 km/h (3 Bft) 96,43 %
21.09.2017 10:52 11,6 C 13,3 C 88 % 1021,3 hPa 0,0 l/m 10,3 km/h (2 Bft) W-SW 248 0 min 0,000 mm 1,1 UV-I 263 W/m 9,7 C 9,2 C 14,5 km/h (3 Bft) 97,56 %
21.09.2017 10:54 11,6 C 13,3 C 87 % 1021,3 hPa 0,0 l/m 10,6 km/h (2 Bft) SW 234 0 min 0,000 mm 1,2 UV-I 273 W/m 9,5 C 9,0 C 16,1 km/h (3 Bft) 97,73 %
21.09.2017 10:56 11,6 C 13,3 C 88 % 1021,3 hPa 0,0 l/m 6,6 km/h (2 Bft) W-SW 240 0 min 0,000 mm 1,3 UV-I 286 W/m 9,7 C 11,5 C 12,9 km/h (3 Bft) 100,00 %
21.09.2017 10:58 11,7 C 13,3 C 88 % 1021,3 hPa 0,0 l/m 5,9 km/h (2 Bft) SW 224 0 min 0,000 mm 1,3 UV-I 303 W/m 9,8 C 11,7 C 12,9 km/h (3 Bft) 100,00 %
21.09.2017 11:00 11,8 C 13,3 C 88 % 1021,3 hPa 0,0 l/m 6,0 km/h (2 Bft) W-SW 258 0 min 0,000 mm 1,4 UV-I 314 W/m 9,9 C 11,8 C 9,7 km/h (2 Bft) 98,00 %
21.09.2017 11:02 11,9 C 13,3 C 87 % 1021,3 hPa 0,0 l/m 11,2 km/h (2 Bft) SW 233 2 min 0,127 mm 1,5 UV-I 328 W/m 9,8 C 9,1 C 16,1 km/h (3 Bft) 100,00 %
21.09.2017 11:04 11,8 C 13,3 C 86 % 1021,3 hPa 0,0 l/m 10,9 km/h (2 Bft) W-SW 242 2 min 0,000 mm 1,5 UV-I 348 W/m 9,5 C 9,1 C 14,5 km/h (3 Bft) 100,00 %
21.09.2017 11:06 11,9 C 13,3 C 87 % 1021,2 hPa 0,0 l/m 6,6 km/h (2 Bft) W-SW 244 2 min 0,000 mm 1,6 UV-I 389 W/m 9,8 C 11,8 C 11,3 km/h (2 Bft) 100,00 %
21.09.2017 11:08 12,1 C 13,3 C 87 % 1021,2 hPa 0,0 l/m 7,0 km/h (2 Bft) W-NW 284 2 min 0,000 mm 1,6 UV-I 398 W/m 10,0 C 11,7 C 12,9 km/h (3 Bft) 100,00 %
21.09.2017 11:10 12,2 C 13,3 C 88 % 1021,2 hPa 0,0 l/m 6,3 km/h (2 Bft) W-SW 238 2 min 0,000 mm 1,6 UV-I 368 W/m 10,3 C 12,2 C 12,9 km/h (3 Bft) 100,00 %
21.09.2017 11:12 12,2 C 13,3 C 86 % 1021,2 hPa 0,0 l/m 9,9 km/h (2 Bft) W-SW 250 2 min 0,000 mm 1,7 UV-I 394 W/m 9,9 C 10,1 C 16,1 km/h (3 Bft) 100,00 %
21.09.2017 11:14 12,2 C 13,3 C 86 % 1021,1 hPa 0,0 l/m 10,2 km/h (2 Bft) W-SW 241 2 min 0,000 mm 1,5 UV-I 353 W/m 9,9 C 9,9 C 17,7 km/h (3 Bft) 100,00 %
21.09.2017 11:16 12,3 C 13,3 C 87 % 1021,1 hPa 0,0 l/m 9,4 km/h (2 Bft) W-SW 238 2 min 0,000 mm 1,6 UV-I 351 W/m 10,2 C 10,5 C 16,1 km/h (3 Bft) 100,00 %
21.09.2017 11:18 12,3 C 13,3 C 86 % 1021,1 hPa 0,0 l/m 8,3 km/h (2 Bft) SW 233 0 min 0,000 mm 1,5 UV-I 297 W/m 10,0 C 11,1 C 16,1 km/h (3 Bft) 100,00 %
21.09.2017 11:20 12,3 C 13,3 C 85 % 1021,0 hPa 0,0 l/m 9,1 km/h (2 Bft) W 263 0 min 0,000 mm 1,5 UV-I 243 W/m 9,9 C 10,6 C 14,5 km/h (3 Bft) 100,00 %
21.09.2017 11:22 12,2 C 13,3 C 85 % 1021,1 hPa 0,0 l/m 8,1 km/h (2 Bft) W-SW 252 0 min 0,000 mm 1,6 UV-I 277 W/m 9,8 C 11,1 C 12,9 km/h (3 Bft) 100,00 %
21.09.2017 11:24 12,2 C 13,3 C 85 % 1021,0 hPa 0,0 l/m 13,3 km/h (3 Bft) W-SW 251 0 min 0,000 mm 1,8 UV-I 314 W/m 9,8 C 8,5 C 17,7 km/h (3 Bft) 100,00 %
21.09.2017 11:26 12,2 C 13,3 C 85 % 1021,0 hPa 0,0 l/m 11,3 km/h (2 Bft) SW 221 0 min 0,000 mm 1,8 UV-I 339 W/m 9,8 C 9,4 C 17,7 km/h (3 Bft) 98,11 %
21.09.2017 11:28 12,2 C 13,3 C 85 % 1021,0 hPa 0,0 l/m 12,3 km/h (3 Bft) W 270 2 min 0,000 mm 2,0 UV-I 410 W/m 9,8 C 8,9 C 20,9 km/h (4 Bft) 97,87 %
21.09.2017 11:30 12,3 C 13,3 C 85 % 1021,0 hPa 0,0 l/m 13,9 km/h (3 Bft) SW 227 2 min 0,000 mm 2,3 UV-I 421 W/m 9,9 C 8,4 C 19,3 km/h (3 Bft) 100,00 %
21.09.2017 11:32 12,4 C 13,3 C 86 % 1021,0 hPa 0,0 l/m 11,1 km/h (2 Bft) W 269 2 min 0,000 mm 2,1 UV-I 441 W/m 10,1 C 9,7 C 19,3 km/h (3 Bft) 100,00 %
21.09.2017 11:34 12,6 C 13,3 C 84 % 1021,0 hPa 0,0 l/m 14,3 km/h (3 Bft) W-SW 253 2 min 0,000 mm 2,0 UV-I 435 W/m 10,0 C 8,6 C 20,9 km/h (4 Bft) 100,00 %
21.09.2017 11:36 12,6 C 13,3 C 85 % 1021,0 hPa 0,0 l/m 13,1 km/h (3 Bft) W-SW 244 2 min 0,000 mm 1,8 UV-I 359 W/m 10,1 C 9,0 C 20,9 km/h (4 Bft) 100,00 %
21.09.2017 11:38 12,6 C 13,3 C 84 % 1021,0 hPa 0,0 l/m 13,9 km/h (3 Bft) W-SW 257 2 min 0,000 mm 1,8 UV-I 356 W/m 10,0 C 8,7 C 20,9 km/h (4 Bft) 100,00 %
21.09.2017 11:40 12,6 C 13,3 C 84 % 1021,0 hPa 0,0 l/m 14,2 km/h (3 Bft) W-SW 247 0 min 0,000 mm 1,7 UV-I 322 W/m 10,0 C 8,6 C 22,5 km/h (4 Bft) 97,56 %
21.09.2017 11:42 12,6 C 13,3 C 84 % 1021,0 hPa 0,0 l/m 16,9 km/h (3 Bft) SW 233 0 min 0,000 mm 1,8 UV-I 313 W/m 10,0 C 7,6 C 25,7 km/h (4 Bft) 97,87 %
21.09.2017 11:44 12,5 C 13,3 C 84 % 1021,0 hPa 0,0 l/m 12,8 km/h (3 Bft) W-SW 252 0 min 0,000 mm 1,9 UV-I 335 W/m 9,9 C 9,0 C 19,3 km/h (3 Bft) 97,73 %
21.09.2017 11:46 12,6 C 13,3 C 84 % 1021,1 hPa 0,0 l/m 12,1 km/h (2 Bft) W-SW 245 2 min 0,000 mm 2,0 UV-I 395 W/m 10,0 C 9,5 C 16,1 km/h (3 Bft) 98,21 %
21.09.2017 11:48 12,7 C 13,3 C 84 % 1021,0 hPa 0,0 l/m 12,2 km/h (2 Bft) W-SW 250 2 min 0,000 mm 1,9 UV-I 375 W/m 10,1 C 9,5 C 20,9 km/h (4 Bft) 95,12 %
21.09.2017 11:50 12,8 C 13,3 C 83 % 1021,0 hPa 0,0 l/m 13,8 km/h (3 Bft) W-SW 256 2 min 0,000 mm 1,9 UV-I 372 W/m 10,0 C 9,0 C 19,3 km/h (3 Bft) 97,62 %
21.09.2017 11:52 12,8 C 13,3 C 83 % 1021,0 hPa 0,0 l/m 12,3 km/h (3 Bft) SW 227 2 min 0,000 mm 2,0 UV-I 395 W/m 10,0 C 9,6 C 17,7 km/h (3 Bft) 98,11 %
21.09.2017 11:54 12,9 C 13,3 C 83 % 1021,0 hPa 0,0 l/m 13,1 km/h (3 Bft) SW 231 2 min 0,000 mm 2,0 UV-I 408 W/m 10,1 C 9,4 C 25,7 km/h (4 Bft) 97,73 %
21.09.2017 11:56 12,9 C 13,3 C 81 % 1021,0 hPa 0,0 l/m 17,8 km/h (3 Bft) W-SW 254 2 min 0,000 mm 2,0 UV-I 403 W/m 9,7 C 7,7 C 22,5 km/h (4 Bft) 98,00 %
21.09.2017 11:58 12,9 C 13,3 C 81 % 1021,0 hPa 0,0 l/m 15,0 km/h (3 Bft) W-SW 250 2 min 0,000 mm 2,0 UV-I 398 W/m 9,7 C 8,6 C 22,5 km/h (4 Bft) 94,74 %
21.09.2017 12:00 12,9 C 13,3 C 81 % 1020,9 hPa 0,0 l/m 11,0 km/h (2 Bft) SW 233 2 min 0,000 mm 2,0 UV-I 394 W/m 9,7 C 10,3 C 17,7 km/h (3 Bft) 94,64 %
21.09.2017 12:02 12,9 C 13,3 C 81 % 1020,8 hPa 0,0 l/m 15,7 km/h (3 Bft) W 275 2 min 0,204 mm 2,0 UV-I 393 W/m 9,7 C 8,4 C 22,5 km/h (4 Bft) 95,74 %
21.09.2017 12:04 12,9 C 13,3 C 81 % 1020,9 hPa 0,0 l/m 15,5 km/h (3 Bft) W 261 2 min 0,000 mm 2,0 UV-I 401 W/m 9,7 C 8,5 C 22,5 km/h (4 Bft) 96,00 %
21.09.2017 12:06 13,0 C 13,3 C 80 % 1020,8 hPa 0,0 l/m 11,8 km/h (2 Bft) W-SW 252 2 min 0,000 mm 2,0 UV-I 405 W/m 9,6 C 10,1 C 19,3 km/h (3 Bft) 97,56 %
21.09.2017 12:08 13,0 C 13,3 C 80 % 1020,8 hPa 0,0 l/m 16,3 km/h (3 Bft) W-SW 254 2 min 0,000 mm 2,1 UV-I 421 W/m 9,6 C 8,3 C 27,4 km/h (4 Bft) 94,00 %
21.09.2017 12:10 13,0 C 13,3 C 79 % 1020,8 hPa 0,0 l/m 14,6 km/h (3 Bft) W-SW 248 2 min 0,000 mm 2,1 UV-I 431 W/m 9,4 C 8,9 C 19,3 km/h (3 Bft) 95,12 %
21.09.2017 12:12 13,0 C 13,3 C 79 % 1020,8 hPa 0,0 l/m 18,4 km/h (3 Bft) W 259 2 min 0,000 mm 2,1 UV-I 430 W/m 9,4 C 7,6 C 25,7 km/h (4 Bft) 98,18 %
21.09.2017 12:14 13,1 C 13,3 C 80 % 1020,8 hPa 0,0 l/m 12,6 km/h (3 Bft) W 265 2 min 0,000 mm 2,2 UV-I 445 W/m 9,7 C 9,8 C 19,3 km/h (3 Bft) 93,10 %
21.09.2017 12:16 13,3 C 13,3 C 80 % 1020,8 hPa 0,0 l/m 10,1 km/h (2 Bft) SW 229 2 min 0,000 mm 2,2 UV-I 455 W/m 9,9 C 11,2 C 14,5 km/h (3 Bft) 95,16 %
21.09.2017 12:18 13,4 C 13,3 C 78 % 1020,7 hPa 0,0 l/m 14,7 km/h (3 Bft) SW 229 2 min 0,000 mm 2,2 UV-I 444 W/m 9,6 C 9,4 C 19,3 km/h (3 Bft) 94,74 %
21.09.2017 12:20 13,4 C 13,3 C 78 % 1020,7 hPa 0,0 l/m 9,9 km/h (2 Bft) W-SW 242 2 min 0,000 mm 2,2 UV-I 430 W/m 9,6 C 11,4 C 19,3 km/h (3 Bft) 94,64 %
21.09.2017 12:22 13,5 C 13,3 C 77 % 1020,7 hPa 0,0 l/m 12,0 km/h (2 Bft) W-SW 246 2 min 0,000 mm 2,3 UV-I 420 W/m 9,5 C 10,5 C 19,3 km/h (3 Bft) 95,45 %
21.09.2017 12:24 13,4 C 13,3 C 76 % 1020,7 hPa 0,0 l/m 17,0 km/h (3 Bft) W-SW 255 2 min 0,000 mm 2,3 UV-I 435 W/m 9,3 C 8,6 C 24,1 km/h (4 Bft) 94,00 %
21.09.2017 12:26 13,4 C 13,3 C 76 % 1020,8 hPa 0,0 l/m 15,8 km/h (3 Bft) W 261 2 min 0,000 mm 2,3 UV-I 426 W/m 9,3 C 9,0 C 27,4 km/h (4 Bft) 94,44 %
21.09.2017 12:28 13,4 C 13,3 C 76 % 1020,7 hPa 0,0 l/m 12,3 km/h (3 Bft) W-SW 249 2 min 0,000 mm 2,3 UV-I 424 W/m 9,3 C 10,3 C 19,3 km/h (3 Bft) 94,00 %
21.09.2017 12:30 13,4 C 13,3 C 76 % 1020,7 hPa 0,0 l/m 11,0 km/h (2 Bft) W 259 2 min 0,000 mm 2,4 UV-I 463 W/m 9,3 C 10,9 C 16,1 km/h (3 Bft) 94,00 %
21.09.2017 12:32 13,4 C 13,3 C 77 % 1020,8 hPa 0,0 l/m 10,6 km/h (2 Bft) NW 304 2 min 0,000 mm 2,5 UV-I 496 W/m 9,5 C 11,1 C 19,3 km/h (3 Bft) 92,11 %
21.09.2017 12:34 13,6 C 13,3 C 76 % 1020,8 hPa 0,0 l/m 11,7 km/h (2 Bft) W-SW 254 2 min 0,000 mm 2,6 UV-I 529 W/m 9,4 C 10,8 C 20,9 km/h (4 Bft) 94,34 %
21.09.2017 12:36 13,6 C 13,3 C 76 % 1020,7 hPa 0,0 l/m 15,1 km/h (3 Bft) W-SW 254 2 min 0,000 mm 2,5 UV-I 518 W/m 9,4 C 9,5 C 24,1 km/h (4 Bft) 96,00 %
21.09.2017 12:38 13,7 C 13,3 C 75 % 1020,7 hPa 0,0 l/m 12,0 km/h (2 Bft) W-SW 243 2 min 0,000 mm 2,3 UV-I 452 W/m 9,3 C 10,8 C 22,5 km/h (4 Bft) 93,18 %
21.09.2017 12:40 13,8 C 13,3 C 76 % 1020,7 hPa 0,0 l/m 11,5 km/h (2 Bft) SW 235 2 min 0,000 mm 2,0 UV-I 393 W/m 9,6 C 11,1 C 19,3 km/h (3 Bft) 97,87 %
21.09.2017 12:42 13,8 C 13,3 C 75 % 1020,8 hPa 0,0 l/m 16,1 km/h (3 Bft) SW 224 2 min 0,000 mm 2,0 UV-I 374 W/m 9,4 C 9,4 C 25,7 km/h (4 Bft) 97,87 %
21.09.2017 12:44 13,7 C 13,3 C 74 % 1020,8 hPa 0,0 l/m 14,5 km/h (3 Bft) SW 227 2 min 0,000 mm 2,1 UV-I 409 W/m 9,2 C 9,8 C 25,7 km/h (4 Bft) 96,00 %
21.09.2017 12:46 13,7 C 13,3 C 75 % 1020,7 hPa 0,0 l/m 12,0 km/h (2 Bft) SW 234 2 min 0,000 mm 2,1 UV-I 403 W/m 9,3 C 10,8 C 22,5 km/h (4 Bft) 97,73 %
21.09.2017 12:48 13,7 C 13,3 C 75 % 1020,7 hPa 0,0 l/m 13,0 km/h (3 Bft) W 261 2 min 0,000 mm 2,2 UV-I 418 W/m 9,3 C 10,4 C 20,9 km/h (4 Bft) 97,87 %
21.09.2017 12:50 13,6 C 13,3 C 75 % 1020,7 hPa 0,0 l/m 17,2 km/h (3 Bft) W-SW 252 2 min 0,000 mm 2,1 UV-I 403 W/m 9,3 C 8,8 C 25,7 km/h (4 Bft) 97,73 %
21.09.2017 12:52 13,6 C 13,3 C 75 % 1020,6 hPa 0,0 l/m 18,5 km/h (3 Bft) W-SW 248 0 min 0,000 mm 1,9 UV-I 352 W/m 9,3 C 8,4 C 25,7 km/h (4 Bft) 96,23 %
21.09.2017 12:54 13,6 C 13,3 C 75 % 1020,6 hPa 0,0 l/m 11,2 km/h (2 Bft) W 277 0 min 0,000 mm 1,9 UV-I 335 W/m 9,3 C 11,0 C 19,3 km/h (3 Bft) 95,74 %
21.09.2017 12:56 13,6 C 13,3 C 76 % 1020,6 hPa 0,0 l/m 10,1 km/h (2 Bft) W-SW 252 0 min 0,000 mm 2,0 UV-I 361 W/m 9,4 C 11,5 C 14,5 km/h (3 Bft) 97,87 %
21.09.2017 12:58 13,7 C 13,3 C 76 % 1020,6 hPa 0,0 l/m 15,0 km/h (3 Bft) W-SW 240 0 min 0,000 mm 1,8 UV-I 358 W/m 9,5 C 9,6 C 24,1 km/h (4 Bft) 97,56 %
21.09.2017 13:00 13,7 C 13,3 C 75 % 1020,6 hPa 0,0 l/m 12,1 km/h (2 Bft) W 261 0 min 0,000 mm 1,7 UV-I 351 W/m 9,3 C 10,7 C 22,5 km/h (4 Bft) 96,00 %
21.09.2017 13:02 13,6 C 13,3 C 75 % 1020,6 hPa 0,0 l/m 12,1 km/h (2 Bft) W-SW 240 2 min 0,254 mm 1,9 UV-I 393 W/m 9,3 C 10,6 C 20,9 km/h (4 Bft) 96,30 %
21.09.2017 13:04 13,7 C 13,3 C 75 % 1020,6 hPa 0,0 l/m 12,6 km/h (3 Bft) W 261 2 min 0,000 mm 2,2 UV-I 441 W/m 9,3 C 10,5 C 20,9 km/h (4 Bft) 100,00 %
21.09.2017 13:06 13,7 C 13,3 C 75 % 1020,5 hPa 0,0 l/m 11,8 km/h (2 Bft) W-NW 289 2 min 0,000 mm 2,2 UV-I 442 W/m 9,3 C 10,9 C 19,3 km/h (3 Bft) 100,00 %
21.09.2017 13:08 13,7 C 13,3 C 75 % 1020,5 hPa 0,0 l/m 9,8 km/h (2 Bft) W 281 2 min 0,000 mm 2,0 UV-I 383 W/m 9,3 C 11,8 C 12,9 km/h (3 Bft) 97,87 %
21.09.2017 13:10 13,7 C 13,3 C 75 % 1020,5 hPa 0,0 l/m 10,5 km/h (2 Bft) W-SW 241 2 min 0,000 mm 2,0 UV-I 380 W/m 9,3 C 11,4 C 19,3 km/h (3 Bft) 100,00 %
21.09.2017 13:12 13,7 C 13,3 C 75 % 1020,5 hPa 0,0 l/m 13,8 km/h (3 Bft) W-SW 244 2 min 0,000 mm 1,9 UV-I 371 W/m 9,3 C 10,1 C 20,9 km/h (4 Bft) 97,37 %
21.09.2017 13:14 13,8 C 13,3 C 75 % 1020,5 hPa 0,0 l/m 6,5 km/h (2 Bft) W 267 2 min 0,000 mm 1,9 UV-I 371 W/m 9,4 C 13,8 C 14,5 km/h (3 Bft) 100,00 %
21.09.2017 13:16 13,7 C 13,3 C 74 % 1020,6 hPa 0,0 l/m 7,3 km/h (2 Bft) W-SW 251 0 min 0,000 mm 1,9 UV-I 357 W/m 9,2 C 13,2 C 14,5 km/h (3 Bft) 100,00 %
21.09.2017 13:18 13,7 C 13,3 C 75 % 1020,6 hPa 0,0 l/m 11,6 km/h (2 Bft) W-SW 250 0 min 0,000 mm 1,8 UV-I 349 W/m 9,3 C 10,9 C 20,9 km/h (4 Bft) 98,00 %
21.09.2017 13:20 13,7 C 13,3 C 74 % 1020,6 hPa 0,0 l/m 16,7 km/h (3 Bft) W-NW 289 0 min 0,000 mm 1,8 UV-I 339 W/m 9,2 C 9,0 C 22,5 km/h (4 Bft) 100,00 %
21.09.2017 13:22 13,7 C 13,3 C 74 % 1020,5 hPa 0,0 l/m 12,1 km/h (2 Bft) SW 236 0 min 0,000 mm 1,7 UV-I 341 W/m 9,2 C 10,7 C 16,1 km/h (3 Bft) 100,00 %
21.09.2017 13:24 13,7 C 13,3 C 75 % 1020,5 hPa 0,0 l/m 8,3 km/h (2 Bft) W-SW 243 0 min 0,000 mm 1,7 UV-I 334 W/m 9,3 C 12,6 C 12,9 km/h (3 Bft) 100,00 %
21.09.2017 13:26 13,8 C 13,3 C 75 % 1020,6 hPa 0,0 l/m 10,0 km/h (2 Bft) SW 236 0 min 0,000 mm 1,8 UV-I 357 W/m 9,4 C 11,8 C 17,7 km/h (3 Bft) 100,00 %
21.09.2017 13:28 13,8 C 13,3 C 74 % 1020,5 hPa 0,0 l/m 12,3 km/h (3 Bft) W 263 0 min 0,000 mm 1,7 UV-I 351 W/m 9,2 C 10,8 C 17,7 km/h (3 Bft) 100,00 %
21.09.2017 13:30 13,8 C 13,3 C 74 % 1020,5 hPa 0,0 l/m 11,0 km/h (2 Bft) SW 229 0 min 0,000 mm 1,6 UV-I 331 W/m 9,2 C 11,3 C 17,7 km/h (3 Bft) 100,00 %
21.09.2017 13:32 13,7 C 13,3 C 74 % 1020,5 hPa 0,0 l/m 11,5 km/h (2 Bft) SW 227 0 min 0,000 mm 1,7 UV-I 331 W/m 9,2 C 11,0 C 16,1 km/h (3 Bft) 100,00 %
21.09.2017 13:34 13,7 C 13,3 C 75 % 1020,5 hPa 0,0 l/m 8,8 km/h (2 Bft) W 271 0 min 0,000 mm 1,6 UV-I 321 W/m 9,3 C 12,3 C 14,5 km/h (3 Bft) 100,00 %
21.09.2017 13:36 13,8 C 13,3 C 75 % 1020,5 hPa 0,0 l/m 6,5 km/h (2 Bft) W-SW 238 0 min 0,000 mm 1,5 UV-I 292 W/m 9,4 C 13,8 C 12,9 km/h (3 Bft) 100,00 %
21.09.2017 13:38 13,8 C 13,3 C 74 % 1020,5 hPa 0,0 l/m 11,4 km/h (2 Bft) W 281 0 min 0,000 mm 1,5 UV-I 283 W/m 9,2 C 11,1 C 19,3 km/h (3 Bft) 96,61 %
21.09.2017 13:40 13,8 C 13,3 C 75 % 1020,5 hPa 0,0 l/m 8,9 km/h (2 Bft) W-SW 238 0 min 0,000 mm 1,4 UV-I 272 W/m 9,4 C 12,3 C 16,1 km/h (3 Bft) 97,87 %
21.09.2017 13:42 13,8 C 13,3 C 75 % 1020,5 hPa 0,0 l/m 6,7 km/h (2 Bft) S-SW 198 0 min 0,000 mm 1,3 UV-I 262 W/m 9,4 C 13,6 C 14,5 km/h (3 Bft) 100,00 %
21.09.2017 13:44 13,9 C 13,3 C 76 % 1020,4 hPa 0,0 l/m 5,5 km/h (1 Bft) SW 219 0 min 0,000 mm 1,4 UV-I 270 W/m 9,7 C 13,9 C 12,9 km/h (3 Bft) 100,00 %
21.09.2017 13:46 13,9 C 13,3 C 76 % 1020,4 hPa 0,0 l/m 3,3 km/h (1 Bft) W 259 0 min 0,000 mm 1,4 UV-I 262 W/m 9,7 C 13,9 C 6,4 km/h (2 Bft) 96,30 %
21.09.2017 13:48 14,0 C 13,3 C 75 % 1020,4 hPa 0,0 l/m 4,7 km/h (1 Bft) W-SW 240 0 min 0,000 mm 1,2 UV-I 238 W/m 9,6 C 14,0 C 8,0 km/h (2 Bft) 100,00 %
21.09.2017 13:50 13,9 C 13,3 C 74 % 1020,4 hPa 0,0 l/m 4,8 km/h (1 Bft) S-SW 213 0 min 0,000 mm 1,3 UV-I 236 W/m 9,3 C 13,9 C 11,3 km/h (2 Bft) 100,00 %
21.09.2017 13:52 13,8 C 13,3 C 75 % 1020,4 hPa 0,0 l/m 6,2 km/h (2 Bft) W-SW 245 0 min 0,000 mm 1,3 UV-I 248 W/m 9,4 C 13,8 C 11,3 km/h (2 Bft) 100,00 %
21.09.2017 13:54 13,8 C 13,3 C 74 % 1020,4 hPa 0,0 l/m 6,8 km/h (2 Bft) W-SW 250 0 min 0,000 mm 1,4 UV-I 255 W/m 9,2 C 13,6 C 12,9 km/h (3 Bft) 100,00 %
21.09.2017 13:56 13,8 C 13,3 C 75 % 1020,4 hPa 0,0 l/m 6,7 km/h (2 Bft) W-NW 292 0 min 0,000 mm 1,4 UV-I 263 W/m 9,4 C 13,6 C 12,9 km/h (3 Bft) 98,00 %
21.09.2017 13:58 13,8 C 13,3 C 74 % 1020,4 hPa 0,0 l/m 9,7 km/h (2 Bft) W-SW 257 0 min 0,000 mm 1,5 UV-I 271 W/m 9,2 C 11,9 C 16,1 km/h (3 Bft) 97,56 %
21.09.2017 14:00 13,8 C 13,3 C 73 % 1020,4 hPa 0,0 l/m 9,8 km/h (2 Bft) W 259 0 min 0,177 mm 1,4 UV-I 270 W/m 9,0 C 11,9 C 20,9 km/h (4 Bft) 96,23 %
21.09.2017 14:02 13,8 C 13,3 C 73 % 1020,4 hPa 0,0 l/m 9,4 km/h (2 Bft) W 261 0 min 0,000 mm 1,4 UV-I 259 W/m 9,0 C 12,1 C 16,1 km/h (3 Bft) 97,37 %
21.09.2017 14:04 13,8 C 13,3 C 74 % 1020,4 hPa 0,0 l/m 7,9 km/h (2 Bft) S-SW 202 0 min 0,000 mm 1,3 UV-I 245 W/m 9,2 C 12,9 C 16,1 km/h (3 Bft) 96,00 %
21.09.2017 14:06 13,8 C 13,3 C 73 % 1020,3 hPa 0,0 l/m 6,8 km/h (2 Bft) SW 233 0 min 0,000 mm 1,2 UV-I 234 W/m 9,0 C 13,6 C 12,9 km/h (3 Bft) 96,00 %
21.09.2017 14:08 13,8 C 13,3 C 75 % 1020,4 hPa 0,0 l/m 2,7 km/h (1 Bft) W-NW 286 0 min 0,000 mm 1,2 UV-I 225 W/m 9,4 C 13,8 C 6,4 km/h (2 Bft) 96,00 %
21.09.2017 14:10 13,9 C 13,3 C 74 % 1020,3 hPa 0,0 l/m 3,9 km/h (1 Bft) W-SW 258 0 min 0,000 mm 1,2 UV-I 229 W/m 9,3 C 13,9 C 12,9 km/h (3 Bft) 97,37 %
21.09.2017 14:12 13,9 C 13,3 C 75 % 1020,3 hPa 0,0 l/m 11,0 km/h (2 Bft) W-SW 252 0 min 0,000 mm 1,2 UV-I 228 W/m 9,5 C 11,4 C 19,3 km/h (3 Bft) 97,73 %
21.09.2017 14:14 13,9 C 13,3 C 75 % 1020,3 hPa 0,0 l/m 7,5 km/h (2 Bft) W-SW 247 0 min 0,000 mm 1,2 UV-I 222 W/m 9,5 C 13,2 C 12,9 km/h (3 Bft) 96,23 %
21.09.2017 14:16 13,9 C 13,3 C 75 % 1020,3 hPa 0,0 l/m 8,3 km/h (2 Bft) W-SW 248 0 min 0,000 mm 1,2 UV-I 217 W/m 9,5 C 12,8 C 14,5 km/h (3 Bft) 96,23 %
21.09.2017 14:18 13,9 C 13,3 C 74 % 1020,2 hPa 0,0 l/m 10,3 km/h (2 Bft) W-NW 285 0 min 0,000 mm 1,0 UV-I 197 W/m 9,3 C 11,8 C 17,7 km/h (3 Bft) 97,56 %
21.09.2017 14:20 13,8 C 13,3 C 74 % 1020,3 hPa 0,0 l/m 7,0 km/h (2 Bft) W-SW 258 0 min 0,000 mm 0,9 UV-I 182 W/m 9,2 C 13,4 C 12,9 km/h (3 Bft) 95,74 %
21.09.2017 14:22 13,8 C 13,3 C 75 % 1020,3 hPa 0,0 l/m 9,0 km/h (2 Bft) W 272 0 min 0,000 mm 1,1 UV-I 201 W/m 9,4 C 12,3 C 16,1 km/h (3 Bft) 98,11 %
21.09.2017 14:24 13,8 C 13,3 C 74 % 1020,2 hPa 0,0 l/m 7,2 km/h (2 Bft) W 281 0 min 0,000 mm 1,2 UV-I 220 W/m 9,2 C 13,3 C 11,3 km/h (2 Bft) 97,87 %
21.09.2017 14:26 13,9 C 13,3 C 75 % 1020,2 hPa 0,0 l/m 9,3 km/h (2 Bft) W 269 0 min 0,000 mm 1,1 UV-I 211 W/m 9,5 C 12,2 C 16,1 km/h (3 Bft) 97,73 %
21.09.2017 14:28 13,9 C 13,3 C 74 % 1020,2 hPa 0,0 l/m 10,3 km/h (2 Bft) W 261 0 min 0,000 mm 1,1 UV-I 202 W/m 9,3 C 11,8 C 14,5 km/h (3 Bft) 97,62 %
21.09.2017 14:30 13,9 C 13,3 C 75 % 1020,2 hPa 0,0 l/m 11,4 km/h (2 Bft) W 259 0 min 0,000 mm 1,1 UV-I 213 W/m 9,5 C 11,3 C 17,7 km/h (3 Bft) 100,00 %
21.09.2017 14:33 13,8 C 13,3 C 74 % 1020,2 hPa 0,0 l/m 7,1 km/h (2 Bft) W-SW 240 0 min 0,000 mm 1,2 UV-I 221 W/m 9,2 C 13,4 C 12,9 km/h (3 Bft) 97,26 %
21.09.2017 14:34 13,8 C 13,3 C 75 % 1020,2 hPa 0,0 l/m 8,0 km/h (2 Bft) W 262 0 min 0,000 mm 1,1 UV-I 220 W/m 9,4 C 12,8 C 12,9 km/h (3 Bft) 100,00 %
21.09.2017 14:36 13,9 C 13,3 C 74 % 1020,1 hPa 0,0 l/m 7,4 km/h (2 Bft) W 266 0 min 0,000 mm 1,1 UV-I 217 W/m 9,3 C 13,3 C 11,3 km/h (2 Bft) 100,00 %
21.09.2017 14:38 13,8 C 13,3 C 73 % 1020,1 hPa 0,0 l/m 9,4 km/h (2 Bft) SW 236 0 min 0,000 mm 1,1 UV-I 213 W/m 9,0 C 12,1 C 14,5 km/h (3 Bft) 100,00 %
21.09.2017 14:40 13,8 C 13,3 C 74 % 1020,1 hPa 0,0 l/m 8,7 km/h (2 Bft) W 267 0 min 0,000 mm 1,1 UV-I 205 W/m 9,2 C 12,5 C 14,5 km/h (3 Bft) 98,21 %
21.09.2017 14:42 13,9 C 13,3 C 74 % 1020,1 hPa 0,0 l/m 8,9 km/h (2 Bft) W 263 0 min 0,000 mm 1,0 UV-I 197 W/m 9,3 C 12,5 C 17,7 km/h (3 Bft) 100,00 %
21.09.2017 14:44 13,8 C 13,3 C 73 % 1020,0 hPa 0,0 l/m 8,7 km/h (2 Bft) W 260 0 min 0,000 mm 1,0 UV-I 192 W/m 9,0 C 12,5 C 17,7 km/h (3 Bft) 100,00 %
21.09.2017 14:46 13,8 C 13,3 C 73 % 1020,1 hPa 0,0 l/m 5,4 km/h (1 Bft) W-SW 256 0 min 0,000 mm 1,0 UV-I 189 W/m 9,0 C 13,8 C 11,3 km/h (2 Bft) 100,00 %
21.09.2017 14:48 13,8 C 13,3 C 73 % 1020,1 hPa 0,0 l/m 8,5 km/h (2 Bft) W 263 0 min 0,000 mm 0,9 UV-I 183 W/m 9,0 C 12,6 C 14,5 km/h (3 Bft) 97,56 %
21.09.2017 14:50 13,8 C 13,3 C 74 % 1020,1 hPa 0,0 l/m 9,5 km/h (2 Bft) W 269 0 min 0,000 mm 0,9 UV-I 174 W/m 9,2 C 12,0 C 17,7 km/h (3 Bft) 100,00 %
21.09.2017 14:52 13,8 C 13,3 C 74 % 1020,0 hPa 0,0 l/m 7,9 km/h (2 Bft) SW 220 0 min 0,000 mm 0,8 UV-I 172 W/m 9,2 C 12,9 C 14,5 km/h (3 Bft) 100,00 %
21.09.2017 14:54 13,8 C 13,3 C 74 % 1020,1 hPa 0,0 l/m 7,2 km/h (2 Bft) NW 315 0 min 0,000 mm 0,8 UV-I 172 W/m 9,2 C 13,3 C 14,5 km/h (3 Bft) 100,00 %
21.09.2017 14:56 13,7 C 13,3 C 74 % 1020,0 hPa 0,0 l/m 8,4 km/h (2 Bft) W 261 0 min 0,000 mm 0,8 UV-I 173 W/m 9,2 C 12,5 C 16,1 km/h (3 Bft) 100,00 %
21.09.2017 14:58 13,7 C 13,3 C 74 % 1020,1 hPa 0,0 l/m 8,7 km/h (2 Bft) W-SW 252 0 min 0,000 mm 0,9 UV-I 177 W/m 9,2 C 12,3 C 14,5 km/h (3 Bft) 100,00 %
21.09.2017 15:00 13,8 C 13,3 C 75 % 1020,1 hPa 0,0 l/m 7,6 km/h (2 Bft) W-SW 257 0 min 0,127 mm 0,9 UV-I 184 W/m 9,4 C 13,1 C 12,9 km/h (3 Bft) 100,00 %
21.09.2017 15:02 13,8 C 13,3 C 75 % 1020,1 hPa 0,0 l/m 10,0 km/h (2 Bft) W 272 0 min 0,000 mm 0,9 UV-I 185 W/m 9,4 C 11,8 C 17,7 km/h (3 Bft) 97,62 %
21.09.2017 15:04 13,8 C 13,3 C 75 % 1020,1 hPa 0,0 l/m 13,7 km/h (3 Bft) W-SW 247 0 min 0,000 mm 0,9 UV-I 189 W/m 9,4 C 10,2 C 20,9 km/h (4 Bft) 98,00 %
21.09.2017 15:06 13,8 C 13,3 C 75 % 1020,1 hPa 0,0 l/m 10,8 km/h (2 Bft) W 273 0 min 0,000 mm 0,9 UV-I 190 W/m 9,4 C 11,4 C 16,1 km/h (3 Bft) 100,00 %
21.09.2017 15:08 13,8 C 13,3 C 75 % 1020,1 hPa 0,0 l/m 13,7 km/h (3 Bft) W-SW 252 0 min 0,000 mm 0,9 UV-I 192 W/m 9,4 C 10,2 C 20,9 km/h (4 Bft) 97,87 %
21.09.2017 15:10 13,8 C 13,3 C 75 % 1020,1 hPa 0,0 l/m 13,6 km/h (3 Bft) W-SW 255 0 min 0,000 mm 0,9 UV-I 193 W/m 9,4 C 10,2 C 19,3 km/h (3 Bft) 100,00 %
21.09.2017 15:12 13,8 C 13,3 C 74 % 1020,1 hPa 0,0 l/m 10,5 km/h (2 Bft) W 261 0 min 0,000 mm 0,9 UV-I 192 W/m 9,2 C 11,6 C 19,3 km/h (3 Bft) 100,00 %
21.09.2017 15:14 13,8 C 13,3 C 75 % 1020,1 hPa 0,0 l/m 9,6 km/h (2 Bft) W-NW 290 0 min 0,000 mm 0,9 UV-I 188 W/m 9,4 C 12,0 C 14,5 km/h (3 Bft) 100,00 %
21.09.2017 15:16 13,8 C 13,3 C 74 % 1020,1 hPa 0,0 l/m 9,9 km/h (2 Bft) W-SW 245 0 min 0,000 mm 0,8 UV-I 182 W/m 9,2 C 11,8 C 14,5 km/h (3 Bft) 100,00 %
21.09.2017 15:18 13,8 C 13,3 C 75 % 1020,1 hPa 0,0 l/m 8,2 km/h (2 Bft) W-SW 256 0 min 0,000 mm 0,8 UV-I 181 W/m 9,4 C 12,7 C 11,3 km/h (2 Bft) 100,00 %
21.09.2017 15:20 13,8 C 13,3 C 75 % 1020,1 hPa 0,0 l/m 9,3 km/h (2 Bft) W 278 0 min 0,000 mm 0,8 UV-I 187 W/m 9,4 C 12,1 C 14,5 km/h (3 Bft) 100,00 %
21.09.2017 15:22 13,8 C 13,3 C 76 % 1020,1 hPa 0,0 l/m 9,5 km/h (2 Bft) W 271 0 min 0,000 mm 0,9 UV-I 195 W/m 9,6 C 12,0 C 17,7 km/h (3 Bft) 97,56 %
21.09.2017 15:24 13,8 C 13,3 C 75 % 1020,0 hPa 0,0 l/m 10,8 km/h (2 Bft) W-SW 251 0 min 0,000 mm 0,9 UV-I 197 W/m 9,4 C 11,4 C 17,7 km/h (3 Bft) 100,00 %
21.09.2017 15:26 13,8 C 13,3 C 76 % 1020,1 hPa 0,0 l/m 8,9 km/h (2 Bft) W 259 0 min 0,000 mm 0,9 UV-I 199 W/m 9,6 C 12,3 C 14,5 km/h (3 Bft) 100,00 %
21.09.2017 15:28 13,9 C 13,3 C 76 % 1020,0 hPa 0,0 l/m 6,7 km/h (2 Bft) W-SW 246 0 min 0,000 mm 0,9 UV-I 200 W/m 9,7 C 13,7 C 11,3 km/h (2 Bft) 100,00 %
21.09.2017 15:30 13,9 C 13,3 C 76 % 1020,0 hPa 0,0 l/m 6,1 km/h (2 Bft) W-SW 254 0 min 0,000 mm 0,9 UV-I 201 W/m 9,7 C 13,9 C 11,3 km/h (2 Bft) 98,00 %
21.09.2017 15:32 14,0 C 13,3 C 75 % 1020,0 hPa 0,0 l/m 10,9 km/h (2 Bft) SW 223 0 min 0,000 mm 0,9 UV-I 197 W/m 9,6 C 11,6 C 17,7 km/h (3 Bft) 98,11 %
21.09.2017 15:34 13,9 C 13,3 C 74 % 1020,0 hPa 0,0 l/m 9,2 km/h (2 Bft) W-SW 256 0 min 0,000 mm 0,8 UV-I 187 W/m 9,3 C 12,3 C 14,5 km/h (3 Bft) 100,00 %
21.09.2017 15:36 13,9 C 13,3 C 74 % 1020,0 hPa 0,0 l/m 9,8 km/h (2 Bft) W 280 0 min 0,000 mm 0,7 UV-I 174 W/m 9,3 C 12,0 C 16,1 km/h (3 Bft) 100,00 %
21.09.2017 15:38 13,9 C 13,3 C 74 % 1020,0 hPa 0,0 l/m 10,4 km/h (2 Bft) W-SW 250 0 min 0,000 mm 0,7 UV-I 160 W/m 9,3 C 11,7 C 16,1 km/h (3 Bft) 100,00 %
21.09.2017 15:40 13,9 C 13,3 C 74 % 1020,0 hPa 0,0 l/m 8,6 km/h (2 Bft) W-NW 284 0 min 0,000 mm 0,6 UV-I 148 W/m 9,3 C 12,6 C 14,5 km/h (3 Bft) 100,00 %
21.09.2017 15:42 13,9 C 13,3 C 74 % 1020,0 hPa 0,0 l/m 8,0 km/h (2 Bft) W-SW 246 0 min 0,000 mm 0,6 UV-I 141 W/m 9,3 C 12,9 C 12,9 km/h (3 Bft) 100,00 %
21.09.2017 15:44 13,8 C 13,3 C 74 % 1020,0 hPa 0,0 l/m 8,2 km/h (2 Bft) SW 236 0 min 0,000 mm 0,6 UV-I 141 W/m 9,2 C 12,7 C 16,1 km/h (3 Bft) 100,00 %
21.09.2017 15:46 13,8 C 13,3 C 75 % 1019,9 hPa 0,0 l/m 8,1 km/h (2 Bft) W-NW 285 0 min 0,000 mm 0,6 UV-I 142 W/m 9,4 C 12,8 C 12,9 km/h (3 Bft) 97,44 %
21.09.2017 15:48 13,8 C 13,3 C 76 % 1019,9 hPa 0,0 l/m 8,3 km/h (2 Bft) W 263 0 min 0,000 mm 0,6 UV-I 143 W/m 9,6 C 12,7 C 12,9 km/h (3 Bft) 100,00 %
21.09.2017 15:50 13,8 C 13,3 C 76 % 1019,9 hPa 0,0 l/m 7,6 km/h (2 Bft) W-SW 257 0 min 0,000 mm 0,6 UV-I 144 W/m 9,6 C 13,1 C 11,3 km/h (2 Bft) 100,00 %
21.09.2017 15:52 13,8 C 13,3 C 76 % 1019,9 hPa 0,0 l/m 7,1 km/h (2 Bft) SW 234 0 min 0,000 mm 0,6 UV-I 144 W/m 9,6 C 13,4 C 11,3 km/h (2 Bft) 96,43 %
21.09.2017 15:54 13,8 C 13,3 C 76 % 1019,9 hPa 0,0 l/m 5,6 km/h (1 Bft) SW 223 0 min 0,000 mm 0,6 UV-I 145 W/m 9,6 C 13,8 C 9,7 km/h (2 Bft) 98,00 %
21.09.2017 15:56 13,9 C 13,3 C 76 % 1019,8 hPa 0,0 l/m 7,3 km/h (2 Bft) W-SW 258 0 min 0,000 mm 0,6 UV-I 147 W/m 9,7 C 13,4 C 11,3 km/h (2 Bft) 94,74 %
21.09.2017 15:58 13,9 C 13,3 C 76 % 1019,9 hPa 0,0 l/m 10,9 km/h (2 Bft) SW 234 0 min 0,000 mm 0,6 UV-I 149 W/m 9,7 C 11,5 C 14,5 km/h (3 Bft) 97,87 %
21.09.2017 16:00 13,9 C 13,3 C 74 % 1019,9 hPa 0,0 l/m 7,9 km/h (2 Bft) W-SW 248 0 min 0,000 mm 0,6 UV-I 150 W/m 9,3 C 13,0 C 12,9 km/h (3 Bft) 96,23 %
21.09.2017 16:02 13,9 C 13,3 C 75 % 1019,9 hPa 0,0 l/m 10,8 km/h (2 Bft) W-SW 258 0 min 0,127 mm 0,6 UV-I 151 W/m 9,5 C 11,5 C 16,1 km/h (3 Bft) 94,00 %
21.09.2017 16:06 13,9 C 13,3 C 74 % 1019,9 hPa 0,0 l/m 11,4 km/h (2 Bft) W 274 0 min 0,000 mm 0,6 UV-I 148 W/m 9,3 C 11,3 C 19,3 km/h (3 Bft) 95,83 %
21.09.2017 16:08 13,9 C 13,3 C 74 % 1019,9 hPa 0,0 l/m 9,7 km/h (2 Bft) W-SW 237 0 min 0,000 mm 0,6 UV-I 151 W/m 9,3 C 12,0 C 14,5 km/h (3 Bft) 95,83 %
21.09.2017 16:10 13,9 C 13,3 C 74 % 1019,8 hPa 0,0 l/m 14,5 km/h (3 Bft) W-SW 252 0 min 0,000 mm 0,6 UV-I 153 W/m 9,3 C 10,0 C 17,7 km/h (3 Bft) 95,83 %
21.09.2017 16:12 13,9 C 13,3 C 73 % 1019,8 hPa 0,0 l/m 12,9 km/h (3 Bft) W 263 0 min 0,000 mm 0,6 UV-I 153 W/m 9,1 C 10,6 C 19,3 km/h (3 Bft) 95,83 %
21.09.2017 16:14 13,8 C 13,3 C 74 % 1019,8 hPa 0,0 l/m 8,0 km/h (2 Bft) W-SW 239 0 min 0,000 mm 0,6 UV-I 151 W/m 9,2 C 12,8 C 19,3 km/h (3 Bft) 95,83 %
21.09.2017 16:16 13,9 C 13,3 C 75 % 1019,8 hPa 0,0 l/m 12,9 km/h (3 Bft) W-SW 257 0 min 0,000 mm 0,5 UV-I 149 W/m 9,5 C 10,6 C 19,3 km/h (3 Bft) 95,83 %
21.09.2017 16:18 13,9 C 13,3 C 74 % 1019,8 hPa 0,0 l/m 10,1 km/h (2 Bft) W 259 0 min 0,000 mm 0,6 UV-I 151 W/m 9,3 C 11,9 C 19,3 km/h (3 Bft) 96,56 %
21.09.2017 16:20 13,9 C 13,3 C 74 % 1019,9 hPa 0,0 l/m 8,8 km/h (2 Bft) W 268 0 min 0,000 mm 0,5 UV-I 147 W/m 9,3 C 12,5 C 14,5 km/h (3 Bft) 95,74 %
21.09.2017 16:22 13,9 C 13,3 C 74 % 1019,8 hPa 0,0 l/m 6,3 km/h (2 Bft) W-SW 238 0 min 0,000 mm 0,5 UV-I 145 W/m 9,3 C 13,9 C 9,7 km/h (2 Bft) 94,74 %
21.09.2017 16:24 13,9 C 13,3 C 75 % 1019,9 hPa 0,0 l/m 5,8 km/h (2 Bft) W 267 0 min 0,000 mm 0,5 UV-I 141 W/m 9,5 C 13,9 C 11,3 km/h (2 Bft) 98,11 %
21.09.2017 16:26 13,9 C 13,3 C 76 % 1019,9 hPa 0,0 l/m 6,4 km/h (2 Bft) W-SW 248 0 min 0,000 mm 0,3 UV-I 135 W/m 9,7 C 13,9 C 9,7 km/h (2 Bft) 98,00 %
21.09.2017 16:28 13,9 C 13,3 C 76 % 1019,9 hPa 0,0 l/m 6,7 km/h (2 Bft) W-SW 238 0 min 0,000 mm 0,0 UV-I 125 W/m 9,7 C 13,7 C 12,9 km/h (3 Bft) 95,12 %
21.09.2017 16:30 13,9 C 13,3 C 76 % 1019,9 hPa 0,0 l/m 8,5 km/h (2 Bft) W-SW 252 0 min 0,000 mm 0,0 UV-I 120 W/m 9,7 C 12,7 C 12,9 km/h (3 Bft) 100,00 %
21.09.2017 16:32 13,9 C 13,3 C 75 % 1019,9 hPa 0,0 l/m 7,7 km/h (2 Bft) W 266 0 min 0,000 mm 0,0 UV-I 114 W/m 9,5 C 13,1 C 12,9 km/h (3 Bft) 98,21 %
21.09.2017 16:34 13,9 C 13,3 C 76 % 1019,9 hPa 0,0 l/m 7,3 km/h (2 Bft) W-SW 248 0 min 0,000 mm 0,0 UV-I 107 W/m 9,7 C 13,4 C 12,9 km/h (3 Bft) 97,96 %
21.09.2017 16:36 13,8 C 13,3 C 75 % 1020,0 hPa 0,0 l/m 9,4 km/h (2 Bft) W 259 0 min 0,000 mm 0,0 UV-I 100 W/m 9,4 C 12,1 C 17,7 km/h (3 Bft) 95,83 %
21.09.2017 16:38 13,8 C 13,3 C 74 % 1020,0 hPa 0,0 l/m 11,4 km/h (2 Bft) W-SW 241 0 min 0,000 mm 0,0 UV-I 96 W/m 9,2 C 11,1 C 16,1 km/h (3 Bft) 97,37 %
21.09.2017 16:40 13,8 C 13,3 C 75 % 1020,0 hPa 0,0 l/m 8,1 km/h (2 Bft) W-SW 251 0 min 0,000 mm 0,0 UV-I 92 W/m 9,4 C 12,8 C 12,9 km/h (3 Bft) 97,37 %
21.09.2017 16:42 13,8 C 13,3 C 75 % 1020,0 hPa 0,0 l/m 9,3 km/h (2 Bft) W-SW 250 0 min 0,000 mm 0,0 UV-I 89 W/m 9,4 C 12,1 C 14,5 km/h (3 Bft) 95,38 %
21.09.2017 16:44 13,7 C 13,3 C 76 % 1020,0 hPa 0,0 l/m 7,4 km/h (2 Bft) W-SW 242 0 min 0,000 mm 0,0 UV-I 88 W/m 9,5 C 13,1 C 12,9 km/h (3 Bft) 97,73 %
21.09.2017 16:46 13,7 C 13,3 C 75 % 1019,9 hPa 0,0 l/m 6,1 km/h (2 Bft) W-SW 250 0 min 0,000 mm 0,0 UV-I 85 W/m 9,3 C 13,7 C 11,3 km/h (2 Bft) 98,00 %
21.09.2017 16:48 13,7 C 13,3 C 76 % 1019,9 hPa 0,0 l/m 10,3 km/h (2 Bft) SW 234 0 min 0,000 mm 0,0 UV-I 81 W/m 9,5 C 11,5 C 16,1 km/h (3 Bft) 97,37 %
21.09.2017 16:50 13,7 C 13,3 C 75 % 1019,9 hPa 0,0 l/m 10,0 km/h (2 Bft) W-SW 254 0 min 0,000 mm 0,0 UV-I 78 W/m 9,3 C 11,7 C 14,5 km/h (3 Bft) 98,00 %
21.09.2017 16:52 13,6 C 13,3 C 76 % 1019,9 hPa 0,0 l/m 9,2 km/h (2 Bft) W-SW 247 0 min 0,000 mm 0,0 UV-I 76 W/m 9,4 C 12,0 C 14,5 km/h (3 Bft) 95,74 %
21.09.2017 16:54 13,6 C 13,3 C 76 % 1019,9 hPa 0,0 l/m 8,2 km/h (2 Bft) W 259 0 min 0,000 mm 0,0 UV-I 72 W/m 9,4 C 12,5 C 12,9 km/h (3 Bft) 97,73 %
21.09.2017 16:56 13,6 C 13,3 C 77 % 1019,9 hPa 0,0 l/m 7,0 km/h (2 Bft) W-SW 245 0 min 0,000 mm 0,0 UV-I 70 W/m 9,6 C 13,2 C 12,9 km/h (3 Bft) 97,87 %
21.09.2017 16:58 13,6 C 13,3 C 77 % 1019,9 hPa 0,0 l/m 8,4 km/h (2 Bft) W-SW 252 0 min 0,000 mm 0,0 UV-I 69 W/m 9,6 C 12,4 C 12,9 km/h (3 Bft) 98,00 %
21.09.2017 17:00 13,5 C 13,3 C 77 % 1019,9 hPa 0,0 l/m 6,0 km/h (2 Bft) SW 227 0 min 0,000 mm 0,0 UV-I 67 W/m 9,5 C 13,5 C 8,0 km/h (2 Bft) 97,56 %
21.09.2017 17:02 13,5 C 13,3 C 77 % 1019,9 hPa 0,0 l/m 7,3 km/h (2 Bft) W-SW 255 0 min 0,077 mm 0,0 UV-I 64 W/m 9,5 C 12,9 C 12,9 km/h (3 Bft) 94,64 %
21.09.2017 17:04 13,5 C 13,3 C 77 % 1019,9 hPa 0,0 l/m 7,3 km/h (2 Bft) W 263 0 min 0,000 mm 0,0 UV-I 62 W/m 9,5 C 12,9 C 12,9 km/h (3 Bft) 100,00 %
21.09.2017 17:06 13,4 C 13,3 C 77 % 1019,9 hPa 0,0 l/m 8,1 km/h (2 Bft) W 259 0 min 0,000 mm 0,0 UV-I 61 W/m 9,5 C 12,4 C 12,9 km/h (3 Bft) 97,78 %
21.09.2017 17:08 13,4 C 13,3 C 77 % 1019,9 hPa 0,0 l/m 6,5 km/h (2 Bft) W-SW 243 0 min 0,000 mm 0,0 UV-I 59 W/m 9,5 C 13,4 C 11,3 km/h (2 Bft) 94,23 %
21.09.2017 17:10 13,4 C 13,3 C 78 % 1019,9 hPa 0,0 l/m 6,2 km/h (2 Bft) W-SW 245 0 min 0,000 mm 0,0 UV-I 56 W/m 9,6 C 13,4 C 12,9 km/h (3 Bft) 96,00 %
21.09.2017 17:12 13,4 C 13,3 C 77 % 1020,0 hPa 0,0 l/m 7,4 km/h (2 Bft) SW 236 0 min 0,000 mm 0,0 UV-I 54 W/m 9,5 C 12,8 C 12,9 km/h (3 Bft) 97,44 %
21.09.2017 17:14 13,4 C 13,3 C 77 % 1019,9 hPa 0,0 l/m 8,7 km/h (2 Bft) W-SW 252 0 min 0,000 mm 0,0 UV-I 53 W/m 9,5 C 12,0 C 14,5 km/h (3 Bft) 98,28 %
21.09.2017 17:16 13,4 C 13,3 C 77 % 1019,9 hPa 0,0 l/m 6,8 km/h (2 Bft) SW 234 0 min 0,000 mm 0,0 UV-I 52 W/m 9,5 C 13,2 C 12,9 km/h (3 Bft) 97,62 %
21.09.2017 17:18 13,4 C 13,3 C 77 % 1019,9 hPa 0,0 l/m 6,9 km/h (2 Bft) W 279 0 min 0,000 mm 0,0 UV-I 49 W/m 9,5 C 13,1 C 9,7 km/h (2 Bft) 98,00 %
21.09.2017 17:20 13,3 C 13,3 C 77 % 1019,8 hPa 0,0 l/m 9,2 km/h (2 Bft) W 273 0 min 0,000 mm 0,0 UV-I 48 W/m 9,4 C 11,7 C 14,5 km/h (3 Bft) 97,56 %
21.09.2017 17:22 13,3 C 13,3 C 77 % 1019,8 hPa 0,0 l/m 7,3 km/h (2 Bft) W 262 0 min 0,000 mm 0,0 UV-I 48 W/m 9,4 C 12,7 C 11,3 km/h (2 Bft) 96,23 %
21.09.2017 17:24 13,3 C 13,3 C 77 % 1019,8 hPa 0,0 l/m 8,0 km/h (2 Bft) SW 235 0 min 0,000 mm 0,0 UV-I 50 W/m 9,4 C 12,3 C 12,9 km/h (3 Bft) 100,00 %
21.09.2017 17:26 13,3 C 13,3 C 77 % 1019,8 hPa 0,0 l/m 7,4 km/h (2 Bft) W-SW 253 0 min 0,000 mm 0,0 UV-I 51 W/m 9,4 C 12,7 C 11,3 km/h (2 Bft) 100,00 %
21.09.2017 17:28 13,3 C 13,3 C 77 % 1019,8 hPa 0,0 l/m 6,1 km/h (2 Bft) W-SW 254 0 min 0,000 mm 0,0 UV-I 51 W/m 9,4 C 13,3 C 12,9 km/h (3 Bft) 98,11 %
21.09.2017 17:30 13,3 C 13,3 C 78 % 1019,8 hPa 0,0 l/m 6,3 km/h (2 Bft) W 259 0 min 0,000 mm 0,0 UV-I 53 W/m 9,5 C 13,3 C 11,3 km/h (2 Bft) 100,00 %
21.09.2017 17:32 13,3 C 13,3 C 78 % 1019,8 hPa 0,0 l/m 6,9 km/h (2 Bft) W 259 0 min 0,000 mm 0,0 UV-I 54 W/m 9,5 C 13,0 C 12,9 km/h (3 Bft) 100,00 %
21.09.2017 17:34 13,3 C 13,3 C 78 % 1019,8 hPa 0,0 l/m 7,4 km/h (2 Bft) W-SW 245 0 min 0,000 mm 0,0 UV-I 56 W/m 9,5 C 12,7 C 9,7 km/h (2 Bft) 100,00 %
21.09.2017 17:36 13,3 C 13,3 C 78 % 1019,8 hPa 0,0 l/m 4,8 km/h (1 Bft) W-SW 254 0 min 0,000 mm 0,0 UV-I 54 W/m 9,5 C 13,3 C 6,4 km/h (2 Bft) 100,00 %
21.09.2017 17:38 13,3 C 13,3 C 78 % 1019,8 hPa 0,0 l/m 5,1 km/h (1 Bft) W-SW 249 0 min 0,000 mm 0,0 UV-I 53 W/m 9,5 C 13,3 C 11,3 km/h (2 Bft) 100,00 %
21.09.2017 17:40 13,3 C 13,3 C 78 % 1019,8 hPa 0,0 l/m 8,5 km/h (2 Bft) W 267 0 min 0,000 mm 0,0 UV-I 52 W/m 9,5 C 12,0 C 11,3 km/h (2 Bft) 100,00 %
21.09.2017 17:42 13,3 C 13,3 C 78 % 1019,8 hPa 0,0 l/m 7,3 km/h (2 Bft) SW 236 0 min 0,000 mm 0,0 UV-I 51 W/m 9,5 C 12,7 C 12,9 km/h (3 Bft) 100,00 %
21.09.2017 17:44 13,3 C 13,3 C 78 % 1019,8 hPa 0,0 l/m 6,5 km/h (2 Bft) SW 235 0 min 0,000 mm 0,0 UV-I 50 W/m 9,5 C 13,3 C 11,3 km/h (2 Bft) 100,00 %
21.09.2017 17:46 13,3 C 13,3 C 78 % 1019,8 hPa 0,0 l/m 6,2 km/h (2 Bft) W 261 0 min 0,000 mm 0,0 UV-I 49 W/m 9,5 C 13,3 C 11,3 km/h (2 Bft) 100,00 %
21.09.2017 17:48 13,2 C 13,3 C 78 % 1019,7 hPa 0,0 l/m 6,0 km/h (2 Bft) W-SW 239 0 min 0,000 mm 0,0 UV-I 49 W/m 9,4 C 13,2 C 11,3 km/h (2 Bft) 98,00 %
21.09.2017 17:50 13,2 C 13,3 C 78 % 1019,8 hPa 0,0 l/m 5,6 km/h (1 Bft) W-SW 254 0 min 0,000 mm 0,0 UV-I 49 W/m 9,4 C 13,2 C 8,0 km/h (2 Bft) 95,74 %
21.09.2017 17:52 13,2 C 13,3 C 78 % 1019,8 hPa 0,0 l/m 6,3 km/h (2 Bft) W-SW 237 0 min 0,000 mm 0,0 UV-I 48 W/m 9,4 C 13,2 C 8,0 km/h (2 Bft) 97,62 %
21.09.2017 17:54 13,2 C 13,3 C 78 % 1019,7 hPa 0,0 l/m 5,9 km/h (2 Bft) S-SW 211 0 min 0,000 mm 0,0 UV-I 47 W/m 9,4 C 13,2 C 11,3 km/h (2 Bft) 97,73 %
21.09.2017 17:56 13,2 C 13,3 C 78 % 1019,7 hPa 0,0 l/m 5,3 km/h (1 Bft) W-SW 241 0 min 0,000 mm 0,0 UV-I 45 W/m 9,4 C 13,2 C 8,0 km/h (2 Bft) 96,43 %
21.09.2017 17:58 13,2 C 13,3 C 79 % 1019,8 hPa 0,0 l/m 7,2 km/h (2 Bft) W-SW 248 0 min 0,000 mm 0,0 UV-I 44 W/m 9,6 C 12,7 C 12,9 km/h (3 Bft) 94,74 %
21.09.2017 18:00 13,2 C 13,3 C 79 % 1019,7 hPa 0,0 l/m 5,3 km/h (1 Bft) W-SW 254 0 min 0,050 mm 0,0 UV-I 42 W/m 9,6 C 13,2 C 11,3 km/h (2 Bft) 98,00 %
21.09.2017 18:02 13,2 C 13,3 C 79 % 1019,7 hPa 0,0 l/m 5,3 km/h (1 Bft) W-SW 248 0 min 0,000 mm 0,0 UV-I 41 W/m 9,6 C 13,2 C 8,0 km/h (2 Bft) 93,62 %
21.09.2017 18:04 13,1 C 13,3 C 79 % 1019,7 hPa 0,0 l/m 6,2 km/h (2 Bft) SW 228 0 min 0,000 mm 0,0 UV-I 40 W/m 9,5 C 13,1 C 11,3 km/h (2 Bft) 95,74 %
21.09.2017 18:06 13,1 C 13,3 C 79 % 1019,7 hPa 0,0 l/m 5,6 km/h (1 Bft) SW 234 0 min 0,000 mm 0,0 UV-I 38 W/m 9,5 C 13,1 C 8,0 km/h (2 Bft) 97,56 %
21.09.2017 18:08 13,1 C 13,3 C 79 % 1019,7 hPa 0,0 l/m 5,5 km/h (1 Bft) W-SW 250 0 min 0,000 mm 0,0 UV-I 37 W/m 9,5 C 13,1 C 8,0 km/h (2 Bft) 97,56 %
21.09.2017 18:10 13,1 C 13,3 C 80 % 1019,7 hPa 0,0 l/m 4,5 km/h (1 Bft) W-SW 250 0 min 0,000 mm 0,0 UV-I 34 W/m 9,7 C 13,1 C 6,4 km/h (2 Bft) 98,11 %
21.09.2017 18:12 13,1 C 13,3 C 80 % 1019,7 hPa 0,0 l/m 4,9 km/h (1 Bft) W-SW 248 0 min 0,000 mm 0,0 UV-I 33 W/m 9,7 C 13,1 C 8,0 km/h (2 Bft) 97,37 %
21.09.2017 18:14 13,1 C 13,3 C 80 % 1019,7 hPa 0,0 l/m 5,7 km/h (1 Bft) W-SW 256 0 min 0,000 mm 0,0 UV-I 33 W/m 9,7 C 13,1 C 8,0 km/h (2 Bft) 98,11 %
21.09.2017 18:16 13,0 C 13,3 C 80 % 1019,7 hPa 0,0 l/m 5,7 km/h (1 Bft) W-SW 256 0 min 0,000 mm 0,0 UV-I 32 W/m 9,6 C 13,0 C 8,0 km/h (2 Bft) 96,23 %
21.09.2017 18:18 13,0 C 13,3 C 80 % 1019,7 hPa 0,0 l/m 7,1 km/h (2 Bft) W-SW 246 0 min 0,000 mm 0,0 UV-I 31 W/m 9,6 C 12,6 C 11,3 km/h (2 Bft) 96,23 %
21.09.2017 18:20 13,0 C 13,3 C 80 % 1019,7 hPa 0,0 l/m 6,3 km/h (2 Bft) W-SW 254 0 min 0,000 mm 0,0 UV-I 30 W/m 9,6 C 13,0 C 11,3 km/h (2 Bft) 100,00 %
21.09.2017 18:22 13,0 C 13,3 C 80 % 1019,7 hPa 0,0 l/m 6,3 km/h (2 Bft) W-SW 248 0 min 0,000 mm 0,0 UV-I 28 W/m 9,6 C 13,0 C 11,3 km/h (2 Bft) 100,00 %
21.09.2017 18:24 12,9 C 13,3 C 80 % 1019,7 hPa 0,0 l/m 6,3 km/h (2 Bft) W-SW 250 0 min 0,000 mm 0,0 UV-I 26 W/m 9,5 C 12,9 C 9,7 km/h (2 Bft) 100,00 %
21.09.2017 18:26 12,9 C 13,3 C 80 % 1019,7 hPa 0,0 l/m 5,5 km/h (1 Bft) W 263 0 min 0,000 mm 0,0 UV-I 25 W/m 9,5 C 12,9 C 9,7 km/h (2 Bft) 100,00 %
21.09.2017 18:28 12,9 C 13,3 C 80 % 1019,7 hPa 0,0 l/m 4,5 km/h (1 Bft) W-SW 246 0 min 0,000 mm 0,0 UV-I 23 W/m 9,5 C 12,9 C 6,4 km/h (2 Bft) 100,00 %
21.09.2017 18:30 12,9 C 13,3 C 81 % 1019,7 hPa 0,0 l/m 4,8 km/h (1 Bft) W-SW 245 0 min 0,000 mm 0,0 UV-I 21 W/m 9,7 C 12,9 C 6,4 km/h (2 Bft) 100,00 %
21.09.2017 18:32 12,9 C 13,3 C 81 % 1019,7 hPa 0,0 l/m 5,2 km/h (1 Bft) W-SW 254 0 min 0,000 mm 0,0 UV-I 19 W/m 9,7 C 12,9 C 6,4 km/h (2 Bft) 100,00 %
21.09.2017 18:34 12,8 C 13,3 C 81 % 1019,7 hPa 0,0 l/m 3,8 km/h (1 Bft) W-SW 254 0 min 0,000 mm 0,0 UV-I 18 W/m 9,6 C 12,8 C 6,4 km/h (2 Bft) 97,44 %
21.09.2017 18:36 12,8 C 13,3 C 81 % 1019,7 hPa 0,0 l/m 5,0 km/h (1 Bft) W-SW 250 0 min 0,000 mm 0,0 UV-I 17 W/m 9,6 C 12,8 C 6,4 km/h (2 Bft) 100,00 %
21.09.2017 18:38 12,8 C 13,3 C 81 % 1019,7 hPa 0,0 l/m 4,4 km/h (1 Bft) W 260 0 min 0,000 mm 0,0 UV-I 15 W/m 9,6 C 12,8 C 6,4 km/h (2 Bft) 97,56 %
21.09.2017 18:40 12,8 C 13,3 C 81 % 1019,7 hPa 0,0 l/m 4,7 km/h (1 Bft) W-SW 258 0 min 0,000 mm 0,0 UV-I 14 W/m 9,6 C 12,8 C 6,4 km/h (2 Bft) 98,11 %
21.09.2017 18:42 12,8 C 13,3 C 81 % 1019,7 hPa 0,0 l/m 4,1 km/h (1 Bft) SW 229 0 min 0,000 mm 0,0 UV-I 14 W/m 9,6 C 12,8 C 6,4 km/h (2 Bft) 100,00 %
21.09.2017 18:44 12,7 C 13,3 C 82 % 1019,7 hPa 0,0 l/m 4,0 km/h (1 Bft) SW 229 0 min 0,000 mm 0,0 UV-I 12 W/m 9,7 C 12,7 C 6,4 km/h (2 Bft) 100,00 %
21.09.2017 18:46 12,7 C 13,3 C 82 % 1019,7 hPa 0,0 l/m 3,9 km/h (1 Bft) SW 229 0 min 0,000 mm 0,0 UV-I 12 W/m 9,7 C 12,7 C 4,8 km/h (1 Bft) 97,87 %
21.09.2017 18:48 12,7 C 13,3 C 82 % 1019,7 hPa 0,0 l/m 4,7 km/h (1 Bft) SW 229 0 min 0,000 mm 0,0 UV-I 11 W/m 9,7 C 12,7 C 8,0 km/h (2 Bft) 97,87 %
21.09.2017 18:50 12,7 C 13,3 C 82 % 1019,7 hPa 0,0 l/m 5,0 km/h (1 Bft) W-SW 244 0 min 0,000 mm 0,0 UV-I 11 W/m 9,7 C 12,7 C 8,0 km/h (2 Bft) 100,00 %
21.09.2017 18:52 12,7 C 13,3 C 83 % 1019,7 hPa 0,0 l/m 4,9 km/h (1 Bft) SW 227 0 min 0,000 mm 0,0 UV-I 10 W/m 9,9 C 12,7 C 8,0 km/h (2 Bft) 97,37 %
21.09.2017 18:54 12,6 C 13,3 C 83 % 1019,8 hPa 0,0 l/m 5,9 km/h (2 Bft) W-SW 241 0 min 0,000 mm 0,0 UV-I 9 W/m 9,8 C 12,6 C 9,7 km/h (2 Bft) 98,31 %
21.09.2017 18:56 12,6 C 13,3 C 83 % 1019,7 hPa 0,0 l/m 5,3 km/h (1 Bft) SW 230 0 min 0,000 mm 0,0 UV-I 9 W/m 9,8 C 12,6 C 8,0 km/h (2 Bft) 100,00 %
21.09.2017 18:58 12,6 C 13,3 C 84 % 1019,7 hPa 0,0 l/m 5,3 km/h (1 Bft) SW 225 0 min 0,000 mm 0,0 UV-I 7 W/m 10,0 C 12,6 C 8,0 km/h (2 Bft) 100,00 %
21.09.2017 19:00 12,6 C 13,3 C 84 % 1019,7 hPa 0,0 l/m 5,8 km/h (2 Bft) SW 232 0 min 0,026 mm 0,0 UV-I 7 W/m 10,0 C 12,6 C 8,0 km/h (2 Bft) 100,00 %
21.09.2017 19:02 12,5 C 13,3 C 84 % 1019,7 hPa 0,0 l/m 5,6 km/h (1 Bft) SW 232 0 min 0,000 mm 0,0 UV-I 7 W/m 9,9 C 12,5 C 8,0 km/h (2 Bft) 98,00 %
21.09.2017 19:04 12,4 C 13,3 C 84 % 1019,7 hPa 0,0 l/m 5,0 km/h (1 Bft) SW 232 0 min 0,000 mm 0,0 UV-I 6 W/m 9,8 C 12,4 C 8,0 km/h (2 Bft) 100,00 %
21.09.2017 19:06 12,4 C 13,3 C 85 % 1019,7 hPa 0,0 l/m 4,4 km/h (1 Bft) W-SW 246 0 min 0,000 mm 0,0 UV-I 5 W/m 9,9 C 12,4 C 6,4 km/h (2 Bft) 100,00 %
21.09.2017 19:08 12,4 C 13,3 C 85 % 1019,8 hPa 0,0 l/m 4,4 km/h (1 Bft) W-SW 249 0 min 0,000 mm 0,0 UV-I 5 W/m 9,9 C 12,4 C 6,4 km/h (2 Bft) 98,08 %
21.09.2017 19:10 12,3 C 13,3 C 85 % 1019,7 hPa 0,0 l/m 4,8 km/h (1 Bft) W-SW 238 0 min 0,000 mm 0,0 UV-I 5 W/m 9,9 C 12,3 C 6,4 km/h (2 Bft) 100,00 %
21.09.2017 19:12 12,3 C 13,3 C 85 % 1019,7 hPa 0,0 l/m 4,9 km/h (1 Bft) SW 215 0 min 0,000 mm 0,0 UV-I 4 W/m 9,9 C 12,3 C 6,4 km/h (2 Bft) 100,00 %
21.09.2017 19:14 12,3 C 13,3 C 85 % 1019,8 hPa 0,0 l/m 4,5 km/h (1 Bft) SW 236 0 min 0,000 mm 0,0 UV-I 0 W/m 9,9 C 12,3 C 6,4 km/h (2 Bft) 100,00 %
21.09.2017 19:16 12,3 C 13,3 C 85 % 1019,8 hPa 0,0 l/m 3,4 km/h (1 Bft) SW 236 0 min 0,000 mm 0,0 UV-I 0 W/m 9,9 C 12,3 C 4,8 km/h (1 Bft) 100,00 %
21.09.2017 19:18 12,3 C 13,3 C 85 % 1019,8 hPa 0,0 l/m 5,2 km/h (1 Bft) S-SW 201 0 min 0,000 mm 0,0 UV-I 0 W/m 9,9 C 12,3 C 8,0 km/h (2 Bft) 100,00 %
21.09.2017 19:20 12,3 C 13,3 C 85 % 1019,8 hPa 0,0 l/m 4,0 km/h (1 Bft) S-SW 209 0 min 0,000 mm 0,0 UV-I 0 W/m 9,9 C 12,3 C 6,4 km/h (2 Bft) 100,00 %
21.09.2017 19:22 12,3 C 13,3 C 85 % 1019,9 hPa 0,0 l/m 4,3 km/h (1 Bft) S-SW 211 0 min 0,000 mm 0,0 UV-I 0 W/m 9,9 C 12,3 C 6,4 km/h (2 Bft) 100,00 %
21.09.2017 19:24 12,3 C 13,3 C 85 % 1019,9 hPa 0,0 l/m 3,6 km/h (1 Bft) S-SW 211 0 min 0,000 mm 0,0 UV-I 0 W/m 9,9 C 12,3 C 4,8 km/h (1 Bft) 100,00 %
21.09.2017 19:26 12,3 C 13,3 C 85 % 1019,9 hPa 0,0 l/m 4,3 km/h (1 Bft) S-SW 211 0 min 0,000 mm 0,0 UV-I 0 W/m 9,9 C 12,3 C 4,8 km/h (1 Bft) 100,00 %
21.09.2017 19:28 12,3 C 13,3 C 86 % 1019,9 hPa 0,0 l/m 4,9 km/h (1 Bft) SW 225 0 min 0,000 mm 0,0 UV-I 0 W/m 10,0 C 12,3 C 6,4 km/h (2 Bft) 100,00 %
21.09.2017 19:30 12,2 C 13,3 C 86 % 1019,9 hPa 0,0 l/m 3,8 km/h (1 Bft) SW 225 0 min 0,000 mm 0,0 UV-I 0 W/m 9,9 C 12,2 C 4,8 km/h (1 Bft) 100,00 %
21.09.2017 19:32 12,2 C 13,3 C 86 % 1019,9 hPa 0,0 l/m 3,9 km/h (1 Bft) SW 225 0 min 0,000 mm 0,0 UV-I 0 W/m 9,9 C 12,2 C 4,8 km/h (1 Bft) 100,00 %
21.09.2017 19:34 12,2 C 13,3 C 86 % 1019,9 hPa 0,0 l/m 4,0 km/h (1 Bft) SW 225 0 min 0,000 mm 0,0 UV-I 0 W/m 9,9 C 12,2 C 6,4 km/h (2 Bft) 100,00 %
21.09.2017 19:36 12,1 C 13,3 C 86 % 1019,9 hPa 0,0 l/m 4,3 km/h (1 Bft) SW 225 0 min 0,000 mm 0,0 UV-I 0 W/m 9,8 C 12,1 C 4,8 km/h (1 Bft) 100,00 %
21.09.2017 19:38 12,1 C 13,3 C 87 % 1019,9 hPa 0,0 l/m 4,1 km/h (1 Bft) SW 225 0 min 0,000 mm 0,0 UV-I 0 W/m 10,0 C 12,1 C 4,8 km/h (1 Bft) 100,00 %
21.09.2017 19:40 12,1 C 13,3 C 87 % 1019,9 hPa 0,0 l/m 4,3 km/h (1 Bft) SW 224 0 min 0,000 mm 0,0 UV-I 0 W/m 10,0 C 12,1 C 6,4 km/h (2 Bft) 100,00 %
21.09.2017 19:42 12,1 C 13,3 C 87 % 1019,9 hPa 0,0 l/m 4,9 km/h (1 Bft) S-SW 211 0 min 0,000 mm 0,0 UV-I 0 W/m 10,0 C 12,1 C 8,0 km/h (2 Bft) 100,00 %
21.09.2017 19:44 12,1 C 13,3 C 87 % 1019,9 hPa 0,0 l/m 4,3 km/h (1 Bft) S-SW 211 0 min 0,000 mm 0,0 UV-I 0 W/m 10,0 C 12,1 C 6,4 km/h (2 Bft) 100,00 %
21.09.2017 19:46 12,1 C 13,3 C 87 % 1019,9 hPa 0,0 l/m 4,6 km/h (1 Bft) SW 229 0 min 0,000 mm 0,0 UV-I 0 W/m 10,0 C 12,1 C 6,4 km/h (2 Bft) 97,44 %
21.09.2017 19:48 12,1 C 13,3 C 87 % 1019,9 hPa 0,0 l/m 4,2 km/h (1 Bft) SW 228 0 min 0,000 mm 0,0 UV-I 0 W/m 10,0 C 12,1 C 6,4 km/h (2 Bft) 97,96 %
21.09.2017 19:50 12,1 C 13,3 C 87 % 1019,9 hPa 0,0 l/m 4,4 km/h (1 Bft) SW 220 0 min 0,000 mm 0,0 UV-I 0 W/m 10,0 C 12,1 C 6,4 km/h (2 Bft) 98,00 %
21.09.2017 19:52 12,1 C 13,3 C 87 % 1019,9 hPa 0,0 l/m 5,2 km/h (1 Bft) SW 221 0 min 0,000 mm 0,0 UV-I 0 W/m 10,0 C 12,1 C 8,0 km/h (2 Bft) 95,35 %
21.09.2017 19:54 12,1 C 13,3 C 86 % 1019,9 hPa 0,0 l/m 5,5 km/h (1 Bft) S-SW 210 0 min 0,000 mm 0,0 UV-I 0 W/m 9,8 C 12,1 C 6,4 km/h (2 Bft) 97,87 %
21.09.2017 19:56 12,1 C 13,3 C 86 % 1019,9 hPa 0,0 l/m 3,4 km/h (1 Bft) S-SW 210 0 min 0,000 mm 0,0 UV-I 0 W/m 9,8 C 12,1 C 6,4 km/h (2 Bft) 98,00 %
21.09.2017 19:58 12,1 C 13,3 C 86 % 1019,9 hPa 0,0 l/m 3,5 km/h (1 Bft) S-SW 210 0 min 0,000 mm 0,0 UV-I 0 W/m 9,8 C 12,1 C 6,4 km/h (2 Bft) 97,37 %
21.09.2017 20:00 12,1 C 13,3 C 86 % 1019,9 hPa 0,0 l/m 3,2 km/h (1 Bft) W-SW 240 0 min 0,000 mm 0,0 UV-I 0 W/m 9,8 C 12,1 C 6,4 km/h (2 Bft) 98,00 %
21.09.2017 20:02 12,1 C 13,3 C 86 % 1019,9 hPa 0,0 l/m 4,3 km/h (1 Bft) SW 232 0 min 0,000 mm 0,0 UV-I 0 W/m 9,8 C 12,1 C 6,4 km/h (2 Bft) 94,34 %
21.09.2017 20:04 12,1 C 13,3 C 86 % 1020,0 hPa 0,0 l/m 4,6 km/h (1 Bft) SW 231 0 min 0,000 mm 0,0 UV-I 0 W/m 9,8 C 12,1 C 6,4 km/h (2 Bft) 100,00 %
21.09.2017 20:06 12,1 C 13,3 C 86 % 1020,0 hPa 0,0 l/m 4,9 km/h (1 Bft) S-SW 212 0 min 0,000 mm 0,0 UV-I 0 W/m 9,8 C 12,1 C 8,0 km/h (2 Bft) 96,23 %
21.09.2017 20:08 12,1 C 13,3 C 86 % 1020,0 hPa 0,0 l/m 4,7 km/h (1 Bft) S-SW 212 0 min 0,000 mm 0,0 UV-I 0 W/m 9,8 C 12,1 C 6,4 km/h (2 Bft) 95,74 %
21.09.2017 20:10 12,1 C 13,3 C 86 % 1020,0 hPa 0,0 l/m 4,1 km/h (1 Bft) S-SW 212 0 min 0,000 mm 0,0 UV-I 0 W/m 9,8 C 12,1 C 6,4 km/h (2 Bft) 94,74 %
21.09.2017 20:12 12,1 C 13,3 C 86 % 1020,0 hPa 0,0 l/m 4,1 km/h (1 Bft) S-SW 212 0 min 0,000 mm 0,0 UV-I 0 W/m 9,8 C 12,1 C 6,4 km/h (2 Bft) 96,00 %
21.09.2017 20:14 12,1 C 13,3 C 86 % 1020,0 hPa 0,0 l/m 4,4 km/h (1 Bft) S-SW 212 0 min 0,000 mm 0,0 UV-I 0 W/m 9,8 C 12,1 C 6,4 km/h (2 Bft) 96,00 %
21.09.2017 20:16 12,1 C 13,3 C 86 % 1020,0 hPa 0,0 l/m 4,8 km/h (1 Bft) S-SW 212 0 min 0,000 mm 0,0 UV-I 0 W/m 9,8 C 12,1 C 8,0 km/h (2 Bft) 91,49 %
21.09.2017 20:18 12,1 C 13,3 C 86 % 1020,0 hPa 0,0 l/m 5,9 km/h (2 Bft) SW 218 0 min 0,000 mm 0,0 UV-I 0 W/m 9,8 C 12,1 C 8,0 km/h (2 Bft) 96,23 %
21.09.2017 20:20 12,1 C 13,3 C 86 % 1020,1 hPa 0,0 l/m 5,8 km/h (2 Bft) S-SW 213 0 min 0,000 mm 0,0 UV-I 0 W/m 9,8 C 12,1 C 8,0 km/h (2 Bft) 92,68 %
21.09.2017 20:22 12,1 C 13,3 C 86 % 1020,1 hPa 0,0 l/m 6,0 km/h (2 Bft) S-SW 198 0 min 0,000 mm 0,0 UV-I 0 W/m 9,8 C 12,1 C 8,0 km/h (2 Bft) 94,34 %
21.09.2017 20:24 12,1 C 13,3 C 86 % 1020,0 hPa 0,0 l/m 4,6 km/h (1 Bft) S-SW 209 0 min 0,000 mm 0,0 UV-I 0 W/m 9,8 C 12,1 C 8,0 km/h (2 Bft) 97,37 %
21.09.2017 20:26 12,1 C 13,3 C 86 % 1020,0 hPa 0,0 l/m 5,4 km/h (1 Bft) S-SW 201 0 min 0,000 mm 0,0 UV-I 0 W/m 9,8 C 12,1 C 8,0 km/h (2 Bft) 97,92 %
21.09.2017 20:28 12,1 C 13,3 C 86 % 1020,0 hPa 0,0 l/m 4,3 km/h (1 Bft) S-SW 201 0 min 0,000 mm 0,0 UV-I 0 W/m 9,8 C 12,1 C 6,4 km/h (2 Bft) 97,87 %
21.09.2017 20:30 12,1 C 13,3 C 86 % 1020,0 hPa 0,0 l/m 4,6 km/h (1 Bft) S-SW 201 0 min 0,000 mm 0,0 UV-I 0 W/m 9,8 C 12,1 C 6,4 km/h (2 Bft) 98,00 %
21.09.2017 20:32 12,1 C 13,3 C 86 % 1020,0 hPa 0,0 l/m 4,9 km/h (1 Bft) S-SW 201 0 min 0,000 mm 0,0 UV-I 0 W/m 9,8 C 12,1 C 6,4 km/h (2 Bft) 97,56 %
21.09.2017 20:34 12,1 C 13,3 C 86 % 1020,0 hPa 0,0 l/m 4,7 km/h (1 Bft) S-SW 204 0 min 0,000 mm 0,0 UV-I 0 W/m 9,8 C 12,1 C 8,0 km/h (2 Bft) 98,11 %
21.09.2017 20:36 12,1 C 13,3 C 86 % 1020,0 hPa 0,0 l/m 4,3 km/h (1 Bft) S-SW 211 0 min 0,000 mm 0,0 UV-I 0 W/m 9,8 C 12,1 C 8,0 km/h (2 Bft) 96,00 %
21.09.2017 20:38 12,1 C 13,3 C 86 % 1020,0 hPa 0,0 l/m 3,7 km/h (1 Bft) S-SW 211 0 min 0,000 mm 0,0 UV-I 0 W/m 9,8 C 12,1 C 6,4 km/h (2 Bft) 97,87 %
21.09.2017 20:40 12,1 C 13,3 C 86 % 1019,9 hPa 0,0 l/m 4,1 km/h (1 Bft) S 180 0 min 0,000 mm 0,0 UV-I 0 W/m 9,8 C 12,1 C 6,4 km/h (2 Bft) 97,56 %
21.09.2017 20:42 12,1 C 13,3 C 86 % 1019,9 hPa 0,0 l/m 6,7 km/h (2 Bft) S-SW 198 0 min 0,000 mm 0,0 UV-I 0 W/m 9,8 C 11,9 C 9,7 km/h (2 Bft) 93,62 %
21.09.2017 20:44 12,0 C 13,3 C 86 % 1020,0 hPa 0,0 l/m 7,2 km/h (2 Bft) SW 215 0 min 0,000 mm 0,0 UV-I 0 W/m 9,7 C 11,5 C 11,3 km/h (2 Bft) 96,00 %
21.09.2017 20:46 12,0 C 13,3 C 86 % 1020,0 hPa 0,0 l/m 5,4 km/h (1 Bft) S 191 0 min 0,000 mm 0,0 UV-I 0 W/m 9,7 C 12,0 C 8,0 km/h (2 Bft) 98,00 %
21.09.2017 20:48 12,0 C 13,3 C 86 % 1020,0 hPa 0,0 l/m 5,3 km/h (1 Bft) S-SW 204 0 min 0,000 mm 0,0 UV-I 0 W/m 9,7 C 12,0 C 11,3 km/h (2 Bft) 97,87 %
21.09.2017 20:50 11,9 C 13,3 C 86 % 1020,0 hPa 0,0 l/m 6,2 km/h (2 Bft) S-SW 210 0 min 0,000 mm 0,0 UV-I 0 W/m 9,6 C 11,9 C 9,7 km/h (2 Bft) 97,56 %
21.09.2017 20:52 11,9 C 13,3 C 86 % 1020,0 hPa 0,0 l/m 3,9 km/h (1 Bft) S-SW 210 0 min 0,000 mm 0,0 UV-I 0 W/m 9,6 C 11,9 C 9,7 km/h (2 Bft) 98,00 %
21.09.2017 20:54 11,9 C 13,3 C 85 % 1020,0 hPa 0,0 l/m 3,9 km/h (1 Bft) S-SW 211 0 min 0,000 mm 0,0 UV-I 0 W/m 9,5 C 11,9 C 6,4 km/h (2 Bft) 98,00 %
21.09.2017 20:56 11,9 C 13,3 C 85 % 1020,1 hPa 0,0 l/m 4,1 km/h (1 Bft) S-SW 211 0 min 0,000 mm 0,0 UV-I 0 W/m 9,5 C 11,9 C 6,4 km/h (2 Bft) 97,56 %
21.09.2017 20:58 11,9 C 13,3 C 85 % 1020,1 hPa 0,0 l/m 2,8 km/h (1 Bft) S-SW 211 0 min 0,000 mm 0,0 UV-I 0 W/m 9,5 C 11,9 C 4,8 km/h (1 Bft) 96,00 %
21.09.2017 21:00 11,9 C 13,3 C 85 % 1020,1 hPa 0,0 l/m 3,6 km/h (1 Bft) S-SW 211 0 min 0,000 mm 0,0 UV-I 0 W/m 9,5 C 11,9 C 4,8 km/h (1 Bft) 100,00 %
21.09.2017 21:02 11,9 C 13,3 C 85 % 1020,0 hPa 0,0 l/m 5,0 km/h (1 Bft) S-SW 211 0 min 0,000 mm 0,0 UV-I 0 W/m 9,5 C 11,9 C 6,4 km/h (2 Bft) 94,34 %
21.09.2017 21:04 11,9 C 13,3 C 85 % 1020,0 hPa 0,0 l/m 5,2 km/h (1 Bft) S-SW 211 0 min 0,000 mm 0,0 UV-I 0 W/m 9,5 C 11,9 C 8,0 km/h (2 Bft) 95,74 %
21.09.2017 21:06 11,9 C 13,3 C 85 % 1020,0 hPa 0,0 l/m 4,5 km/h (1 Bft) S-SW 211 0 min 0,000 mm 0,0 UV-I 0 W/m 9,5 C 11,9 C 6,4 km/h (2 Bft) 98,00 %
21.09.2017 21:08 11,9 C 13,3 C 85 % 1020,0 hPa 0,0 l/m 5,4 km/h (1 Bft) S-SW 204 0 min 0,000 mm 0,0 UV-I 0 W/m 9,5 C 11,9 C 8,0 km/h (2 Bft) 97,62 %
21.09.2017 21:10 11,9 C 13,3 C 86 % 1020,0 hPa 0,0 l/m 7,0 km/h (2 Bft) S-SW 207 0 min 0,000 mm 0,0 UV-I 0 W/m 9,6 C 11,5 C 8,0 km/h (2 Bft) 100,00 %
21.09.2017 21:12 11,9 C 13,3 C 85 % 1020,0 hPa 0,0 l/m 4,5 km/h (1 Bft) S-SW 207 0 min 0,000 mm 0,0 UV-I 0 W/m 9,5 C 11,9 C 6,4 km/h (2 Bft) 100,00 %
21.09.2017 21:14 11,9 C 13,3 C 86 % 1020,0 hPa 0,0 l/m 3,8 km/h (1 Bft) S-SW 207 0 min 0,000 mm 0,0 UV-I 0 W/m 9,6 C 11,9 C 6,4 km/h (2 Bft) 100,00 %
21.09.2017 21:16 11,9 C 13,3 C 86 % 1020,0 hPa 0,0 l/m 2,7 km/h (1 Bft) S-SW 207 0 min 0,000 mm 0,0 UV-I 0 W/m 9,6 C 11,9 C 4,8 km/h (1 Bft) 100,00 %
21.09.2017 21:18 11,9 C 13,3 C 86 % 1020,0 hPa 0,0 l/m 3,3 km/h (1 Bft) S-SW 207 0 min 0,000 mm 0,0 UV-I 0 W/m 9,6 C 11,9 C 4,8 km/h (1 Bft) 100,00 %
21.09.2017 21:20 11,9 C 13,3 C 85 % 1020,0 hPa 0,0 l/m 4,2 km/h (1 Bft) S-SW 207 0 min 0,000 mm 0,0 UV-I 0 W/m 9,5 C 11,9 C 4,8 km/h (1 Bft) 98,11 %
21.09.2017 21:22 11,9 C 13,3 C 85 % 1020,0 hPa 0,0 l/m 4,7 km/h (1 Bft) S-SW 207 0 min 0,000 mm 0,0 UV-I 0 W/m 9,5 C 11,9 C 6,4 km/h (2 Bft) 98,00 %
21.09.2017 21:24 11,9 C 13,3 C 85 % 1020,0 hPa 0,0 l/m 5,0 km/h (1 Bft) S-SW 207 0 min 0,000 mm 0,0 UV-I 0 W/m 9,5 C 11,9 C 6,4 km/h (2 Bft) 100,00 %
21.09.2017 21:26 11,9 C 13,3 C 86 % 1020,0 hPa 0,0 l/m 4,0 km/h (1 Bft) S-SW 207 0 min 0,000 mm 0,0 UV-I 0 W/m 9,6 C 11,9 C 4,8 km/h (1 Bft) 98,00 %
21.09.2017 21:28 11,9 C 13,3 C 86 % 1020,0 hPa 0,0 l/m 3,9 km/h (1 Bft) S-SW 207 0 min 0,000 mm 0,0 UV-I 0 W/m 9,6 C 11,9 C 4,8 km/h (1 Bft) 100,00 %
21.09.2017 21:30 11,9 C 13,3 C 86 % 1020,0 hPa 0,0 l/m 3,7 km/h (1 Bft) S-SW 207 0 min 0,000 mm 0,0 UV-I 0 W/m 9,6 C 11,9 C 6,4 km/h (2 Bft) 95,74 %
21.09.2017 21:32 11,9 C 13,3 C 86 % 1020,0 hPa 0,0 l/m 3,4 km/h (1 Bft) S-SW 207 0 min 0,000 mm 0,0 UV-I 0 W/m 9,6 C 11,9 C 4,8 km/h (1 Bft) 100,00 %
21.09.2017 21:34 11,9 C 13,3 C 86 % 1020,0 hPa 0,0 l/m 3,8 km/h (1 Bft) S-SW 207 0 min 0,000 mm 0,0 UV-I 0 W/m 9,6 C 11,9 C 4,8 km/h (1 Bft) 100,00 %
21.09.2017 21:36 11,8 C 13,3 C 86 % 1020,0 hPa 0,0 l/m 3,5 km/h (1 Bft) S-SW 207 0 min 0,000 mm 0,0 UV-I 0 W/m 9,5 C 11,8 C 4,8 km/h (1 Bft) 100,00 %
21.09.2017 21:38 11,9 C 13,3 C 86 % 1020,0 hPa 0,0 l/m 4,8 km/h (1 Bft) S-SW 207 0 min 0,000 mm 0,0 UV-I 0 W/m 9,6 C 11,9 C 6,4 km/h (2 Bft) 100,00 %
21.09.2017 21:40 11,8 C 13,3 C 86 % 1019,9 hPa 0,0 l/m 4,4 km/h (1 Bft) S-SW 207 0 min 0,000 mm 0,0 UV-I 0 W/m 9,5 C 11,8 C 6,4 km/h (2 Bft) 97,87 %
21.09.2017 21:42 11,8 C 13,3 C 86 % 1020,0 hPa 0,0 l/m 4,5 km/h (1 Bft) S-SW 207 0 min 0,000 mm 0,0 UV-I 0 W/m 9,5 C 11,8 C 6,4 km/h (2 Bft) 100,00 %
21.09.2017 21:44 11,8 C 13,3 C 86 % 1020,0 hPa 0,0 l/m 4,6 km/h (1 Bft) S-SW 207 0 min 0,000 mm 0,0 UV-I 0 W/m 9,5 C 11,8 C 6,4 km/h (2 Bft) 100,00 %
21.09.2017 21:46 11,8 C 13,3 C 87 % 1019,9 hPa 0,0 l/m 4,9 km/h (1 Bft) S-SW 207 0 min 0,000 mm 0,0 UV-I 0 W/m 9,7 C 11,8 C 6,4 km/h (2 Bft) 100,00 %
21.09.2017 21:48 11,8 C 13,3 C 87 % 1019,9 hPa 0,0 l/m 5,2 km/h (1 Bft) S-SW 207 0 min 0,000 mm 0,0 UV-I 0 W/m 9,7 C 11,8 C 6,4 km/h (2 Bft) 96,15 %
21.09.2017 21:50 11,8 C 13,3 C 87 % 1019,9 hPa 0,0 l/m 6,1 km/h (2 Bft) S-SW 207 0 min 0,000 mm 0,0 UV-I 0 W/m 9,7 C 11,8 C 8,0 km/h (2 Bft) 100,00 %
21.09.2017 21:52 11,8 C 13,3 C 87 % 1020,0 hPa 0,0 l/m 5,7 km/h (1 Bft) SW 221 0 min 0,000 mm 0,0 UV-I 0 W/m 9,7 C 11,8 C 8,0 km/h (2 Bft) 97,37 %
21.09.2017 21:54 11,8 C 13,3 C 87 % 1020,0 hPa 0,0 l/m 4,1 km/h (1 Bft) W-SW 241 0 min 0,000 mm 0,0 UV-I 0 W/m 9,7 C 11,8 C 6,4 km/h (2 Bft) 98,00 %
21.09.2017 21:56 11,8 C 13,3 C 87 % 1020,0 hPa 0,0 l/m 4,8 km/h (1 Bft) W-SW 239 0 min 0,000 mm 0,0 UV-I 0 W/m 9,7 C 11,8 C 6,4 km/h (2 Bft) 98,00 %
21.09.2017 21:58 11,7 C 13,3 C 87 % 1020,0 hPa 0,0 l/m 4,0 km/h (1 Bft) W-SW 239 0 min 0,000 mm 0,0 UV-I 0 W/m 9,6 C 11,7 C 6,4 km/h (2 Bft) 100,00 %
21.09.2017 22:00 11,7 C 13,3 C 87 % 1020,0 hPa 0,0 l/m 3,9 km/h (1 Bft) W-SW 239 0 min 0,000 mm 0,0 UV-I 0 W/m 9,6 C 11,7 C 4,8 km/h (1 Bft) 100,00 %
21.09.2017 22:02 11,7 C 13,3 C 87 % 1020,0 hPa 0,0 l/m 3,1 km/h (1 Bft) W-SW 239 0 min 0,000 mm 0,0 UV-I 0 W/m 9,6 C 11,7 C 4,8 km/h (1 Bft) 96,23 %
21.09.2017 22:04 11,7 C 13,3 C 87 % 1020,0 hPa 0,0 l/m 4,4 km/h (1 Bft) W-SW 238 0 min 0,000 mm 0,0 UV-I 0 W/m 9,6 C 11,7 C 6,4 km/h (2 Bft) 97,22 %
21.09.2017 22:06 11,7 C 13,3 C 87 % 1020,0 hPa 0,0 l/m 3,8 km/h (1 Bft) W-SW 238 0 min 0,000 mm 0,0 UV-I 0 W/m 9,6 C 11,7 C 4,8 km/h (1 Bft) 96,55 %
21.09.2017 22:08 11,7 C 13,3 C 87 % 1020,0 hPa 0,0 l/m 3,8 km/h (1 Bft) W-SW 238 0 min 0,000 mm 0,0 UV-I 0 W/m 9,6 C 11,7 C 6,4 km/h (2 Bft) 97,44 %
21.09.2017 22:10 11,7 C 13,3 C 87 % 1020,0 hPa 0,0 l/m 5,2 km/h (1 Bft) SW 219 0 min 0,000 mm 0,0 UV-I 0 W/m 9,6 C 11,7 C 8,0 km/h (2 Bft) 97,87 %
21.09.2017 22:13 11,6 C 13,3 C 88 % 1020,0 hPa 0,0 l/m 3,6 km/h (1 Bft) SW 219 0 min 0,000 mm 0,0 UV-I 0 W/m 9,7 C 11,6 C 6,4 km/h (2 Bft) 97,26 %
21.09.2017 22:14 11,6 C 13,3 C 88 % 1020,0 hPa 0,0 l/m 2,9 km/h (1 Bft) SW 219 0 min 0,000 mm 0,0 UV-I 0 W/m 9,7 C 11,6 C 4,8 km/h (1 Bft) 96,30 %
21.09.2017 22:16 11,6 C 13,3 C 88 % 1019,9 hPa 0,0 l/m 2,8 km/h (1 Bft) SW 219 0 min 0,000 mm 0,0 UV-I 0 W/m 9,7 C 11,6 C 4,8 km/h (1 Bft) 96,00 %
21.09.2017 22:18 11,6 C 13,3 C 88 % 1019,9 hPa 0,0 l/m 3,5 km/h (1 Bft) SW 219 0 min 0,000 mm 0,0 UV-I 0 W/m 9,7 C 11,6 C 4,8 km/h (1 Bft) 97,14 %
21.09.2017 22:20 11,6 C 13,3 C 88 % 1019,9 hPa 0,0 l/m 4,8 km/h (1 Bft) SW 215 0 min 0,000 mm 0,0 UV-I 0 W/m 9,7 C 11,6 C 8,0 km/h (2 Bft) 96,23 %
21.09.2017 22:22 11,5 C 13,3 C 88 % 1019,9 hPa 0,0 l/m 5,3 km/h (1 Bft) S-SW 213 0 min 0,000 mm 0,0 UV-I 0 W/m 9,6 C 11,5 C 9,7 km/h (2 Bft) 96,00 %
21.09.2017 22:24 11,5 C 13,3 C 88 % 1019,9 hPa 0,0 l/m 4,4 km/h (1 Bft) S-SW 212 0 min 0,000 mm 0,0 UV-I 0 W/m 9,6 C 11,5 C 8,0 km/h (2 Bft) 97,37 %
21.09.2017 22:26 11,5 C 13,3 C 88 % 1019,9 hPa 0,0 l/m 5,5 km/h (1 Bft) S-SW 201 0 min 0,000 mm 0,0 UV-I 0 W/m 9,6 C 11,5 C 8,0 km/h (2 Bft) 100,00 %
21.09.2017 22:28 11,4 C 13,3 C 88 % 1019,9 hPa 0,0 l/m 4,9 km/h (1 Bft) SW 225 0 min 0,000 mm 0,0 UV-I 0 W/m 9,5 C 11,4 C 8,0 km/h (2 Bft) 100,00 %
21.09.2017 22:30 11,4 C 13,3 C 88 % 1019,9 hPa 0,0 l/m 5,7 km/h (1 Bft) SW 225 0 min 0,000 mm 0,0 UV-I 0 W/m 9,5 C 11,4 C 8,0 km/h (2 Bft) 100,00 %
21.09.2017 22:32 11,4 C 13,3 C 88 % 1019,9 hPa 0,0 l/m 4,6 km/h (1 Bft) SW 225 0 min 0,000 mm 0,0 UV-I 0 W/m 9,5 C 11,4 C 6,4 km/h (2 Bft) 100,00 %
21.09.2017 22:34 11,4 C 13,3 C 88 % 1019,9 hPa 0,0 l/m 4,3 km/h (1 Bft) SW 225 0 min 0,000 mm 0,0 UV-I 0 W/m 9,5 C 11,4 C 8,0 km/h (2 Bft) 100,00 %
21.09.2017 22:36 11,4 C 13,3 C 88 % 1019,8 hPa 0,0 l/m 4,0 km/h (1 Bft) SW 225 0 min 0,000 mm 0,0 UV-I 0 W/m 9,5 C 11,4 C 6,4 km/h (2 Bft) 100,00 %
21.09.2017 22:38 11,4 C 13,3 C 88 % 1019,9 hPa 0,0 l/m 3,8 km/h (1 Bft) SW 219 0 min 0,000 mm 0,0 UV-I 0 W/m 9,5 C 11,4 C 4,8 km/h (1 Bft) 97,37 %
21.09.2017 22:40 11,4 C 13,3 C 88 % 1019,9 hPa 0,0 l/m 4,4 km/h (1 Bft) SW 218 0 min 0,000 mm 0,0 UV-I 0 W/m 9,5 C 11,4 C 6,4 km/h (2 Bft) 97,92 %
21.09.2017 22:42 11,3 C 13,3 C 88 % 1019,9 hPa 0,0 l/m 5,6 km/h (1 Bft) S-SW 213 0 min 0,000 mm 0,0 UV-I 0 W/m 9,4 C 11,3 C 8,0 km/h (2 Bft) 100,00 %
21.09.2017 22:44 11,3 C 13,3 C 88 % 1019,8 hPa 0,0 l/m 5,6 km/h (1 Bft) S-SW 201 0 min 0,000 mm 0,0 UV-I 0 W/m 9,4 C 11,3 C 8,0 km/h (2 Bft) 100,00 %
21.09.2017 22:46 11,3 C 13,3 C 88 % 1019,9 hPa 0,0 l/m 5,7 km/h (1 Bft) S-SW 196 0 min 0,000 mm 0,0 UV-I 0 W/m 9,4 C 11,3 C 9,7 km/h (2 Bft) 100,00 %
21.09.2017 22:48 11,3 C 13,3 C 88 % 1019,8 hPa 0,0 l/m 5,8 km/h (2 Bft) S-SW 207 0 min 0,000 mm 0,0 UV-I 0 W/m 9,4 C 11,3 C 8,0 km/h (2 Bft) 100,00 %
21.09.2017 22:50 11,3 C 13,3 C 88 % 1019,8 hPa 0,0 l/m 5,3 km/h (1 Bft) S-SW 211 0 min 0,000 mm 0,0 UV-I 0 W/m 9,4 C 11,3 C 8,0 km/h (2 Bft) 100,00 %
21.09.2017 22:52 11,3 C 13,3 C 88 % 1019,8 hPa 0,0 l/m 6,7 km/h (2 Bft) S-SW 208 0 min 0,000 mm 0,0 UV-I 0 W/m 9,4 C 11,1 C 9,7 km/h (2 Bft) 100,00 %
21.09.2017 22:54 11,2 C 13,3 C 88 % 1019,8 hPa 0,0 l/m 6,8 km/h (2 Bft) S-SW 211 0 min 0,000 mm 0,0 UV-I 0 W/m 9,3 C 10,9 C 8,0 km/h (2 Bft) 100,00 %
21.09.2017 22:56 11,2 C 13,3 C 88 % 1019,8 hPa 0,0 l/m 3,9 km/h (1 Bft) S-SW 211 0 min 0,000 mm 0,0 UV-I 0 W/m 9,3 C 11,2 C 6,4 km/h (2 Bft) 100,00 %
21.09.2017 22:58 11,2 C 13,3 C 88 % 1019,8 hPa 0,0 l/m 4,5 km/h (1 Bft) SW 217 0 min 0,000 mm 0,0 UV-I 0 W/m 9,3 C 11,2 C 6,4 km/h (2 Bft) 97,87 %
21.09.2017 23:00 11,2 C 13,3 C 88 % 1019,8 hPa 0,0 l/m 4,6 km/h (1 Bft) S-SW 210 0 min 0,000 mm 0,0 UV-I 0 W/m 9,3 C 11,2 C 8,0 km/h (2 Bft) 100,00 %
21.09.2017 23:02 11,2 C 13,3 C 88 % 1019,8 hPa 0,0 l/m 6,4 km/h (2 Bft) S-SW 209 0 min 0,000 mm 0,0 UV-I 0 W/m 9,3 C 11,2 C 8,0 km/h (2 Bft) 100,00 %
21.09.2017 23:04 11,2 C 13,3 C 88 % 1019,7 hPa 0,0 l/m 7,3 km/h (2 Bft) S-SW 207 0 min 0,000 mm 0,0 UV-I 0 W/m 9,3 C 10,6 C 9,7 km/h (2 Bft) 97,37 %
21.09.2017 23:06 11,2 C 13,3 C 88 % 1019,7 hPa 0,0 l/m 6,9 km/h (2 Bft) S-SW 211 0 min 0,000 mm 0,0 UV-I 0 W/m 9,3 C 10,9 C 9,7 km/h (2 Bft) 100,00 %
21.09.2017 23:08 11,2 C 13,3 C 88 % 1019,7 hPa 0,0 l/m 7,6 km/h (2 Bft) S-SW 210 0 min 0,000 mm 0,0 UV-I 0 W/m 9,3 C 10,4 C 9,7 km/h (2 Bft) 100,00 %
21.09.2017 23:10 11,1 C 13,3 C 88 % 1019,7 hPa 0,0 l/m 7,0 km/h (2 Bft) S-SW 212 0 min 0,000 mm 0,0 UV-I 0 W/m 9,2 C 10,7 C 9,7 km/h (2 Bft) 100,00 %
21.09.2017 23:12 11,1 C 13,3 C 88 % 1019,7 hPa 0,0 l/m 7,1 km/h (2 Bft) S-SW 205 0 min 0,000 mm 0,0 UV-I 0 W/m 9,2 C 10,6 C 9,7 km/h (2 Bft) 100,00 %
21.09.2017 23:14 11,1 C 13,3 C 88 % 1019,7 hPa 0,0 l/m 6,3 km/h (2 Bft) S-SW 213 0 min 0,000 mm 0,0 UV-I 0 W/m 9,2 C 11,1 C 8,0 km/h (2 Bft) 100,00 %
21.09.2017 23:16 11,1 C 13,3 C 88 % 1019,7 hPa 0,0 l/m 7,5 km/h (2 Bft) S-SW 213 0 min 0,000 mm 0,0 UV-I 0 W/m 9,2 C 10,3 C 9,7 km/h (2 Bft) 100,00 %
21.09.2017 23:18 11,1 C 13,3 C 89 % 1019,7 hPa 0,0 l/m 8,5 km/h (2 Bft) SW 218 0 min 0,000 mm 0,0 UV-I 0 W/m 9,4 C 9,7 C 11,3 km/h (2 Bft) 100,00 %
21.09.2017 23:20 11,1 C 13,3 C 89 % 1019,6 hPa 0,0 l/m 6,7 km/h (2 Bft) W-SW 237 0 min 0,000 mm 0,0 UV-I 0 W/m 9,4 C 10,9 C 9,7 km/h (2 Bft) 100,00 %
21.09.2017 23:22 11,1 C 13,3 C 89 % 1019,7 hPa 0,0 l/m 6,7 km/h (2 Bft) SW 218 0 min 0,000 mm 0,0 UV-I 0 W/m 9,4 C 10,9 C 11,3 km/h (2 Bft) 100,00 %
21.09.2017 23:24 11,0 C 13,3 C 88 % 1019,7 hPa 0,0 l/m 6,8 km/h (2 Bft) S-SW 198 0 min 0,000 mm 0,0 UV-I 0 W/m 9,1 C 10,7 C 9,7 km/h (2 Bft) 97,87 %
21.09.2017 23:26 11,0 C 13,3 C 88 % 1019,7 hPa 0,0 l/m 8,0 km/h (2 Bft) W-SW 240 0 min 0,000 mm 0,0 UV-I 0 W/m 9,1 C 9,9 C 12,9 km/h (3 Bft) 100,00 %
21.09.2017 23:28 11,0 C 13,3 C 88 % 1019,7 hPa 0,0 l/m 7,9 km/h (2 Bft) SW 236 0 min 0,000 mm 0,0 UV-I 0 W/m 9,1 C 10,0 C 12,9 km/h (3 Bft) 100,00 %
21.09.2017 23:30 11,0 C 13,3 C 88 % 1019,7 hPa 0,0 l/m 6,8 km/h (2 Bft) SW 222 0 min 0,000 mm 0,0 UV-I 0 W/m 9,1 C 10,7 C 9,7 km/h (2 Bft) 100,00 %
21.09.2017 23:32 10,9 C 13,3 C 88 % 1019,7 hPa 0,0 l/m 6,3 km/h (2 Bft) W-SW 244 0 min 0,000 mm 0,0 UV-I 0 W/m 9,0 C 10,9 C 9,7 km/h (2 Bft) 98,18 %
21.09.2017 23:34 10,9 C 13,3 C 88 % 1019,7 hPa 0,0 l/m 7,2 km/h (2 Bft) W-SW 239 0 min 0,000 mm 0,0 UV-I 0 W/m 9,0 C 10,3 C 11,3 km/h (2 Bft) 100,00 %
21.09.2017 23:36 10,9 C 13,3 C 88 % 1019,7 hPa 0,0 l/m 5,9 km/h (2 Bft) SW 223 0 min 0,000 mm 0,0 UV-I 0 W/m 9,0 C 10,9 C 8,0 km/h (2 Bft) 100,00 %
21.09.2017 23:38 10,9 C 13,3 C 88 % 1019,7 hPa 0,0 l/m 6,8 km/h (2 Bft) SW 220 0 min 0,000 mm 0,0 UV-I 0 W/m 9,0 C 10,6 C 11,3 km/h (2 Bft) 100,00 %
21.09.2017 23:40 10,9 C 13,3 C 88 % 1019,7 hPa 0,0 l/m 5,7 km/h (1 Bft) SW 232 0 min 0,000 mm 0,0 UV-I 0 W/m 9,0 C 10,9 C 9,7 km/h (2 Bft) 97,14 %
21.09.2017 23:42 10,9 C 13,3 C 88 % 1019,7 hPa 0,0 l/m 6,3 km/h (2 Bft) S-SW 196 0 min 0,000 mm 0,0 UV-I 0 W/m 9,0 C 10,9 C 8,0 km/h (2 Bft) 98,31 %
21.09.2017 23:44 10,9 C 13,3 C 88 % 1019,7 hPa 0,0 l/m 5,9 km/h (2 Bft) SW 236 0 min 0,000 mm 0,0 UV-I 0 W/m 9,0 C 10,9 C 8,0 km/h (2 Bft) 97,37 %
21.09.2017 23:46 10,9 C 13,3 C 88 % 1019,7 hPa 0,0 l/m 7,9 km/h (2 Bft) S-SW 207 0 min 0,000 mm 0,0 UV-I 0 W/m 9,0 C 9,9 C 11,3 km/h (2 Bft) 98,11 %
21.09.2017 23:48 10,9 C 13,3 C 88 % 1019,7 hPa 0,0 l/m 6,3 km/h (2 Bft) S-SW 213 0 min 0,000 mm 0,0 UV-I 0 W/m 9,0 C 10,9 C 9,7 km/h (2 Bft) 100,00 %
21.09.2017 23:50 10,9 C 13,3 C 88 % 1019,6 hPa 0,0 l/m 7,7 km/h (2 Bft) S 191 0 min 0,000 mm 0,0 UV-I 0 W/m 9,0 C 10,0 C 11,3 km/h (2 Bft) 97,73 %
21.09.2017 23:52 10,8 C 13,3 C 88 % 1019,7 hPa 0,0 l/m 8,4 km/h (2 Bft) S-SW 211 0 min 0,000 mm 0,0 UV-I 0 W/m 8,9 C 9,4 C 14,5 km/h (3 Bft) 98,00 %
21.09.2017 23:54 10,8 C 13,3 C 88 % 1019,7 hPa 0,0 l/m 7,2 km/h (2 Bft) SW 223 0 min 0,000 mm 0,0 UV-I 0 W/m 8,9 C 10,2 C 12,9 km/h (3 Bft) 98,11 %
21.09.2017 23:56 10,8 C 13,3 C 88 % 1019,7 hPa 0,0 l/m 7,1 km/h (2 Bft) SW 232 0 min 0,000 mm 0,0 UV-I 0 W/m 8,9 C 10,3 C 11,3 km/h (2 Bft) 94,74 %
21.09.2017 23:58 10,8 C 13,3 C 88 % 1019,7 hPa 0,0 l/m 6,5 km/h (2 Bft) S-SW 198 0 min 0,000 mm 0,0 UV-I 0 W/m 8,9 C 10,8 C 11,3 km/h (2 Bft) 96,23 %
_ Min-Zeit 03:10 08:36 14:00 23:20 - 07:26 - - - - - - 00:30 02:32 07:26 20:16
Minimum _ 9,3 C 12,8 C 73 % 1019,6 hPa - 1,9 km/h (1 Bft) - - - - - - 7,6 C 4,2 C 3,2 km/h (1 Bft) 91,49 %
_ Max-Zeit 13:48 00:00 04:38 10:26 00:00 12:52 - - 10:38 13:02 12:34 12:34 11:10 13:48 12:08 00:12
Maximum _ 14,0 C 13,3 C 93 % 1021,5 hPa 0,0 l/m 18,5 km/h
W-SW (3 Bft)
- - 2 min 0,254 mm 2,6 UV-I 529 W/m 10,3 C 14,0 C 27,4 km/h
W-SW (4 Bft)
100,00 %
Durchschnitt _ 11,3 C 13,3 C 86 % 1020,4 hPa #0,0 l/m 7,8 km/h (2 Bft) W-SW - #1:50 h #1,321 mm 1,3 UV-I 168 W/m 8,9 C 10,1 C 12,3 km/h (3 Bft) 98,12 %